MPMG - Transparência

Contra-cheque - Remuneração de todos os servidores ativos - Pré Resolução CNMP 200/2019

Período: 2013 - Fevereiro

Ordem Matrícula Nome Cargo Efetivo Situação Unidade Administrativa Rendimentos Descontos Rendimento Líquido Total Indenizações Outras Remunerações Retroativas/Temporárias Data de Referência
Remuneração Básica Remuneração Eventual ou Temporária Total de Rendimentos Brutos Obrigatórios/Legais Total de Descontos
Remuneração do Cargo Efetivo Outras Verbas Remuneratórias Função de Confiança ou Cargo em Comissão Gratificação Natalina Férias Abono de Permanência Contribuição Previdenciária Imposto de Renda Retenção por Teto Constitucional
1 498900 ABDON MARCIO BARBOSA DA SILVA OFICIAL DO MP ATIVO ABRE CAMPO - COMARCA; ABRE CAMPO-PJ-02PJ 2.772,23 0,00 0,00 0,00 0,00 0,00 2.772,23 304,95 56,74 0,00 361,69 2.410,54 709,11 0,00 28/02/2013
2 177800 ADALBERTO MENEZES FARIA SAMORA COORDENADOR/OFICIAL ATIVO BELO HORIZONTE - COMARCA; DIRET DE PLANOS PROJETOS E PROGRAMAS INST 0,00 1.934,99 9.674,93 0,00 0,00 0,00 11.609,92 1.208,21 2.026,92 0,00 3.235,13 8.374,79 822,00 2.467,50 28/02/2013
3 306400 ADALBERTO MOREIRA GONCALVES ANALISTA DO MP ATIVO CONTAGEM - COMARCA; CONTAGEM-PJ-01PJ 7.982,93 798,29 0,00 0,00 0,00 0,00 8.781,22 1.134,52 1.358,62 0,00 2.493,14 6.288,08 442,45 1.994,69 28/02/2013
4 179300 ADENISE AUXILIADORA SOUZA SAD OFICIAL DO MP ATIVO BARBACENA - COMARCA; EXTINTA-BARBACENA - 06ª PJ EXECUÇÃO PENAL 7.487,46 1.497,49 0,00 0,00 0,00 0,00 8.984,95 1.100,96 1.313,90 0,00 2.414,86 6.570,09 3.567,68 1.941,08 28/02/2013
5 77700 ADIL EXPEDITO DE OLIVEIRA JUNIOR ASSESSOR ATIVO BELO HORIZONTE - COMARCA; CAO-CRIANCAS E ADOLESCENTES-SECRETARIA 0,00 5.989,97 7.487,46 0,00 0,00 0,00 13.477,43 1.777,20 2.413,44 0,00 4.190,64 9.286,79 410,48 4.272,82 28/02/2013
6 272200 ADILSON BATISTA ORNELAS OFICIAL DO MP ATIVO LAVRAS - COMARCA; LAVRAS-PJ-02PJ 3.698,79 369,88 0,00 0,00 0,00 0,00 4.068,67 447,55 119,39 0,00 566,94 3.501,73 3.567,68 160,78 28/02/2013
7 380100 ADILSON GONCALVES DE MELO JUNIOR ANALISTA DO MP ATIVO ARAXÁ - COMARCA; ARAXA-PJ-05PJ 5.883,73 353,02 0,00 0,00 0,00 0,00 6.236,75 692,77 641,28 0,00 1.334,05 4.902,70 3.843,07 383,89 28/02/2013
8 148800 ADILSON JANUARIO OFICIAL DO MP ATIVO BELO HORIZONTE - COMARCA; BH-22PJ PES COM DEF E IDOSOS-SECRETARIA 8.788,36 4.394,18 0,00 0,00 0,00 0,00 13.182,54 1.937,22 2.293,97 0,00 4.231,19 8.951,35 3.567,68 5.956,98 28/02/2013
9 322600 ADMILSON SILVEIRA OFICIAL DO MP ATIVO BOCAIÚVA - COMARCA; BOCAIUVA-PJ-01PJ 4.005,77 400,58 0,00 0,00 0,00 0,00 4.406,35 484,70 305,37 0,00 790,07 3.616,28 1.542,67 89,30 28/02/2013
10 333700 ADRIANA ABRITTA TEIXEIRA OFICIAL DO MP ATIVO BELO HORIZONTE - COMARCA; DIRET DE PESSOAL DO MINISTERIO PUBLICO - DPMP 5.344,58 534,46 0,00 0,00 0,00 0,00 5.879,04 730,89 820,98 0,00 1.551,87 4.327,17 3.567,68 1.105,03 28/02/2013
11 468500 ADRIANA APARECIDA FIRMINO ANALISTA DO MP ATIVO CARATINGA - COMARCA; CARATINGA-PJ-04PJ 4.701,73 0,00 0,00 0,00 0,00 0,00 4.701,73 517,19 287,14 0,00 804,33 3.897,40 587,00 0,00 28/02/2013
12 326100 ADRIANA AUGUSTA AMARAL BELO OFICIAL DO MP ATIVO BARBACENA - COMARCA; BARBACENA-PJ-08PJ 5.344,58 534,46 0,00 0,00 0,00 0,00 5.879,04 653,68 553,73 0,00 1.207,41 4.671,63 822,00 110,87 28/02/2013
13 254800 ADRIANA DAS GRACAS FERNANDES ANALISTA DO MP ATIVO UBERABA - COMARCA; UBERABA-PJ-07PJ 9.074,45 4.537,23 0,00 0,00 0,00 0,00 13.611,68 1.876,21 2.540,88 0,00 4.417,09 9.194,59 352,00 4.492,59 28/02/2013
14 246900 ADRIANA DE ALMEIDA ANTONINI ASSESSOR ATIVO BELO HORIZONTE - COMARCA; PROCON-MG-SECRETARIA DE FISCALIZACOES 0,00 443,06 2.215,31 0,00 0,00 0,00 2.658,37 331,14 46,23 0,00 377,37 2.281,00 352,00 0,00 28/02/2013
15 217400 ADRIANA DE CARVALHO CATAO BRAGA ASSESSOR ATIVO BELO HORIZONTE - COMARCA; EXTINTA - DIRETORIA DE CONTRATOS E CONVÊNIOS 0,00 1.176,75 5.883,73 0,00 0,00 0,00 7.060,48 457,49 1.025,24 0,00 1.482,73 5.577,75 352,00 104,74 28/02/2013
16 434600 ADRIANA FERREIRA DA SILVA ANALISTA DO MP ATIVO BELO HORIZONTE - COMARCA; BH-19PJ SAUDE 5.344,58 320,67 0,00 0,00 1.888,42 0,00 7.553,67 623,18 1.115,30 0,00 1.738,48 5.815,19 352,00 0,00 28/02/2013
17 499800 ADRIANA FERREIRA TIAGO OFICIAL DO MP ATIVO SALINAS - COMARCA; SALINAS-PJ-02PJ 2.772,23 0,00 0,00 0,00 0,00 0,00 2.772,23 304,95 56,74 0,00 361,69 2.410,54 352,00 0,00 28/02/2013
18 471500 ADRIANA HORTA DE CARVALHO RODRIGUES DE SOUSA ANALISTA DO MP ATIVO NOVA LIMA - COMARCA; NOVA LIMA-PJ-03PJ 5.698,20 0,00 0,00 0,00 0,00 0,00 5.698,20 626,80 556,76 0,00 1.183,56 4.514,64 587,00 0,00 28/02/2013
19 86400 ADRIANA MOREIRA CALDEIRA BRANT OFICIAL DO MP ATIVO BELO HORIZONTE - COMARCA; EXTINTA-TUTELA DAS FUNDACOES-21 PJ- GABINETE 7.731,26 3.092,51 0,00 0,00 0,00 0,00 10.823,77 1.394,67 1.811,25 0,00 3.205,92 7.617,85 352,00 2.337,91 28/02/2013
20 480700 ADRIANA MOREIRA DE AVELLAR CEZILIO OFICIAL DO MP ATIVO BELO HORIZONTE - COMARCA; EXTINTA - DIVISAO DE MATERIAL DE CONSUMO 3.051,96 0,00 0,00 0,00 0,00 0,00 3.051,96 383,92 107,74 0,00 491,66 2.560,30 822,00 689,99 28/02/2013
21 326000 ADRIANA PEREIRA CARNEIRO RESENDE OFICIAL DO MP ATIVO BELO HORIZONTE - COMARCA; BH-18PJ VIOLENCIA DOMESTICA 4.553,46 455,35 0,00 0,00 0,00 0,00 5.008,81 550,97 348,63 0,00 899,60 4.109,21 352,00 0,00 28/02/2013
22 502200 ADRIANA PETRUCCI DAVINA OFICIAL DO MP ATIVO UBERABA - COMARCA; UBERABA-PJ-14PJ 3.051,96 0,00 0,00 0,00 0,00 0,00 3.051,96 335,72 86,84 0,00 422,56 2.629,40 352,00 0,00 28/02/2013
23 201900 ADRIANA REIS PIMENTA OFICIAL DO MP ATIVO TEÓFILO OTONI - COMARCA; TEOFILO OTONI-PJ-03PJ 7.487,46 1.497,49 0,00 0,00 0,00 0,00 8.984,95 1.118,91 1.408,49 0,00 2.527,40 6.457,55 3.567,68 2.118,53 28/02/2013
24 278700 ADRIANA RODRIGUES PINTO COELHO AMARAL ANALISTA DO MP ATIVO BELO HORIZONTE - COMARCA; EXTINTA-MEIO AMB PATRIM HIST CULTURAL-15PJGAB 8.788,36 878,84 0,00 0,00 0,00 0,00 9.667,20 1.217,80 1.480,88 0,00 2.698,68 6.968,52 921,85 2.204,32 28/02/2013
25 468000 ADRIANA SANTOS DE SANTANA MOREIRA ANALISTA DO MP ATIVO ARAÇUAÍ - COMARCA; ARACUAI-PJ-01PJ 4.701,73 940,35 0,00 0,00 0,00 0,00 5.642,08 764,03 767,91 0,00 1.531,94 4.110,14 3.013,40 1.847,35 28/02/2013
26 194700 ADRIANA TSUKIDE OFICIAL DO MP ATIVO UBERABA - COMARCA; COORD REG BACIAS PARANAIBA BAIXO RIO GRANDE 7.487,46 1.497,49 0,00 0,00 0,00 0,00 8.984,95 1.115,33 1.408,49 0,00 2.523,82 6.461,13 352,00 1.563,86 28/02/2013
27 206400 ADRIANE MENDES DE SOUZA ANALISTA DO MP ATIVO BELO HORIZONTE - COMARCA; BH-23PJ CIVEL-FISC AC POL PUB II 10.315,17 5.157,58 0,00 0,00 0,00 0,00 15.472,75 2.102,92 2.901,79 0,00 5.004,71 10.468,04 851,33 4.935,10 28/02/2013
28 465500 ADRIANO CASSIANO MATOS ANALISTA DO MP ATIVO ARAXÁ - COMARCA; ARAXA-PJ-03PJ 4.701,73 0,00 0,00 0,00 0,00 0,00 4.701,73 517,19 364,52 0,00 881,71 3.820,02 352,00 0,00 28/02/2013
29 500500 ADRIANO DE ALMEIDA SILVA OFICIAL DO MP ATIVO UBERABA - COMARCA; UBERABA-PJ-12PJ 2.772,23 0,00 0,00 0,00 0,00 0,00 2.772,23 304,95 56,74 0,00 361,69 2.410,54 352,00 0,00 28/02/2013
30 187200 ADRIANO DE FREITAS MARON OFICIAL DO MP ATIVO PONTE NOVA - COMARCA; PONTE NOVA-PJ-03PJ 5.698,20 3.988,74 0,00 0,00 0,00 0,00 9.686,94 1.281,97 1.580,30 0,00 2.862,27 6.824,67 960,11 2.536,58 28/02/2013
31 477900 ADRIANO FERREIRA DE ALMEIDA OFICIAL DO MP ATIVO MONTES CLAROS - COMARCA; MONTES CLAROS-PJ-01PJ 3.051,96 0,00 0,00 0,00 0,00 0,00 3.051,96 335,72 49,61 0,00 385,33 2.666,63 352,00 0,00 28/02/2013
32 416500 ADRIANO PELUSIO MELGACO JUNIOR OFICIAL DO MP ATIVO BELO HORIZONTE - COMARCA; BH-10PJ EXECUÇÃO PENAL-SECRETARIA 3.469,26 208,16 0,00 0,00 0,00 0,00 3.677,42 404,52 144,54 0,00 549,06 3.128,36 352,00 0,00 28/02/2013
33 269101 ADRIANO PEREIRA SILVA ANALISTA DO MP ATIVO UBERABA - COMARCA; UBERABA-PJ-02PJ 5.698,20 0,00 0,00 0,00 0,00 0,00 5.698,20 633,57 604,06 0,00 1.237,63 4.460,57 3.069,52 335,07 28/02/2013
34 414200 ADRIANO RODRIGUES FERNANDES ANALISTA DO MP ATIVO CARANDAÍ - COMARCA; CARANDAI-PJ-UNPJ 5.344,58 320,67 0,00 0,00 0,00 0,00 5.665,25 630,03 454,11 0,00 1.084,14 4.581,11 587,00 108,66 28/02/2013
35 514300 ADRIENE DAMASCENO BRAGA ANALISTA DO MP ATIVO ALFENAS - COMARCA; ALFENAS-PJ-03PJ 4.701,73 0,00 0,00 0,00 0,00 0,00 4.701,73 517,19 364,52 0,00 881,71 3.820,02 352,00 0,00 28/02/2013
36 254600 ADRIENE DOMINGUES COSTA ANALISTA DO MP ATIVO BELO HORIZONTE - COMARCA; PROC. JUSTICA DIR. DIFUSOS E COLETIVOS-SEC 7.731,26 1.546,25 0,00 0,00 0,00 0,00 9.277,51 1.215,49 1.480,09 0,00 2.695,58 6.581,93 0,00 2.496,47 28/02/2013
37 252001 ADRIENE GOMES BARRETO ANALISTA DO MP ATIVO BELO HORIZONTE - COMARCA; BH-19PJ SAUDE-SECRETARIA 150PJ 6.379,14 1.913,74 0,00 0,00 0,00 0,00 8.292,88 1.035,91 1.239,10 0,00 2.275,01 6.017,87 3.575,51 1.836,62 28/02/2013
38 118100 AGENOR ALCIR RODRIGUES DA SILVA OFICIAL DO MP ATIVO SÃO JOÃO NEPOMUCENO - COMARCA; SAO JOAO NEPOMUCENO-PJ-01PJ 9.674,93 6.772,45 0,00 0,00 0,00 0,00 16.447,38 2.255,24 3.234,92 0,00 5.490,16 10.957,22 3.567,68 5.571,44 28/02/2013
39 302500 AGENOR JOSE DA SILVA JUNIOR ANALISTA DO MP ATIVO JUIZ DE FORA - COMARCA; JUIZ DE FORA-PJ-07PJ 7.982,93 798,29 0,00 0,00 0,00 0,00 8.781,22 1.109,66 1.264,04 0,00 2.373,70 6.407,52 4.257,53 2.677,89 28/02/2013
40 357500 AILSON WAGNER DE ALENCAR SILVA OFICIAL DO MP ATIVO BELO HORIZONTE - COMARCA; DIRETORIA DO COLEGIO E DA CAMARA DE PJ 4.854,78 970,96 0,00 0,00 0,00 0,00 5.825,74 825,34 760,70 0,00 1.586,04 4.239,70 3.466,32 2.301,69 28/02/2013
41 366400 AILTON ALEXSSANDRO ALVES OFICIAL DO MP ATIVO PARÁ DE MINAS - COMARCA; PARA DE MINAS-PJ-05PJ 4.270,85 854,17 0,00 0,00 0,00 0,00 5.125,02 563,75 463,77 0,00 1.027,52 4.097,50 3.567,68 294,77 28/02/2013
42 318900 AILTON DE CASTRO RIBEIRO JUNIOR OFICIAL DO MP ATIVO POUSO ALEGRE - COMARCA; POUSO ALEGRE-PJ-03PJ 4.409,86 440,99 0,00 0,00 0,00 0,00 4.850,85 533,59 278,30 0,00 811,89 4.038,96 3.567,68 241,18 28/02/2013
43 464400 ALAN MONTEIRO GASPAR ANALISTA DO MP ATIVO SETE LAGOAS - COMARCA; SETE LAGOAS-PJ-03PJ 4.701,73 0,00 0,00 0,00 1.567,24 0,00 6.268,97 517,19 791,16 0,00 1.308,35 4.960,62 352,00 0,00 28/02/2013
44 492000 ALANA DE CASTRO FREITAS OFICIAL DO MP ATIVO BOM SUCESSO - COMARCA; BOM SUCESSO-PJ-UNPJ 2.772,23 0,00 0,00 0,00 0,00 0,00 2.772,23 304,95 56,74 0,00 361,69 2.410,54 352,00 0,00 28/02/2013
45 306700 ALANA MARCIA DE OLIVEIRA OFICIAL DO MP ATIVO BELO HORIZONTE - COMARCA; DIRETORIA DE ADMINISTRACAO FINANCEIRA 5.012,79 501,28 0,00 0,00 0,00 0,00 5.514,07 606,55 417,11 0,00 1.023,66 4.490,41 2.650,39 210,69 28/02/2013
46 324500 ALANMAR COUTINHO COSTA OFICIAL DO MP ATIVO LEOPOLDINA - COMARCA; LEOPOLDINA-PJ-02PJ 4.005,77 400,58 0,00 0,00 0,00 0,00 4.406,35 484,70 122,80 0,00 607,50 3.798,85 3.802,68 160,78 28/02/2013
47 508200 ALBERTO DA SILVA VIEIRA ASSESSOR ATIVO BELO HORIZONTE - COMARCA; ASSESS ESPECIAL DO PGJ ATUACAO JUNTO A PGJAA 0,00 0,00 8.242,82 0,00 0,00 0,00 8.242,82 457,49 1.350,39 0,00 1.807,88 6.434,94 352,00 0,00 28/02/2013
48 407300 ALBERTO LUIZ SOARES DE OLIVEIRA ANALISTA DO MP ATIVO BELO HORIZONTE - COMARCA; SUPERINTENDÊNCIA DE ENGENHARIA E ARQUITETURA 5.883,73 353,02 0,00 0,00 0,00 0,00 6.236,75 697,38 735,87 0,00 1.433,25 4.803,50 352,00 153,44 28/02/2013
49 118200 ALBERTO PEREIRA DA COSTA OFICIAL DO MP ATIVO DORES DO INDAIÁ - COMARCA; DORES DO INDAIA-PJ-UNPJ 7.982,93 5.588,05 0,00 0,00 0,00 0,00 13.570,98 1.893,03 2.483,63 0,00 4.376,66 9.194,32 2.564,71 4.933,21 28/02/2013
50 282400 ALCILENE MARISE DE ARAUJO ANALISTA DO MP ATIVO BELO HORIZONTE - COMARCA; BH-23PJ INF-FISC MED SOC FEC 8.788,36 878,84 0,00 0,00 3.222,40 0,00 12.889,60 1.234,52 2.367,04 0,00 3.601,56 9.288,04 352,00 2.265,68 28/02/2013
51 112600 ALCIONE DA MOTA JARDIM OFICIAL DO MP ATIVO BELO HORIZONTE - COMARCA; BELO HORIZONTE- SECRETARIA DAS PROMOTORIAS 6.586,88 2.634,75 0,00 0,00 0,00 0,00 9.221,63 1.197,74 1.419,12 0,00 2.616,86 6.604,77 587,00 2.130,26 28/02/2013
52 396400 ALCIONE DE FREITAS E SILVA ANALISTA DO MP ATIVO BELO HORIZONTE - COMARCA; DIRET DE PESSOAL DO MINISTERIO PUBLICO - DPMP 6.379,14 1.275,83 0,00 0,00 0,00 0,00 7.654,97 945,51 1.082,97 0,00 2.028,48 5.626,49 603,83 1.356,63 28/02/2013
53 161600 ALCIONE NERY SOUZA ASSESSOR ATIVO BELO HORIZONTE - COMARCA; BH-15PJ M AMB PAT HIST CULT 0,00 1.765,12 5.883,73 0,00 0,00 0,00 7.648,85 457,49 1.187,04 0,00 1.644,53 6.004,32 352,00 1.480,00 28/02/2013
54 376000 ALDA GOMES LANA OFICIAL DO MP ATIVO BELO HORIZONTE - COMARCA; BH-18PJ VIOLENCIA DOMESTICA 4.553,46 273,21 0,00 0,00 0,00 0,00 4.826,67 530,93 350,85 0,00 881,78 3.944,89 352,00 0,00 28/02/2013
55 148000 ALDA MARTINS SIMOES OFICIAL DO MP ATIVO BELO HORIZONTE - COMARCA; BH-23PJ CIVEL- FISC ENT AB POL 8.788,36 2.636,51 0,00 0,00 0,00 0,00 11.424,87 1.520,01 2.005,66 0,00 3.525,67 7.899,20 352,00 3.237,75 28/02/2013
56 318400 ALDO CREPALDI JUNIOR OFICIAL DO MP ATIVO BELO HORIZONTE - COMARCA; EXTINTA - DIVISAO DE MATERIAL DE CONSUMO 4.553,46 455,35 0,00 0,00 0,00 0,00 5.008,81 558,31 398,45 0,00 956,76 4.052,05 587,00 154,19 28/02/2013
57 118400 ALECIO JOSE GUIMARAES DE OLIVEIRA ANALISTA DO MP ATIVO BOM SUCESSO - COMARCA; BOM SUCESSO-PJ-UNPJ 13.036,58 10.429,26 0,00 0,00 0,00 0,00 23.465,84 3.259,67 5.111,45 0,00 8.371,12 15.094,72 352,00 8.064,68 28/02/2013
58 197900 ALESSA DE SOUSA E SILVA OFICIAL DO MP ATIVO OLIVEIRA - COMARCA; OLIVEIRA-PJ-02PJ 7.731,26 1.546,25 0,00 0,00 0,00 0,00 9.277,51 1.209,92 1.432,80 0,00 2.642,72 6.634,79 673,54 2.514,13 28/02/2013
59 428500 ALESSANDRA ALVES DINIZ OFICIAL DO MP ATIVO BELO HORIZONTE - COMARCA; BH-14PJ DEFESA CONSUMIDOR-SECRETARIA 3.151,29 945,39 0,00 0,00 0,00 0,00 4.096,68 450,63 243,36 0,00 693,99 3.402,69 352,00 0,00 28/02/2013
60 286801 ALESSANDRA BOTELHO JUNQUEIRA DE MENEZES ANALISTA DO MP ATIVO PASSOS - COMARCA; PASSOS-PJ-05PJ 6.379,14 1.275,83 0,00 0,00 0,00 0,00 7.654,97 888,62 1.035,68 0,00 1.924,30 5.730,67 352,00 754,76 28/02/2013
61 307000 ALESSANDRA CRISTINA SANTOS MENDES ANALISTA DO MP ATIVO OURO PRETO - COMARCA; OURO PRETO-PJ-02PJ 6.177,98 617,80 0,00 0,00 0,00 0,00 6.795,78 747,54 872,69 0,00 1.620,23 5.175,55 398,29 4,24 28/02/2013
62 264400 ALESSANDRA DE SOUZA SANTOS COORDENADOR/ANALISTA ATIVO BELO HORIZONTE - COMARCA; DIRETORIA DE PRODUCAO EDITORIAL 9.074,45 4.657,33 0,00 0,00 0,00 0,00 13.731,78 1.637,75 2.631,90 0,00 4.269,65 9.462,13 352,00 4.354,11 28/02/2013
63 441500 ALESSANDRA DRUMMOND DE FIGUEIREDO ROSSI ANALISTA DO MP ATIVO BELO HORIZONTE - COMARCA; DIVIS DE PROJETOS DE ENGENHARIA E ARQUITETURA 4.854,78 291,29 0,00 0,00 1.715,36 0,00 6.861,43 566,07 940,64 0,00 1.506,71 5.354,72 352,00 0,00 28/02/2013
64 524000 ALESSANDRA LUCIOLI DE BARROS GUERRA ANALISTA DO MP ATIVO BELO HORIZONTE - COMARCA; BH-12PJ JUIZO CRIMINAL 4.136,15 0,00 0,00 0,00 0,00 0,00 4.136,15 454,98 251,26 0,00 706,24 3.429,91 352,00 0,00 28/02/2013
65 479900 ALESSANDRA MARA ANDRADE DE FARIA OFICIAL DO MP ATIVO UBERABA - COMARCA; UBERABA-PJ-05PJ 3.359,85 0,00 0,00 0,00 0,00 0,00 3.359,85 423,77 217,55 0,00 641,32 2.718,53 822,00 779,98 28/02/2013
66 226700 ALESSANDRA MARA VASCONCELOS REZENDE OFICIAL DO MP ATIVO CONSELHEIRO LAFAIETE - COMARCA; CONSELHEIRO LAFAIETE-PJ-07PJ 4.409,86 881,97 0,00 0,00 0,00 0,00 5.291,83 582,10 504,60 0,00 1.086,70 4.205,13 352,00 0,00 28/02/2013
67 112100 ALESSANDRA MARCIA FERREIRA OFICIAL DO MP ATIVO BELO HORIZONTE - COMARCA; BELO HORIZONTE- SECRETARIA DAS PROMOTORIAS 7.022,72 2.809,09 0,00 0,00 0,00 0,00 9.831,81 1.243,34 1.748,60 0,00 2.991,94 6.839,87 352,00 3.293,35 28/02/2013
68 196500 ALESSANDRA MARIA RIBEIRO LUCIANO OFICIAL DO MP ATIVO RIO PARANAÍBA - COMARCA; RIO PARANAIBA-PJ-UNPJ 7.731,26 2.319,38 0,00 0,00 0,00 0,00 10.050,64 1.271,90 1.669,31 0,00 2.941,21 7.109,43 587,00 2.219,91 28/02/2013
69 91400 ALESSANDRA MENDES VASCONCELOS DE SOUZA OFICIAL DO MP ATIVO BELO HORIZONTE - COMARCA; BH-23PJ INF-FISC MED SOC AB 10.315,17 5.157,58 0,00 0,00 0,00 0,00 15.472,75 2.141,99 2.901,79 0,00 5.043,78 10.428,97 352,00 5.200,45 28/02/2013
70 384900 ALESSANDRA RODRIGUES ANALISTA DO MP ATIVO VISCONDE DO RIO BRANCO - COMARCA; VISCONDE DO RIO BRANCO-PJ-03PJ 6.379,14 382,75 0,00 0,00 0,00 0,00 6.761,89 840,90 769,81 0,00 1.610,71 5.151,18 3.948,80 1.642,26 28/02/2013
71 390000 ALESSANDRA SPADANO MASSARA VASCONCELOS OFICIAL DO MP ATIVO BETIM - COMARCA; BETIM-PJ-SECRETARIA 4.553,46 273,21 0,00 0,00 0,00 0,00 4.826,67 530,93 390,75 0,00 921,68 3.904,99 352,00 0,00 28/02/2013
72 426500 ALESSANDRO CAMPOS DE PAIVA ASSESSOR/ANALISTA ATIVO BELO HORIZONTE - COMARCA; DIRETORIA DE PUBLICIDADE INSTITUCIONAL 0,00 449,25 7.487,46 0,00 2.645,57 0,00 10.582,28 780,21 1.933,21 0,00 2.713,42 7.868,86 842,15 1.453,02 28/02/2013
73 420600 ALESSANDRO SILVA OFICIAL DO MP ATIVO VISCONDE DO RIO BRANCO - COMARCA; VISCONDE DO RIO BRANCO-PJ-02PJ 3.469,26 693,85 0,00 0,00 0,00 0,00 4.163,11 536,46 244,83 0,00 781,29 3.381,82 1.299,43 761,17 28/02/2013
74 375300 ALETHEIA PATRICIA ASSIS MORAIS MOREIRA OFICIAL DO MP ATIVO ITABIRA - COMARCA; ITABIRA-PJ-02PJ 4.553,46 273,21 0,00 0,00 0,00 0,00 4.826,67 530,93 390,75 0,00 921,68 3.904,99 352,00 0,00 28/02/2013
75 382300 ALEX CARVALHO LIMA ANALISTA DO MP ATIVO UBERLÂNDIA - COMARCA; UBERLANDIA-PJ-14PJ 5.344,58 320,67 0,00 0,00 0,00 0,00 5.665,25 629,99 484,12 0,00 1.114,11 4.551,14 352,00 108,33 28/02/2013
76 195201 ALEX DE CASTRO PEREIRA ANALISTA DO MP ATIVO UBERABA - COMARCA; UBERABA-PJ-09PJ 8.788,36 1.757,67 0,00 0,00 0,00 0,00 10.546,03 1.377,27 1.790,56 0,00 3.167,83 7.378,20 3.567,68 3.046,50 28/02/2013
77 358900 ALEX DE PAULA LANZA ASSESSOR ATIVO BELO HORIZONTE - COMARCA; SUPERINTENDENCIA DE COMUNICACAO INTEGRADA 0,00 0,00 5.883,73 0,00 1.961,24 0,00 7.844,97 457,49 1.240,98 0,00 1.698,47 6.146,50 352,00 794,29 28/02/2013
78 178400 ALEX RODRIGO SALDANHA GUIMARAES OFICIAL DO MP ATIVO BELO HORIZONTE - COMARCA; DIRETORIA DE SISTEMAS DE INFORMACAO 4.409,86 881,97 0,00 0,00 0,00 0,00 5.291,83 588,75 504,60 0,00 1.093,35 4.198,48 352,00 105,64 28/02/2013
79 289200 ALEX SANDRO PEREIRA DE MATOS OFICIAL DO MP ATIVO BELO HORIZONTE - COMARCA; EXTINTA - SECRETARIA ADMINISTRATIVA 4.409,86 440,99 0,00 0,00 0,00 0,00 4.850,85 533,59 396,67 0,00 930,26 3.920,59 352,00 0,00 28/02/2013
80 413500 ALEX VILELA OLIVEIRA ANALISTA DO MP ATIVO GOVERNADOR VALADARES - COMARCA; COORD REG PJ DEF EDU DIR CRIANCA ADOL RIODOCE 6.379,14 382,75 0,00 0,00 0,00 0,00 6.761,89 882,48 1.047,57 0,00 1.930,05 4.831,84 352,00 1.601,18 28/02/2013
81 264300 ALEXANDRA FATIMA SARAIVA SOARES ANALISTA DO MP ATIVO BELO HORIZONTE - COMARCA; CENTRAL DE APOIO TECN-SETOR DE MEIO AMBIENTE 9.074,45 907,45 0,00 0,00 0,00 0,00 9.981,90 1.304,70 1.652,49 0,00 2.957,19 7.024,71 352,00 2.645,56 28/02/2013
82 488000 ALEXANDRA LARA PAIS DE CARVALHO ANALISTA DO MP ATIVO GUANHÃES - COMARCA; GUANHAES-PJ-SECRETARIA 4.701,73 0,00 0,00 0,00 0,00 0,00 4.701,73 517,19 287,14 0,00 804,33 3.897,40 587,00 0,00 28/02/2013
83 256300 ALEXANDRA SANTOS GOMES OFICIAL DO MP ATIVO BELO HORIZONTE - COMARCA; EXTINTA - DIVISÃO DE COMPRAS 4.854,78 970,96 0,00 0,00 0,00 0,00 5.825,74 764,47 781,94 0,00 1.546,41 4.279,33 352,00 1.474,13 28/02/2013
84 403300 ALEXANDRE AUGUSTO RODRIGUES ANALISTA DO MP ATIVO ÁGUAS FORMOSAS - COMARCA; AGUAS FORMOSAS-PJ-UNPJ 5.883,73 353,02 0,00 0,00 0,00 0,00 6.236,75 707,69 735,87 0,00 1.443,56 4.793,19 352,00 249,50 28/02/2013
85 311700 ALEXANDRE BARCELOS RESENDE OFICIAL DO MP ATIVO BELO HORIZONTE - COMARCA; GAECO - SECRETARIA 3.879,42 387,94 0,00 0,00 0,00 0,00 4.267,36 469,41 387,37 0,00 856,78 3.410,58 352,00 485,52 28/02/2013
86 285600 ALEXANDRE CAMPOS DE OLIVEIRA OFICIAL DO MP ATIVO UBERABA - COMARCA; COORD REG BACIAS PARANAIBA BAIXO RIO GRANDE 5.518,54 551,85 0,00 0,00 0,00 0,00 6.070,39 693,93 600,57 0,00 1.294,50 4.775,89 3.802,68 586,67 28/02/2013
87 509200 ALEXANDRE CAPUANO DE REZENDE ANALISTA DO MP ATIVO BELO HORIZONTE - COMARCA; PROC. JUSTICA DE HABEAS CORPUS 5.176,02 0,00 0,00 0,00 0,00 0,00 5.176,02 569,36 476,25 0,00 1.045,61 4.130,41 352,00 0,00 28/02/2013
88 229400 ALEXANDRE CARLOS BOTREL DIRETOR/OFICIAL ATIVO BELO HORIZONTE - COMARCA; SUPERINTENDENCIA DOS ORGAOS COLEGIADOS 0,00 2.508,02 12.540,10 0,00 0,00 0,00 15.048,12 930,15 3.153,64 0,00 4.083,79 10.964,33 3.567,68 5.634,30 28/02/2013
89 411900 ALEXANDRE CARVALHO SANTOS RIBEIRO ANALISTA DO MP ATIVO PERDÕES - COMARCA; PERDOES-PJ-UNPJ 6.379,14 382,75 0,00 0,00 2.253,96 0,00 9.015,85 783,15 1.484,23 0,00 2.267,38 6.748,47 352,00 688,87 28/02/2013
90 201200 ALEXANDRE DE ALENCAR CORDEIRO OFICIAL DO MP ATIVO ÁGUAS FORMOSAS - COMARCA; AGUAS FORMOSAS-PJ-UNPJ 4.409,86 1.322,96 0,00 0,00 0,00 0,00 5.732,82 659,56 517,94 0,00 1.177,50 4.555,32 352,00 404,37 28/02/2013
91 288200 ALEXANDRE DE VASCONCELOS COSTA KER ANALISTA DO MP ATIVO BELO HORIZONTE - COMARCA; BH-03PJ EMPRESARIAL-SECRETARIA 7.982,93 798,29 0,00 0,00 0,00 0,00 8.781,22 1.130,05 1.311,33 0,00 2.441,38 6.339,84 3.567,68 2.483,58 28/02/2013
92 445000 ALEXANDRE DIOGENES OLIVEIRA ANALISTA DO MP ATIVO SALINAS - COMARCA; SALINAS-PJ-02PJ 5.883,73 353,02 0,00 0,00 0,00 0,00 6.236,75 693,14 735,87 0,00 1.429,01 4.807,74 352,00 112,56 28/02/2013
93 463400 ALEXANDRE LEAL WINKELSTROTER ANALISTA DO MP ATIVO TEÓFILO OTONI - COMARCA; TEOFILO OTONI-PJ-04PJ 4.701,73 0,00 0,00 0,00 0,00 0,00 4.701,73 517,19 364,52 0,00 881,71 3.820,02 352,00 0,00 28/02/2013
94 356900 ALEXANDRE MOISES MENDONCA E ARAUJO OFICIAL DO MP ATIVO UBERABA - COMARCA; UBERABA-PJ-13PJ 3.879,42 387,94 0,00 0,00 0,00 0,00 4.267,36 469,41 238,85 0,00 708,26 3.559,10 1.403,68 78,88 28/02/2013
95 469900 ALEXANDRE PEREIRA GUEDES ANALISTA DO MP ATIVO CATAGUASES - COMARCA; CATAGUASES-PJ-03PJ 5.698,20 0,00 0,00 0,00 0,00 0,00 5.698,20 626,80 604,06 0,00 1.230,86 4.467,34 352,00 0,00 28/02/2013
96 208700 ALEXANDRE RESENDE FRAGA ANALISTA DO MP ATIVO BELO HORIZONTE - COMARCA; BH-19PJ SAUDE 11.161,27 2.232,25 0,00 0,00 0,00 0,00 13.393,52 1.776,66 2.440,19 0,00 4.216,85 9.176,67 4.936,78 4.182,47 28/02/2013
97 216401 ALEXANDRE RIBEIRO DE LIMA MAIORINO ANALISTA DO MP ATIVO UBERABA - COMARCA; UBERABA-PJ-03PJ 7.982,93 1.596,59 0,00 0,00 0,00 0,00 9.579,52 1.259,68 1.506,72 0,00 2.766,40 6.813,12 720,65 2.660,54 28/02/2013
98 475100 ALEXANDRE TEOTONIO COSTA ANALISTA DO MP ATIVO ARAGUARI - COMARCA; ARAGUARI-PJ-01PJ 5.176,02 0,00 0,00 0,00 0,00 0,00 5.176,02 576,01 476,25 0,00 1.052,26 4.123,76 822,00 105,51 28/02/2013
99 339000 ALEXANDRE VITOR CARDOSO OFICIAL DO MP ATIVO BELO HORIZONTE - COMARCA; BH-17PJ PATRIMONIO PUBLICO 4.005,77 400,58 0,00 0,00 0,00 0,00 4.406,35 517,94 249,80 0,00 767,74 3.638,61 1.777,67 361,69 28/02/2013
100 513300 ALFSON MIRANDA BRAGA ANALISTA DO MP ATIVO BELO HORIZONTE - COMARCA; BH-12PJ JUIZO CRIMINAL-GAB 092PJ 4.701,73 0,00 0,00 0,00 0,00 0,00 4.701,73 517,19 364,52 0,00 881,71 3.820,02 352,00 0,00 28/02/2013
101 471000 ALICE TITONELI MOREIRA ANALISTA DO MP ATIVO MIRADOURO - COMARCA; MIRADOURO-PJ-UNPJ 5.698,20 0,00 0,00 0,00 0,00 0,00 5.698,20 740,75 748,54 0,00 1.489,29 4.208,91 587,00 1.079,97 28/02/2013
102 373000 ALINE BOTELHO RESENDE OFICIAL DO MP ATIVO PASSA QUATRO - COMARCA; PASSA QUATRO-PJ-SECRETARIA 3.757,11 375,71 0,00 0,00 0,00 0,00 4.132,82 471,14 291,96 0,00 763,10 3.369,72 352,00 200,37 28/02/2013
103 407700 ALINE CRISTINA RODRIGUES PEREIRA ANALISTA DO MP ATIVO BELO HORIZONTE - COMARCA; DIVIS DE PROJETOS DE ENGENHARIA E ARQUITETURA 5.344,58 320,67 0,00 0,00 0,00 0,00 5.665,25 632,05 595,99 0,00 1.228,04 4.437,21 587,00 130,30 28/02/2013
104 193100 ALINE CRISTINA SENA OLIVEIRA OFICIAL DO MP ATIVO UBERLÂNDIA - COMARCA; UBERLANDIA-PJ-03PJ 7.487,46 1.497,49 0,00 0,00 0,00 0,00 8.984,95 1.101,12 1.361,20 0,00 2.462,32 6.522,63 4.167,08 1.878,71 28/02/2013
105 505500 ALINE DA CUNHA MARREIROS OLIVEIRA ANALISTA DO MP ATIVO CARANGOLA - COMARCA; CARANGOLA-PJ-03PJ 5.176,02 0,00 0,00 0,00 1.725,34 0,00 6.901,36 569,36 950,72 0,00 1.520,08 5.381,28 587,00 0,00 28/02/2013
106 433500 ALINE DE MELO QUEIROZ OFICIAL DO MP ATIVO BELO HORIZONTE - COMARCA; PROCON-MG-SECRETARIA DE FISCALIZACOES 3.757,11 225,43 0,00 0,00 0,00 0,00 3.982,54 438,08 220,50 0,00 658,58 3.323,96 352,00 0,00 28/02/2013
107 474800 ALINE DINIZ FERREIRA ANALISTA DO MP ATIVO OURO PRETO - COMARCA; OURO PRETO-PJ-02PJ 5.698,20 0,00 0,00 0,00 0,00 0,00 5.698,20 626,80 604,06 0,00 1.230,86 4.467,34 352,00 0,00 28/02/2013
108 330000 ALINE DIORIO MAYRINK OFICIAL DO MP ATIVO SETE LAGOAS - COMARCA; SETE LAGOAS-PJ-SECRETARIA 4.553,46 455,35 0,00 0,00 0,00 0,00 5.008,81 609,60 498,37 0,00 1.107,97 3.900,84 352,00 831,56 28/02/2013
109 499000 ALINE FERREIRA LOPES NEIVA ANALISTA DO MP ATIVO TEÓFILO OTONI - COMARCA; COORD. DE DEF. DO PAT. PUBLICO-JEQUIT./MUCURI 5.176,02 0,00 0,00 0,00 1.725,34 0,00 6.901,36 569,36 950,72 0,00 1.520,08 5.381,28 352,00 0,00 28/02/2013
110 405300 ALINE LAIA CARDOZO ANALISTA DO MP ATIVO BELO HORIZONTE - COMARCA; EXTINTA - DIRETORIA DE CONTRATOS E CONVÊNIOS 6.379,14 382,75 0,00 0,00 0,00 0,00 6.761,89 750,64 864,39 0,00 1.615,03 5.146,86 352,00 108,43 28/02/2013
111 278200 ALINE MARCIA FARIA BARBOSA OFICIAL DO MP ATIVO BARBACENA - COMARCA; BARBACENA-PJ-SECRETARIA 4.409,86 440,99 0,00 0,00 0,00 0,00 4.850,85 533,59 278,30 0,00 811,89 4.038,96 4.037,68 241,18 28/02/2013
112 496600 ALINE MENDES DE GODOY ANALISTA DO MP ATIVO BELO HORIZONTE - COMARCA; ASSESS TECNICO-JUR JUNTO AS PROC. DE JUST 5.176,02 0,00 0,00 0,00 0,00 0,00 5.176,02 569,36 476,25 0,00 1.045,61 4.130,41 352,00 0,00 28/02/2013
113 389000 ALINE NERI NOBRE ANALISTA DO MP ATIVO MONTES CLAROS - COMARCA; COORD REG PJ DEF EDUC DIR CRIANCA ADOL NORTE 6.379,14 1.275,83 0,00 0,00 0,00 0,00 7.654,97 1.105,06 1.404,13 0,00 2.509,19 5.145,78 695,63 3.286,28 28/02/2013
114 294600 ALINE PATRICIA SILVA VIEIRA OFICIAL DO MP ATIVO UBERLÂNDIA - COMARCA; UBERLANDIA-PJ-03PJ 5.518,54 551,85 0,00 0,00 0,00 0,00 6.070,39 845,53 902,59 0,00 1.748,12 4.322,27 3.802,68 2.259,83 28/02/2013
115 420000 ALINE RODRIGUES CAMOROPIN ANALISTA DO MP ATIVO SABARÁ - COMARCA; SABARA-PJ-02PJ 6.379,14 382,75 0,00 0,00 0,00 0,00 6.761,89 796,11 864,39 0,00 1.660,50 5.101,39 352,00 808,02 28/02/2013
116 408300 ALINE SILVA ARAUJO DE PAULA ANALISTA DO MP ATIVO SÃO SEBASTIÃO DO PARAÍSO - COMARCA; SAO SEBASTIAO DO PARAISO-PJ-02PJ 6.379,14 382,75 0,00 0,00 0,00 0,00 6.761,89 781,76 864,39 0,00 1.646,15 5.115,74 352,00 669,93 28/02/2013
117 425400 ALINE TRINDADE DE FREITAS CAMPOS OFICIAL DO MP ATIVO BETIM - COMARCA; BETIM-PJ-11PJ 3.757,11 225,43 0,00 0,00 0,00 0,00 3.982,54 438,08 220,50 0,00 658,58 3.323,96 352,00 0,00 28/02/2013
118 517200 ALISSOM PEREIRA DA SILVA ANALISTA DO MP ATIVO BORDA DA MATA - COMARCA; BORDA DA MATA-PJ-UNPJ 4.701,73 0,00 0,00 0,00 0,00 0,00 4.701,73 547,64 427,91 0,00 975,55 3.726,18 352,00 405,27 28/02/2013
119 442400 ALISSON LABRE ANALISTA DO MP ATIVO VARGINHA - COMARCA; VARGINHA-PJ-02PJ 5.883,73 353,02 0,00 0,00 0,00 0,00 6.236,75 686,04 735,87 0,00 1.421,91 4.814,84 3.373,07 276,93 28/02/2013
120 349000 ALLEC RODRIGUES VIEIRA ASSESSOR/OFICIAL ATIVO BELO HORIZONTE - COMARCA; PROCURADOR-GERAL DE JUSTICA- GABINETE 0,00 824,28 8.242,82 0,00 3.022,37 0,00 12.089,47 1.119,07 2.259,74 0,00 3.378,81 8.710,66 1.087,50 2.460,84 28/02/2013
121 297300 ALLYSON SALIBA MONTEIRO LAIZO ANALISTA DO MP ATIVO CONSELHEIRO LAFAIETE - COMARCA; CONSELHEIRO LAFAIETE-PJ-03PJ 7.982,93 798,29 0,00 0,00 0,00 0,00 8.781,22 1.124,50 1.358,62 0,00 2.483,12 6.298,10 3.567,68 2.176,27 28/02/2013
122 303700 ALMIR LOPES LOURES ANALISTA DO MP ATIVO BELO HORIZONTE - COMARCA; CENTRAL DE APOIO TECN-SETOR DE MEIO AMBIENTE 8.788,36 878,84 0,00 0,00 0,00 0,00 9.667,20 1.277,92 1.480,88 0,00 2.758,80 6.908,40 3.567,68 3.015,24 28/02/2013
123 515900 ALTAIR NEVES JUNIOR OFICIAL DO MP ATIVO BELO HORIZONTE - COMARCA; BH-03PJ EMPRESARIAL-SECRETARIA 3.051,96 0,00 0,00 0,00 0,00 0,00 3.051,96 335,72 86,84 0,00 422,56 2.629,40 352,00 0,00 28/02/2013
124 233300 ALVARINDO BATISTA ANALISTA DO MP ATIVO BELO HORIZONTE - COMARCA; SUPERINTENDENCIA DE COMUNICACAO INTEGRADA 10.315,17 2.063,03 0,00 0,00 0,00 0,00 12.378,20 1.715,86 2.193,10 0,00 3.908,96 8.469,24 352,00 4.200,84 28/02/2013
125 274100 ALYSSON CARVALHO VIDAL DE LACERDA OFICIAL DO MP ATIVO MANHUAÇU - COMARCA; MANHUACU-PJ-01PJ 5.698,20 569,82 0,00 0,00 0,00 0,00 6.268,02 689,48 743,52 0,00 1.433,00 4.835,02 352,00 0,00 28/02/2013
126 521700 AMANDA CRISTINA AGUIAR MACHADO OFICIAL DO MP ATIVO BARBACENA - COMARCA; BARBACENA-PJ-03PJ 2.684,83 0,00 0,00 0,00 0,00 0,00 2.684,83 313,05 61,65 0,00 374,70 2.310,13 352,00 161,07 28/02/2013
127 520800 AMANDA DE SOUZA MACHADO ANALISTA DO MP ATIVO BAEPENDI - COMARCA; BAEPENDI-PJ-UNPJ 4.553,46 0,00 0,00 0,00 0,00 0,00 4.553,46 500,88 334,83 0,00 835,71 3.717,75 587,00 0,00 28/02/2013
128 501800 AMANDA LIMA TEIXEIRA COSTA OFICIAL DO MP ATIVO CATAGUASES - COMARCA; CATAGUASES-PJ-04PJ 3.051,96 0,00 0,00 0,00 0,00 0,00 3.051,96 335,72 86,84 0,00 422,56 2.629,40 587,00 0,00 28/02/2013
129 434400 AMARILIS ASSIS SIMAO CURCIO ANALISTA DO MP ATIVO BELO HORIZONTE - COMARCA; ASSESS TECNICO-JUR JUNTO AS PROC. DE JUST 5.344,58 320,67 0,00 0,00 0,00 0,00 5.665,25 623,18 595,99 0,00 1.219,17 4.446,08 822,00 0,00 28/02/2013
130 273700 AMBROLINA CARNEIRO DE VASCONCELOS OFICIAL DO MP ATIVO FRUTAL - COMARCA; FRUTAL-PJ-03PJ 5.344,58 2.137,83 0,00 0,00 0,00 0,00 7.482,41 1.101,48 1.307,41 0,00 2.408,89 5.073,52 3.567,68 3.459,50 28/02/2013
131 58000 AMELIA GUARIZE DE CASTRO OFICIAL DO MP ATIVO JUIZ DE FORA - COMARCA; JUIZ DE FORA-PJ-SECRETARIA 4.854,78 4.369,30 0,00 0,00 0,00 1.014,65 10.238,73 1.210,82 1.746,04 0,00 2.956,86 7.281,87 352,00 2.718,16 28/02/2013
132 324301 AMERICA SUELI FERREIRA DA SILVA ANALISTA DO MP ATIVO MONTE CARMELO - COMARCA; MONTE CARMELO-PJ-02PJ 5.698,20 0,00 0,00 0,00 1.899,40 0,00 7.597,60 652,56 1.126,39 0,00 1.778,95 5.818,65 352,00 287,74 28/02/2013
133 273300 AMUJACY DE BRITO ASSIZ OFICIAL DO MP ATIVO BELO HORIZONTE - COMARCA; BH-12PJ JUIZO CRIMINAL-SECRETARIA 4.553,46 455,35 0,00 0,00 0,00 0,00 5.008,81 557,83 388,03 0,00 945,86 4.062,95 587,00 108,83 28/02/2013
134 482200 ANA ALICE LOPES ACHTSCHIN ANALISTA DO MP ATIVO BELO HORIZONTE - COMARCA; PROC JUST RECURSOS ESP E EXTRAORD CRIMINAIS 4.701,73 0,00 0,00 0,00 1.567,24 0,00 6.268,97 517,19 791,16 0,00 1.308,35 4.960,62 352,00 0,00 28/02/2013
135 490400 ANA AMELIA PAULINO GARCIA OFICIAL DO MP ATIVO GRAO MOGOL - COMARCA; GRAO MOGOL-PJ-UNPJ 3.359,85 0,00 0,00 0,00 0,00 0,00 3.359,85 369,58 127,94 0,00 497,52 2.862,33 352,00 0,00 28/02/2013
136 279100 ANA CAROLINA ARAUJO PEREIRA ANALISTA DO MP ATIVO BELO HORIZONTE - COMARCA; DIVIS DE PROJETOS DE ENGENHARIA E ARQUITETURA 7.731,26 773,13 0,00 0,00 0,00 0,00 8.504,39 1.082,12 1.290,87 0,00 2.372,99 6.131,40 352,00 2.005,21 28/02/2013
137 359400 ANA CAROLINA DE ABREU FARIA ASSESSOR ATIVO BELO HORIZONTE - COMARCA; SUPERINTENDÊNCIA DE ENGENHARIA E ARQUITETURA 0,00 0,00 3.698,79 0,00 0,00 0,00 3.698,79 445,59 167,38 0,00 612,97 3.085,82 272,13 0,00 28/02/2013
138 408500 ANA CAROLINA DE CASTRO CARVALHO ANALISTA DO MP ATIVO BARBACENA - COMARCA; BARBACENA-PJ-SECRETARIA 6.379,14 382,75 0,00 0,00 0,00 0,00 6.761,89 772,50 864,39 0,00 1.636,89 5.125,00 1.193,45 451,82 28/02/2013
139 420200 ANA CAROLINA FERNANDES SILVA ANALISTA DO MP ATIVO BELO HORIZONTE - COMARCA; PROC. JUSTICA DE HABEAS CORPUS 5.883,73 353,02 0,00 0,00 0,00 0,00 6.236,75 686,04 735,87 0,00 1.421,91 4.814,84 352,00 0,00 28/02/2013
140 522100 ANA CAROLINA FERNANDINO VIDAL PEREIRA SANTOS OFICIAL DO MP ATIVO BELO HORIZONTE - COMARCA; EXTINTA - SECRETARIA ADMINISTRATIVA 2.684,83 0,00 0,00 0,00 0,00 0,00 2.684,83 295,33 50,90 0,00 346,23 2.338,60 587,00 0,00 28/02/2013
141 502400 ANA CAROLINA GONCALVES FERNANDES ANALISTA DO MP ATIVO IPATINGA - COMARCA; IPATINGA-PJ-SECRETARIA 5.176,02 0,00 0,00 0,00 0,00 0,00 5.176,02 569,36 476,25 0,00 1.045,61 4.130,41 352,00 0,00 28/02/2013
142 431900 ANA CAROLINA MOTTA GUATIMOSIM ANALISTA DO MP ATIVO BELO HORIZONTE - COMARCA; PROC. JUSTICA DE HABEAS CORPUS 5.883,73 353,02 0,00 0,00 0,00 0,00 6.236,75 714,76 735,87 0,00 1.450,63 4.786,12 352,00 336,97 28/02/2013
143 322500 ANA CAROLINA TOSTES DIB OFICIAL DO MP ATIVO BELO HORIZONTE - COMARCA; GAECO - SECRETARIA 4.005,77 400,58 0,00 0,00 0,00 0,00 4.406,35 484,70 305,37 0,00 790,07 3.616,28 3.567,68 241,18 28/02/2013
144 490600 ANA CAROLINA XAVIER GODOY ANALISTA DO MP ATIVO BELO HORIZONTE - COMARCA; BH-18PJ VIOLENCIA DOMESTICA 5.176,02 0,00 0,00 0,00 0,00 0,00 5.176,02 569,36 476,25 0,00 1.045,61 4.130,41 352,00 0,00 28/02/2013
145 324800 ANA CECILIA MENDES DA SILVA OFICIAL DO MP ATIVO OURO FINO - COMARCA; OURO FINO-PJ-01PJ 5.344,58 1.068,92 0,00 0,00 0,00 0,00 6.413,50 725,31 779,12 0,00 1.504,43 4.909,07 587,00 232,47 28/02/2013
146 219400 ANA CELIA DE ALMEIDA SOARES COORDENADOR/OFICIAL ATIVO BELO HORIZONTE - COMARCA; DIVISAO DE DOCUMENTACAO JURIDICA 0,00 1.702,24 8.511,21 0,00 0,00 0,00 10.213,45 997,58 1.798,84 0,00 2.796,42 7.417,03 3.264,39 3.531,91 28/02/2013
147 441300 ANA CLAUDIA ALKIMIM MIRANDA BOMTEMPO ANALISTA DO MP ATIVO MONTES CLAROS - COMARCA; MONTES CLAROS-PJ-11PJ 5.883,73 353,02 0,00 0,00 0,00 0,00 6.236,75 693,08 688,57 0,00 1.381,65 4.855,10 822,00 111,69 28/02/2013
148 461200 ANA CRISTINA ALVES ANALISTA DO MP ATIVO SANTA LUZIA - COMARCA; SANTA LUZIA-PJ-03PJ 4.701,73 0,00 0,00 0,00 0,00 0,00 4.701,73 517,19 364,52 0,00 881,71 3.820,02 587,00 0,00 28/02/2013
149 379300 ANA CRISTINA ALVES FLAVIO ANALISTA DO MP ATIVO SÃO GOTARDO - COMARCA; SAO GOTARDO-PJ-01PJ 6.379,14 382,75 0,00 0,00 0,00 0,00 6.761,89 802,43 817,10 0,00 1.619,53 5.142,36 352,00 873,54 28/02/2013
150 514100 ANA CRISTINA ARAUJO ASSUNCAO ANALISTA DO MP ATIVO BELO HORIZONTE - COMARCA; BH-14PJ DEFESA CONSUMIDOR-SECRETARIA 4.701,73 0,00 0,00 0,00 0,00 0,00 4.701,73 517,19 364,52 0,00 881,71 3.820,02 352,00 0,00 28/02/2013
151 113400 ANA CRISTINA BRAGA ALBUQUERQUE ANALISTA DO MP ATIVO BELO HORIZONTE - COMARCA; ASSESS ESP ADM E FINANCEIRA DO PGJ ADJ ADM 21.668,41 8.667,36 0,00 0,00 0,00 0,00 30.335,77 2.652,94 5.112,21 6.609,43 14.374,58 15.961,19 3.567,68 686,05 28/02/2013
152 233800 ANA CRISTINA BRAGA SOARES RIOS OFICIAL DO MP ATIVO CONTAGEM - COMARCA; CONTAGEM-PJ-SECRETARIA 5.176,02 1.035,20 0,00 0,00 0,00 0,00 6.211,22 710,10 729,62 0,00 1.439,72 4.771,50 3.567,68 592,91 28/02/2013
153 186400 ANA CRISTINA DE AZEVEDO LOPES OFICIAL DO MP ATIVO UBÁ - COMARCA; UBA-PJ-01PJ 7.487,46 1.497,49 0,00 0,00 0,00 0,00 8.984,95 1.108,88 1.313,90 0,00 2.422,78 6.562,17 3.567,68 2.026,54 28/02/2013
154 465100 ANA CRISTINA DE OLIVEIRA GUIMARAES ANALISTA DO MP ATIVO BRASÓPOLIS - COMARCA; BRASOPOLIS-PJ-UNPJ 5.176,02 0,00 0,00 0,00 0,00 0,00 5.176,02 569,36 476,25 0,00 1.045,61 4.130,41 352,00 0,00 28/02/2013
155 500600 ANA CRISTINA LATADO SUDARIO ANALISTA DO MP ATIVO UBERLÂNDIA - COMARCA; UBERLANDIA-PJ-07PJ 4.701,73 0,00 0,00 0,00 0,00 0,00 4.701,73 517,19 364,52 0,00 881,71 3.820,02 352,00 0,00 28/02/2013
156 331400 ANA CRISTINA RIBEIRO ALVES OFICIAL DO MP ATIVO BAMBUÍ - COMARCA; BAMBUI-PJ-UNPJ 4.701,73 470,17 0,00 0,00 0,00 0,00 5.171,90 577,98 475,24 0,00 1.053,22 4.118,68 352,00 132,29 28/02/2013
157 249300 ANA ELOINA MARTINS DO PINHO OFICIAL DO MP ATIVO BETIM - COMARCA; BETIM-PJ-06PJ 6.075,32 1.822,60 0,00 0,00 0,00 0,00 7.897,92 946,87 1.095,14 0,00 2.042,01 5.855,91 3.567,68 1.363,24 28/02/2013
158 257400 ANA FLAVIA CAMBRAIA ANALISTA DO MP ATIVO BELO HORIZONTE - COMARCA; BH-19PJ SAUDE-SECRETARIA 150PJ 9.074,45 1.814,89 0,00 0,00 0,00 0,00 10.889,34 1.404,52 1.827,29 0,00 3.231,81 7.657,53 352,00 2.645,56 28/02/2013
159 248201 ANA FLAVIA DE MORAIS SOUZA ANALISTA DO MP ATIVO DIVINÓPOLIS - COMARCA; DIVINOPOLIS-PJ-01PJ 5.698,20 1.139,64 0,00 0,00 0,00 0,00 6.837,84 769,01 882,98 0,00 1.651,99 5.185,85 3.567,68 499,52 28/02/2013
160 238600 ANA FLAVIA FRANCO CAMPOS OFICIAL DO MP ATIVO BELO HORIZONTE - COMARCA; DIRETORIA DE PESSOAL ADMINISTRATIVO - DPAD 6.075,32 1.215,06 0,00 0,00 0,00 0,00 7.290,38 868,18 946,45 0,00 1.814,63 5.475,75 3.567,68 1.246,29 28/02/2013
161 402900 ANA FLAVIA PORTES DE CARVALHO ANALISTA DO MP ATIVO BELO HORIZONTE - COMARCA; DIRET DE PLANOS PROJETOS E PROGRAMAS INST 6.379,14 382,75 0,00 0,00 0,00 0,00 6.761,89 784,86 817,10 0,00 1.601,96 5.159,93 589,41 702,74 28/02/2013
162 382700 ANA KARENINA SALDANHA GONTIJO ANALISTA DO MP ATIVO BELO HORIZONTE - COMARCA; ASSESS TECNICO-JUR JUNTO AS PROC. DE JUST 5.883,73 353,02 0,00 0,00 0,00 0,00 6.236,75 698,74 735,87 0,00 1.434,61 4.802,14 352,00 166,09 28/02/2013
163 220000 ANA LUCIA AMORIM OFICIAL DO MP ATIVO MARTINHO CAMPOS - COMARCA; MARTINHO CAMPOS-PJ-SECRETARIA 5.344,58 2.672,29 0,00 0,00 0,00 0,00 8.016,87 1.011,44 1.302,36 0,00 2.313,80 5.703,07 352,00 1.532,45 28/02/2013
164 462200 ANA LUCIA ANDRADE TOMICH OTTONI ANALISTA DO MP ATIVO TEÓFILO OTONI - COMARCA; TEOFILO OTONI-PJ-06PJ 5.698,20 0,00 0,00 0,00 0,00 0,00 5.698,20 626,80 509,47 0,00 1.136,27 4.561,93 587,00 0,00 28/02/2013
165 504100 ANA LUCIA CATAO DE CARVALHO OFICIAL DO MP ATIVO BELO HORIZONTE - COMARCA; BH-09PJ AUDITORIA MILITAR 3.051,96 0,00 0,00 0,00 0,00 0,00 3.051,96 338,59 90,33 0,00 428,92 2.623,04 587,00 26,16 28/02/2013
166 274700 ANA LUCIA DE ALENCAR BRAGATO OFICIAL DO MP ATIVO UBERABA - COMARCA; UBERABA-PJ-04PJ 5.344,58 534,46 0,00 0,00 0,00 0,00 5.879,04 675,42 601,02 0,00 1.276,44 4.602,60 352,00 384,88 28/02/2013
167 258600 ANA LUCIA DE FREITAS AZEVEDO ANALISTA DO MP ATIVO BELO HORIZONTE - COMARCA; BH-19PJ SAUDE-SECRETARIA 150PJ 8.788,36 1.757,67 0,00 0,00 0,00 0,00 10.546,03 1.541,47 2.086,22 0,00 3.627,69 6.918,34 352,00 4.325,61 28/02/2013
168 509400 ANA LUCIA DORNELAS MALLOSTO ANALISTA DO MP ATIVO JUIZ DE FORA - COMARCA; JUIZ DE FORA-PJ-08PJ 4.270,85 0,00 0,00 0,00 0,00 0,00 4.270,85 469,79 278,24 0,00 748,03 3.522,82 2.743,68 179,38 28/02/2013
169 524600 ANA LUCIA DOS SANTOS FERNANDES COELHO ASSESSOR ATIVO BELO HORIZONTE - COMARCA; DIRET DE FORMACAO, APERFEIC. E POS-GRADUACAO 0,00 0,00 3.698,79 0,00 0,00 0,00 3.698,79 123,28 227,49 0,00 350,77 3.348,02 2.571,27 166,45 28/02/2013
170 302600 ANA LUCIA LOPES SANTOS OFICIAL DO MP ATIVO BELO HORIZONTE - COMARCA; PROCON-MG-SECRETARIA DE FISCALIZACOES 5.344,58 534,46 0,00 0,00 0,00 0,00 5.879,04 653,86 601,02 0,00 1.254,88 4.624,16 3.250,36 357,84 28/02/2013
171 493400 ANA LUISA NOGUEIRA MOREIRA ANALISTA DO MP ATIVO BELO HORIZONTE - COMARCA; TRIBUNAL DO JURI-07 PJ-02 TRIBUNAL 5.176,02 0,00 0,00 0,00 0,00 0,00 5.176,02 569,36 476,25 0,00 1.045,61 4.130,41 352,00 0,00 28/02/2013
172 389300 ANA LUISA REUTER LIMA ANALISTA DO MP ATIVO BELO HORIZONTE - COMARCA; DIRETORIA DE SISTEMAS DE INFORMACAO 5.344,58 320,67 0,00 0,00 0,00 0,00 5.665,25 623,18 595,99 0,00 1.219,17 4.446,08 352,00 0,00 28/02/2013
173 480600 ANA LUIZA FERNANDES FRAGA E GRECO OFICIAL DO MP ATIVO SANTO ANTÔNIO DO MONTE - COMARCA; SANTO ANTONIO DO MONTE-PJ-UNPJ 3.051,96 0,00 0,00 0,00 0,00 0,00 3.051,96 382,90 144,10 0,00 527,00 2.524,96 352,00 578,11 28/02/2013
174 517800 ANA LUIZA MAGALHAES CIRINO PIOTO DE MELO OFICIAL DO MP ATIVO BELO HORIZONTE - COMARCA; DIRETORIA DE MANUTENCAO PREDIAL 2.772,23 0,00 0,00 0,00 0,00 0,00 2.772,23 320,01 72,14 0,00 392,15 2.380,08 352,00 215,59 28/02/2013
175 481400 ANA MARCIA CANDIDA FERREIRA OFICIAL DO MP ATIVO BRUMADINHO - COMARCA; BRUMADINHO-PJ-01PJ 3.051,96 0,00 0,00 0,00 0,00 0,00 3.051,96 382,90 158,08 0,00 540,98 2.510,98 463,89 676,94 28/02/2013
176 409600 ANA OLIVIA FARIA ROSENBURG ANALISTA DO MP ATIVO BELO HORIZONTE - COMARCA; DIRETORIA DO COLEGIO E DA CAMARA DE PJ 6.379,14 1.275,83 0,00 0,00 0,00 0,00 7.654,97 925,34 1.082,97 0,00 2.008,31 5.646,66 587,00 1.135,14 28/02/2013
177 374600 ANA PATRICIA FERREIRA FRANCA OFICIAL DO MP ATIVO TIROS - COMARCA; TIROS-PJ-SECRETARIA 4.553,46 273,21 0,00 0,00 0,00 0,00 4.826,67 530,93 350,85 0,00 881,78 3.944,89 384,00 0,00 28/02/2013
178 461500 ANA PAULA ALVES CARVALHO ANALISTA DO MP ATIVO UBERLÂNDIA - COMARCA; UBERLANDIA-PJ-08PJ 5.698,20 0,00 0,00 0,00 0,00 0,00 5.698,20 626,80 604,06 0,00 1.230,86 4.467,34 352,00 0,00 28/02/2013
179 523200 ANA PAULA ALVES DA SILVA OFICIAL DO MP ATIVO GOVERNADOR VALADARES - COMARCA; GOVERNADOR VALADARES-PJ-15PJ 2.955,70 0,00 0,00 0,00 985,23 0,00 3.940,93 325,13 236,56 0,00 561,69 3.379,24 352,00 0,00 28/02/2013
180 381200 ANA PAULA BARROS PEREIRA ASSESSOR/ANALISTA ATIVO BELO HORIZONTE - COMARCA; PROC JUST RECURSOS ESP E EXTRAORD CRIMINAIS 0,00 449,25 7.487,46 0,00 0,00 0,00 7.936,71 772,61 1.187,47 0,00 1.960,08 5.976,63 352,00 351,01 28/02/2013
181 227200 ANA PAULA DA SILVA CAMPOLINA ANALISTA DO MP ATIVO BELO HORIZONTE - COMARCA; EXTINTA - DIVISÃO DE MATERIAL PERMANENTE 10.315,17 3.094,55 0,00 0,00 0,00 0,00 13.409,72 1.862,79 2.491,45 0,00 4.354,24 9.055,48 3.567,68 4.881,56 28/02/2013
182 84200 ANA PAULA DE SOUZA ROCHA OFICIAL DO MP ATIVO BELO HORIZONTE - COMARCA; ASSESS ESP ADM E FINANCEIRA DO PGJ ADJ ADM 20.365,45 8.146,19 0,00 0,00 0,00 0,00 28.511,64 2.652,94 5.017,62 4.394,02 12.064,58 16.447,06 3.567,68 294,78 28/02/2013
183 278500 ANA PAULA DIAS CAPANEMA COORDENADOR/OFICIAL ATIVO BELO HORIZONTE - COMARCA; EXTINTA - DIRETORIA DE MATERIAL E PATRIMONIO 0,00 967,49 9.674,93 0,00 0,00 0,00 10.642,42 816,13 1.958,25 0,00 2.774,38 7.868,04 3.567,68 3.785,83 28/02/2013
184 327300 ANA PAULA GARCIA MAXIMO OFICIAL DO MP ATIVO UNAÍ - COMARCA; UNAI-PJ-01PJ 5.344,58 1.603,37 0,00 0,00 0,00 0,00 6.947,95 793,12 768,06 0,00 1.561,18 5.386,77 587,00 413,16 28/02/2013
185 270000 ANA PAULA GOULART CRUZ DE MAGALHAES ANALISTA DO MP ATIVO BELO HORIZONTE - COMARCA; COMB CRIMES PRAT POR AG POL MUN-ASSESSORIA 7.022,72 702,27 0,00 0,00 0,00 0,00 7.724,99 900,28 1.100,11 0,00 2.000,39 5.724,60 352,00 793,72 28/02/2013
186 262100 ANA PAULA KOMATSUZAKI ABIJAUDI ANALISTA DO MP ATIVO BELO HORIZONTE - COMARCA; BH-17PJ PATRIMONIO PUBLICO-SECRETARIA 9.074,45 2.722,34 0,00 0,00 0,00 0,00 11.796,79 1.605,66 2.002,10 0,00 3.607,76 8.189,03 829,42 3.408,51 28/02/2013
187 278900 ANA PAULA MOREIRA GURGEL ANALISTA DO MP ATIVO BELO HORIZONTE - COMARCA; EXTINTA - DIRETORIA DE CONTRATOS E CONVÊNIOS 8.788,36 1.757,67 0,00 0,00 0,00 0,00 10.546,03 1.433,96 1.794,22 0,00 3.228,18 7.317,85 3.567,68 3.650,11 28/02/2013
188 425700 ANA PAULA ROCHA ASSESSOR/OFICIAL ATIVO BELO HORIZONTE - COMARCA; SUPERINTENDENCIA DE COMUNICACAO INTEGRADA 0,00 353,02 5.883,73 0,00 0,00 0,00 6.236,75 544,15 774,89 0,00 1.319,04 4.917,71 352,00 0,00 28/02/2013
189 395601 ANA PAULA SALGE OLIVEIRA ANALISTA DO MP ATIVO UBERABA - COMARCA; COORD REG PJ DEF EDUC DIR CRIANCA ADOL TRIANG 5.176,02 517,60 0,00 0,00 0,00 0,00 5.693,62 656,58 686,78 0,00 1.343,36 4.350,26 2.829,94 717,93 28/02/2013
190 473200 ANA PAULA SCOTTON BRASIL ANALISTA DO MP ATIVO JUIZ DE FORA - COMARCA; JUIZ DE FORA-PJ-09PJ 5.176,02 0,00 0,00 0,00 0,00 0,00 5.176,02 569,36 476,25 0,00 1.045,61 4.130,41 352,00 0,00 28/02/2013
191 470900 ANA PAULA VALADARES ANALISTA DO MP ATIVO PITANGUI - COMARCA; PITANGUI-PJ-01PJ 5.698,20 0,00 0,00 0,00 0,00 0,00 5.698,20 709,39 688,25 0,00 1.397,64 4.300,56 587,00 803,94 28/02/2013
192 447000 ANA PAULA VALENTIM DE ARAUJO ANALISTA DO MP ATIVO BELO HORIZONTE - COMARCA; BH-08PJ JUIZADO ESPECIAL 5.883,73 353,02 0,00 0,00 0,00 0,00 6.236,75 744,74 840,54 0,00 1.585,28 4.651,47 352,00 584,01 28/02/2013
193 505400 ANA PAULA VIEIRA SOUTO OFICIAL DO MP ATIVO ALMENARA - COMARCA; COORD. PAT. PUBLICO-MUCURI/JEQUIT - ALMENARA 2.772,23 554,45 0,00 0,00 0,00 0,00 3.326,68 365,93 71,92 0,00 437,85 2.888,83 587,00 0,00 28/02/2013
194 280200 ANA RACHEL BRANDAO LADEIRA ROLAND COORDENADOR/ANALISTA ATIVO BELO HORIZONTE - COMARCA; SUPRIN DE FORMACAO E APERFEICOAMENTO-SFA/CEAF 0,00 1.254,01 12.540,10 0,00 0,00 0,00 13.794,11 1.354,05 2.710,37 0,00 4.064,42 9.729,69 587,00 4.943,03 28/02/2013
195 384700 ANA RODRIGUES PEREIRA MARRA ANALISTA DO MP ATIVO COROMANDEL - COMARCA; COROMANDEL-PJ-SECRETARIA 5.344,58 320,67 0,00 0,00 0,00 0,00 5.665,25 623,18 548,70 0,00 1.171,88 4.493,37 352,00 0,00 28/02/2013
196 232700 ANA SILVIA SEMBLANO NAKAMURA ASSESSOR/OFICIAL ATIVO BELO HORIZONTE - COMARCA; CENT DE APOIO TEC-SETOR DEF,IDOSO E INFANC 0,00 1.497,49 7.487,46 0,00 0,00 0,00 8.984,95 882,50 1.473,44 0,00 2.355,94 6.629,01 2.964,59 2.577,98 28/02/2013
197 326700 ANA TERCIA DE FATIMA COSTA OFICIAL DO MP ATIVO NOVA SERRANA - COMARCA; NOVA SERRANA-PJ-01PJ 4.854,78 485,48 0,00 0,00 0,00 587,43 5.927,69 616,91 583,41 0,00 1.200,32 4.727,37 352,00 453,32 28/02/2013
198 310400 ANADEJE DO CARMO DINIZ ARAUJO OFICIAL DO MP ATIVO BELO HORIZONTE - COMARCA; CENT DE ATENDIMENTO E ORIENTACAO DE PESSOAL 4.854,78 485,48 0,00 0,00 0,00 0,00 5.340,26 594,25 516,45 0,00 1.110,70 4.229,56 587,00 108,36 28/02/2013
199 395000 ANAIDE PEREIRA LOPES ANALISTA DO MP ATIVO BELO HORIZONTE - COMARCA; DIRETORIA DE GESTAO DOCUMENTAL 5.344,58 320,67 0,00 0,00 1.888,42 0,00 7.553,67 716,67 1.323,32 0,00 2.039,99 5.513,68 352,00 849,90 28/02/2013
200 337000 ANAILDES MARIA MENDES OFICIAL DO MP ATIVO JANAÚBA - COMARCA; JANAUBA-PJ-02PJ 4.005,77 400,58 0,00 0,00 0,00 0,00 4.406,35 484,70 305,37 0,00 790,07 3.616,28 1.542,67 89,30 28/02/2013
201 192900 ANATALIA CERQUEIRA LIMA PERES OFICIAL DO MP ATIVO UBERABA - COMARCA; COORD REG PJ DEF EDUC DIR CRIANCA ADOL TRIANG 4.854,78 970,96 0,00 0,00 0,00 0,00 5.825,74 691,42 635,27 0,00 1.326,69 4.499,05 352,00 804,23 28/02/2013
202 377400 ANDEIRSON DA MATTA BARBOSA ANALISTA DO MP ATIVO POUSO ALEGRE - COMARCA; POUSO ALEGRE-PJ-01PJ 5.883,73 353,02 0,00 0,00 0,00 0,00 6.236,75 694,70 735,87 0,00 1.430,57 4.806,18 352,00 128,46 28/02/2013
203 317400 ANDERSON DA SILVA BICALHO OFICIAL DO MP ATIVO CONTAGEM - COMARCA; CONTAGEM-PJ-SECRETARIA 4.854,78 485,48 0,00 0,00 0,00 0,00 5.340,26 616,46 516,45 0,00 1.132,91 4.207,35 587,00 397,17 28/02/2013
204 506900 ANDERSON DE SOUZA DAMIANI ANALISTA DO MP ATIVO BELO HORIZONTE - COMARCA; DIRETORIA DE PAGAMENTO DE PESSOAL-DPAG 4.270,85 854,17 0,00 0,00 0,00 0,00 5.125,02 563,75 463,77 0,00 1.027,52 4.097,50 352,00 0,00 28/02/2013
205 410000 ANDERSON DE SOUZA NETO ASSESSOR ATIVO BELO HORIZONTE - COMARCA; DIRETORIA DE ADMINISTRACAO FINANCEIRA 0,00 0,00 3.698,79 0,00 0,00 0,00 3.698,79 427,87 170,04 0,00 597,91 3.100,88 835,11 24,16 28/02/2013
206 181900 ANDERSON FLAVIO DE OLIVEIRA OFICIAL DO MP ATIVO ITAGUARA - COMARCA; ITAGUARA-PJ-SECRETARIA 5.883,73 1.176,75 0,00 0,00 2.353,49 0,00 9.413,97 811,11 1.584,68 0,00 2.395,79 7.018,18 352,00 636,01 28/02/2013
207 119500 ANDERSON FUNGHI DE AZEVEDO ROCHA DIRETOR/OFICIAL ATIVO BELO HORIZONTE - COMARCA; DIR ESTRUTURA E PROCESSOS ORGANIZACIONAIS 0,00 8.778,07 12.540,10 0,00 0,00 0,00 21.318,17 2.008,37 4.492,35 0,00 6.500,72 14.817,45 352,00 5.899,19 28/02/2013
208 333200 ANDERSON JOSE DE FREITAS OFICIAL DO MP ATIVO IPATINGA - COMARCA; IPATINGA-PJ-02PJ 4.005,77 400,58 0,00 0,00 0,00 0,00 4.406,35 484,70 305,37 0,00 790,07 3.616,28 1.542,67 89,30 28/02/2013
209 462100 ANDERSON LUIZ GUIMARAES CARDOSO ANALISTA DO MP ATIVO BARBACENA - COMARCA; BARBACENA-PJ-SECRETARIA 5.698,20 0,00 0,00 0,00 0,00 0,00 5.698,20 633,64 604,06 0,00 1.237,70 4.460,50 352,00 108,60 28/02/2013
210 429700 ANDERSON MELO DE SOUZA OFICIAL DO MP ATIVO BELO HORIZONTE - COMARCA; DIRET DE ESTAGIOS E CONVENIOS ACADEMICOS 3.151,29 189,08 0,00 0,00 0,00 0,00 3.340,37 367,44 125,34 0,00 492,78 2.847,59 352,00 0,00 28/02/2013
211 519900 ANDERSON MOREIRA DOEHLER ANALISTA DO MP ATIVO NOVO CRUZEIRO - COMARCA; NOVO CRUZEIRO-PJ-UNPJ 4.553,46 910,69 0,00 0,00 0,00 0,00 5.464,15 601,06 546,77 0,00 1.147,83 4.316,32 352,00 0,00 28/02/2013
212 103000 ANDERSON TADEU DE DEUS ASSESSOR ATIVO BELO HORIZONTE - COMARCA; EXTINTA - PROTOCOLO DA PGJ 0,00 1.849,40 3.698,79 0,00 0,00 0,00 5.548,19 457,49 609,36 0,00 1.066,85 4.481,34 3.802,68 402,76 28/02/2013
213 309200 ANDITYAS SOARES DE MOURA COSTA MATOS ANALISTA DO MP ATIVO BELO HORIZONTE - COMARCA; GABINETE DE PROCURADOR DE JUSTIÇA - SALA 909 7.487,46 748,75 0,00 0,00 0,00 0,00 8.236,21 1.054,00 1.225,23 0,00 2.279,23 5.956,98 352,00 1.990,51 28/02/2013
214 338701 ANDRE BARBUTO VITORINO ANALISTA DO MP ATIVO AIMORÉS - COMARCA; AIMORES-PJ-UNPJ 6.379,14 382,75 0,00 0,00 0,00 0,00 6.761,89 796,90 864,39 0,00 1.661,29 5.100,60 352,00 816,86 28/02/2013
215 519200 ANDRE BORJA LANA ANALISTA DO MP ATIVO BELO HORIZONTE - COMARCA; SUPERINTENDENCIA DE COMUNICACAO INTEGRADA 4.701,73 0,00 0,00 0,00 0,00 0,00 4.701,73 542,20 415,81 0,00 958,01 3.743,72 352,00 355,85 28/02/2013
216 521900 ANDRE LUIS GOMES SILVA ANALISTA DO MP ATIVO FORMIGA - COMARCA; FORMIGA-PJ-01PJ 4.136,15 0,00 0,00 0,00 0,00 0,00 4.136,15 454,98 251,26 0,00 706,24 3.429,91 352,00 0,00 28/02/2013
217 304300 ANDRE LUIZ AVELAR ANALISTA DO MP ATIVO BELO HORIZONTE - COMARCA; DIRETORIA DE REDES E BANCOS DE DADOS 5.698,20 569,82 0,00 0,00 0,00 0,00 6.268,02 718,33 743,52 0,00 1.461,85 4.806,17 352,00 372,43 28/02/2013
218 397400 ANDRE PATARO MYRRHA DE PAULA E SILVA ASSESSOR/ANALISTA ATIVO BELO HORIZONTE - COMARCA; ASSESSORIA JURIDICO-ADMINISTRATIVA 0,00 449,25 7.487,46 0,00 0,00 0,00 7.936,71 787,14 1.156,06 0,00 1.943,20 5.993,51 352,00 1.863,36 28/02/2013
219 297200 ANDRE WILLE ROSARIO ANALISTA DO MP ATIVO BELO HORIZONTE - COMARCA; ASSESSORIA ESPECIAL DO PGJ 8.788,36 878,84 0,00 0,00 0,00 0,00 9.667,20 1.240,37 1.433,59 0,00 2.673,96 6.993,24 4.037,68 2.618,70 28/02/2013
220 423600 ANDREA COSTA GUALBERTO ANALISTA DO MP ATIVO GOVERNADOR VALADARES - COMARCA; COORD REG PJ DEF EDU DIR CRIANCA ADOL RIODOCE 5.883,73 2.941,87 0,00 0,00 0,00 0,00 8.825,60 1.250,64 1.979,13 0,00 3.229,77 5.595,83 4.813,51 4.948,12 28/02/2013
221 198600 ANDREA CRISTINA ANDRADE COSTA E SOUZA OFICIAL DO MP ATIVO MONTES CLAROS - COMARCA; MONTES CLAROS-PJ-SECRETARIA 7.731,26 1.546,25 0,00 0,00 0,00 0,00 9.277,51 1.154,19 1.385,51 0,00 2.539,70 6.737,81 3.567,68 1.927,09 28/02/2013
222 467300 ANDREA DE CASSIA PENNA ALVERNAZ ANALISTA DO MP ATIVO PONTE NOVA - COMARCA; PONTE NOVA-PJ-SECRETARIA 5.698,20 0,00 0,00 0,00 0,00 0,00 5.698,20 626,80 604,06 0,00 1.230,86 4.467,34 587,00 0,00 28/02/2013
223 308000 ANDREA DE CASSIA SANTOS OLIVEIRA ANALISTA DO MP ATIVO BELO HORIZONTE - COMARCA; ASSESS TECNICO-JUR JUNTO AS PROC. DE JUST 7.982,93 798,29 0,00 0,00 0,00 0,00 8.781,22 1.136,78 1.358,62 0,00 2.495,40 6.285,82 587,00 2.014,24 28/02/2013
224 349500 ANDREA DE OLIVEIRA OFICIAL DO MP ATIVO IGUATAMA - COMARCA; IGUATAMA-PJ-UNPJ 4.553,46 455,35 0,00 0,00 0,00 0,00 5.008,81 550,97 388,03 0,00 939,00 4.069,81 587,00 0,00 28/02/2013
225 254700 ANDREA EMISE REIS DE AZEVEDO COORDENADOR/OFICIAL ATIVO BELO HORIZONTE - COMARCA; COMB CRIMES PRAT POR AG POL MUN-SECRETARIA 0,00 1.702,24 8.511,21 0,00 0,00 0,00 10.213,45 855,34 1.824,11 0,00 2.679,45 7.534,00 352,00 2.501,69 28/02/2013
226 287900 ANDREA FERNANDES PENA OFICIAL DO MP ATIVO MONTES CLAROS - COMARCA; MONTES CLAROS-PJ-09PJ 5.518,54 551,85 0,00 0,00 0,00 0,00 6.070,39 718,50 600,57 0,00 1.319,07 4.751,32 3.206,71 1.057,27 28/02/2013
227 300800 ANDREA FERREIRA ANALISTA DO MP ATIVO LAVRAS - COMARCA; LAVRAS-PJ-04PJ 7.731,26 773,13 0,00 0,00 0,00 0,00 8.504,39 1.081,69 1.290,87 0,00 2.372,56 6.131,83 2.312,05 2.211,81 28/02/2013
228 316700 ANDREA FRANCISCA DIAS DE SOUZA ASSESSOR ATIVO BELO HORIZONTE - COMARCA; BH-22PJ PES COM DEF E IDOSOS-SECRETARIA 0,00 0,00 2.215,31 0,00 0,00 0,00 2.215,31 282,40 16,66 0,00 299,06 1.916,25 352,00 0,00 28/02/2013
229 395100 ANDREA LANNA MENDES NOVAIS ANALISTA DO MP ATIVO BELO HORIZONTE - COMARCA; PROMOT ESTADUAL DE DEF PATRI CULT E TUR DE MG 6.379,14 382,75 0,00 0,00 0,00 0,00 6.761,89 780,88 817,10 0,00 1.597,98 5.163,91 822,00 662,60 28/02/2013
230 67300 ANDREA LEAO MAGALHAES ROQUE ASSESSOR ATIVO BELO HORIZONTE - COMARCA; COORD DE CONT. DA CONSTITUCIONALIDADE-SEC 0,00 3.743,73 7.487,46 0,00 0,00 0,00 11.231,19 457,49 2.172,19 0,00 2.629,68 8.601,51 352,00 3.600,37 28/02/2013
231 335700 ANDREA LOPES PEREIRA ANALISTA DO MP ATIVO GOVERNADOR VALADARES - COMARCA; COORD REG DO MA DA BACIA DO RIO DOCE 7.982,93 798,29 0,00 0,00 0,00 0,00 8.781,22 1.124,50 1.358,62 0,00 2.483,12 6.298,10 352,00 1.881,50 28/02/2013
232 389200 ANDREA TUPINI DOS SANTOS TRISTAO DA ROCHA OFICIAL DO MP ATIVO DIVINO - COMARCA; DIVINO-PJ-UNPJ 3.469,26 208,16 0,00 0,00 0,00 0,00 3.677,42 404,52 170,34 0,00 574,86 3.102,56 648,96 0,00 28/02/2013
233 419000 ANDREIA BARBOSA DE ALMEIDA ANALISTA DO MP ATIVO BELO HORIZONTE - COMARCA; PROC. JUSTICA DE HABEAS CORPUS 6.379,14 382,75 0,00 0,00 0,00 0,00 6.761,89 772,44 864,39 0,00 1.636,83 5.125,06 1.193,45 448,79 28/02/2013
234 281501 ANDREIA CARLA COSTA FILGUEIRAS ANALISTA DO MP ATIVO VISCONDE DO RIO BRANCO - COMARCA; VISCONDE DO RIO BRANCO-PJ-02PJ 6.379,14 382,75 0,00 0,00 0,00 0,00 6.761,89 997,63 1.209,57 0,00 2.207,20 4.554,69 352,00 2.650,56 28/02/2013
235 477100 ANDREIA DE ALMEIDA RIBEIRO MELO OFICIAL DO MP ATIVO CONTAGEM - COMARCA; CONTAGEM-PJ-07PJ 3.359,85 0,00 0,00 0,00 0,00 0,00 3.359,85 369,58 127,94 0,00 497,52 2.862,33 352,00 0,00 28/02/2013
236 100200 ANDREIA FERREIRA MATTOZINHOS COORDENADOR/ANALISTA ATIVO BELO HORIZONTE - COMARCA; DIRET DE ESTAGIOS E CONVENIOS ACADEMICOS 15.829,88 13.402,91 0,00 0,00 0,00 2.652,94 31.885,73 2.652,94 5.841,77 5.115,17 13.609,88 18.275,85 352,00 0,00 28/02/2013
237 424000 ANDREIA LUCIA COUTO ANALISTA DO MP ATIVO BELO HORIZONTE - COMARCA; BH-18PJ DIREITOS HUMANOS 6.379,14 382,75 0,00 0,00 0,00 0,00 6.761,89 839,18 1.061,47 0,00 1.900,65 4.861,24 587,00 1.193,43 28/02/2013
238 370100 ANDREIA MARIA SILVA PINTO OFICIAL DO MP ATIVO CORONEL FABRICIANO - COMARCA; CORONEL FABRICIANO-PJ-01PJ 4.701,73 470,17 0,00 0,00 0,00 0,00 5.171,90 568,91 475,24 0,00 1.044,15 4.127,75 352,00 0,00 28/02/2013
239 382100 ANDREIA NATALI PEREIRA OFICIAL DO MP ATIVO PRADOS - COMARCA; PRADOS-PJ-UNPJ 4.553,46 273,21 0,00 0,00 0,00 0,00 4.826,67 530,93 390,75 0,00 921,68 3.904,99 352,00 0,00 28/02/2013
240 198700 ANDREIA NUNES DURAES OFICIAL DO MP ATIVO MONTES CLAROS - COMARCA; MONTES CLAROS-PJ-06PJ 7.731,26 1.546,25 0,00 0,00 0,00 0,00 9.277,51 1.207,51 1.480,09 0,00 2.687,60 6.589,91 4.179,90 2.620,46 28/02/2013
241 275200 ANDREIA RIBEIRO FREITAS OFICIAL DO MP ATIVO VIÇOSA - COMARCA; VICOSA-PJ-03PJ 5.344,58 1.068,92 0,00 0,00 0,00 0,00 6.413,50 744,05 684,54 0,00 1.428,59 4.984,91 3.784,82 971,16 28/02/2013
242 352200 ANDREIA XAVIER PEREIRA OFICIAL DO MP ATIVO CLÁUDIO - COMARCA; CLAUDIO-PJ-UNPJ 4.553,46 455,35 0,00 0,00 0,00 0,00 5.008,81 550,97 435,33 0,00 986,30 4.022,51 352,00 0,00 28/02/2013
243 383700 ANDRESSA EDUARDO SOUZA ANALISTA DO MP ATIVO OURO BRANCO - COMARCA; OURO BRANCO-PJ-SECRETARIA 6.379,14 382,75 0,00 0,00 0,00 0,00 6.761,89 773,24 864,39 0,00 1.637,63 5.124,26 3.567,68 780,49 28/02/2013
244 426200 ANDRESSA MENDES CASAL ASSESSOR/OFICIAL ATIVO BELO HORIZONTE - COMARCA; BH-12PJ JUIZO CRIMINAL-SECRETARIA 0,00 353,02 5.883,73 0,00 0,00 0,00 6.236,75 408,74 826,76 0,00 1.235,50 5.001,25 352,00 116,48 28/02/2013
245 390100 ANDRESSA RIBEIRO PUCCI OFICIAL DO MP ATIVO UBERABA - COMARCA; UBERABA-PJ-14PJ 3.757,11 225,43 0,00 0,00 0,00 0,00 3.982,54 438,08 220,50 0,00 658,58 3.323,96 352,00 0,00 28/02/2013
246 462500 ANDREZA APARECIDA COSTA E SILVA ANALISTA DO MP ATIVO CONSELHEIRO LAFAIETE - COMARCA; CONSELHEIRO LAFAIETE-PJ-02PJ 5.698,20 0,00 0,00 0,00 0,00 0,00 5.698,20 626,80 604,06 0,00 1.230,86 4.467,34 3.770,92 332,03 28/02/2013
247 491600 ANE PATRICIA RIBEIRO ANALISTA DO MP ATIVO SETE LAGOAS - COMARCA; SETE LAGOAS-PJ-10PJ 4.701,73 0,00 0,00 0,00 0,00 0,00 4.701,73 517,19 364,52 0,00 881,71 3.820,02 587,00 0,00 28/02/2013
248 465800 ANELISE GAMA ASSESSOR ATIVO BELO HORIZONTE - COMARCA; BH-18PJ VIOLENCIA DOMESTICA 0,00 0,00 3.698,79 0,00 0,00 0,00 3.698,79 445,59 167,38 0,00 612,97 3.085,82 352,00 0,00 28/02/2013
249 197200 ANGELA COELHO SALDANHA OLIVEIRA OFICIAL DO MP ATIVO PARÁ DE MINAS - COMARCA; PARA DE MINAS-PJ-03PJ 7.731,26 1.546,25 0,00 0,00 0,00 0,00 9.277,51 1.218,09 1.480,09 0,00 2.698,18 6.579,33 352,00 2.536,16 28/02/2013
250 307400 ANGELA CRISTINA GONCALVES MUNIZ ANALISTA DO MP ATIVO UBERLÂNDIA - COMARCA; UBERLANDIA-COORD CONJ-FAMÍLIA E JUIZ ESP CRIM 8.788,36 1.757,67 0,00 0,00 0,00 0,00 10.546,03 1.385,08 1.790,56 0,00 3.175,64 7.370,39 3.698,94 2.833,52 28/02/2013
251 191800 ANGELA MARIA DE OLIVEIRA OFICIAL DO MP ATIVO GUARANÉSIA - COMARCA; GUARANESIA-PJ-SECRETARIA 7.731,26 2.319,38 0,00 0,00 0,00 0,00 10.050,64 1.333,29 1.622,02 0,00 2.955,31 7.095,33 1.141,54 2.662,29 28/02/2013
252 69900 ANGELA MARIA DE PAULA CUNHA OFICIAL DO MP ATIVO JUIZ DE FORA - COMARCA; JUIZ DE FORA-PJ-11PJ 7.982,93 3.991,47 0,00 0,00 0,00 0,00 11.974,40 1.687,98 1.998,28 0,00 3.686,26 8.288,14 3.567,68 4.659,05 28/02/2013
253 497400 ANGELA MARIA HENRIQUES ANALISTA DO MP ATIVO BELO HORIZONTE - COMARCA; COORD REG BACIAS RIO VELHAS E PARAOPEBA 4.701,73 0,00 0,00 0,00 0,00 0,00 4.701,73 517,19 364,52 0,00 881,71 3.820,02 822,00 0,00 28/02/2013
254 260700 ANGELICA CRISTINA AZEVEDO MOREIRA MOUCO OFICIAL DO MP ATIVO UBÁ - COMARCA; UBA-PJ-02PJ 5.698,20 569,82 0,00 0,00 0,00 0,00 6.268,02 722,28 648,94 0,00 1.371,22 4.896,80 3.802,68 910,08 28/02/2013
255 334600 ANGELICA PANISSA DE FREITAS OFICIAL DO MP ATIVO GUAXUPÉ - COMARCA; GUAXUPE-PJ-02PJ 4.005,77 801,15 0,00 0,00 0,00 0,00 4.806,92 528,76 385,91 0,00 914,67 3.892,25 1.943,24 145,86 28/02/2013
256 521100 ANGELICA SALES MOREIRA OFICIAL DO MP ATIVO BELO HORIZONTE - COMARCA; BH-02PJ FAMILIA-SECRETARIA 2.684,83 0,00 0,00 0,00 0,00 0,00 2.684,83 295,33 50,90 0,00 346,23 2.338,60 352,00 0,00 28/02/2013
257 466500 ANGELLO MARQUES AGRELLI ANALISTA DO MP ATIVO MAR DE ESPANHA - COMARCA; MAR DE ESPANHA-PJ-UNPJ 5.698,20 0,00 0,00 0,00 0,00 0,00 5.698,20 626,80 604,06 0,00 1.230,86 4.467,34 352,00 0,00 28/02/2013
258 363300 ANGELO VERDOLIN HENRIQUES ANALISTA DO MP ATIVO SETE LAGOAS - COMARCA; SETE LAGOAS-PJ-04PJ 7.731,26 1.546,25 0,00 0,00 0,00 0,00 9.277,51 1.138,19 1.480,09 0,00 2.618,28 6.659,23 4.188,22 1.806,88 28/02/2013
259 250900 ANISIO APARECIDO SANTOS OFICIAL DO MP ATIVO CONTAGEM - COMARCA; CONTAGEM-PJ-19PJ 4.409,86 881,97 0,00 0,00 0,00 0,00 5.291,83 589,14 410,01 0,00 999,15 4.292,68 3.567,68 406,56 28/02/2013
260 253400 ANNA FLAVIA LEHMAN BATTAGLIA ASSESSOR/ANALISTA ATIVO BELO HORIZONTE - COMARCA; ASSESSORIA JURIDICO-ADMINISTRATIVA 0,00 2.508,02 12.540,10 0,00 0,00 0,00 15.048,12 1.513,00 2.881,87 0,00 4.394,87 10.653,25 4.087,50 5.275,57 28/02/2013
261 447600 ANNGELUCE ALCANTARA DE CAMPOS OFICIAL DO MP ATIVO DIVINÓPOLIS - COMARCA; DIVINOPOLIS-PJ-10PJ 3.151,29 315,13 0,00 0,00 0,00 0,00 3.466,42 401,74 172,43 0,00 574,17 2.892,25 602,74 311,17 28/02/2013
262 119600 ANSELMO BORGES PARREIRAS OFICIAL DO MP ATIVO BONFIM - COMARCA; BONFIM-PJ-UNPJ 5.012,79 3.508,96 0,00 0,00 0,00 0,00 8.521,75 1.100,76 1.200,54 0,00 2.301,30 6.220,45 352,00 2.181,52 28/02/2013
263 194800 ANTONIA MARIA AFONSO DE SOUZA OFICIAL DO MP ATIVO ITAPAGIPE - COMARCA; ITAPAGIPE-PJ-SECRETARIA 7.487,46 3.743,73 0,00 0,00 0,00 0,00 11.231,19 1.433,58 1.910,96 0,00 3.344,54 7.886,65 352,00 2.549,58 28/02/2013
264 332400 ANTONIA MARIA MAMEDE OFICIAL DO MP ATIVO ARAGUARI - COMARCA; ARAGUARI-PJ-05PJ 5.012,79 501,28 0,00 0,00 0,00 0,00 5.514,07 606,55 511,70 0,00 1.118,25 4.395,82 2.650,39 210,69 28/02/2013
265 401600 ANTONIO CARLOS GUEDES AROUCA ANALISTA DO MP ATIVO BELO HORIZONTE - COMARCA; EXTINTA - CAO-IDOSOS PESSOAS DEFIC-SEC ADM 6.379,14 382,75 0,00 0,00 0,00 0,00 6.761,89 777,58 864,39 0,00 1.641,97 5.119,92 352,00 621,31 28/02/2013
266 7100 ANTONIO DO NASCIMENTO OLIVEIRA ASSESSOR ATIVO BELO HORIZONTE - COMARCA; GAECO - SECRETARIA 0,00 1.993,78 2.215,31 0,00 1.403,03 0,00 5.612,12 457,49 437,78 0,00 895,27 4.716,85 352,00 0,00 28/02/2013
267 59400 ANTONIO GOBIRA DE ALCANTARA AGENTE DO MP ATIVO BELO HORIZONTE - COMARCA; EXTINTA - DIVISAO DE TRANSPORTES 4.854,78 3.398,34 0,00 0,00 0,00 0,00 8.253,12 1.275,25 1.545,67 0,00 2.820,92 5.432,20 3.567,68 4.354,20 28/02/2013
268 333900 ANTONIO GONCALVES DE SOUZA FILHO OFICIAL DO MP ATIVO BELO HORIZONTE - COMARCA; ARQUIVO DO MINISTERIO PUBLICO DO ESTADO DE MG 4.553,46 455,35 0,00 0,00 0,00 0,00 5.008,81 550,97 435,33 0,00 986,30 4.022,51 2.145,13 164,37 28/02/2013
269 119700 ANTONIO LISBOA MACIEL OFICIAL DO MP ATIVO JABOTICATUBAS - COMARCA; JABOTICATUBAS-PJ-SECRETARIA 4.005,77 3.204,62 0,00 0,00 0,00 0,00 7.210,39 890,86 785,00 0,00 1.675,86 5.534,53 352,00 1.279,38 28/02/2013
270 176100 ANTONIO MARCELO CAMPOS CAMPANELLA OFICIAL DO MP ATIVO BELO HORIZONTE - COMARCA; SUPERINTENDENCIA DE RECURSOS HUMANOS 7.731,26 2.319,38 0,00 0,00 0,00 0,00 10.050,64 1.317,29 1.669,31 0,00 2.986,60 7.064,04 1.376,57 3.144,69 28/02/2013
271 119800 ANTONIO MARCIANO DE PAULA AGENTE DO MP ATIVO BELO HORIZONTE - COMARCA; DIRETORIA DE MANUTENCAO PREDIAL 3.879,42 3.491,48 0,00 0,00 0,00 810,80 8.181,70 904,86 1.094,54 0,00 1.999,40 6.182,30 352,00 1.325,42 28/02/2013
272 321001 ANTONIO OLINTO VIEIRA MACHADO ANALISTA DO MP ATIVO BELO HORIZONTE - COMARCA; CENTRAL DE APOIO TECN-SETOR DE MEIO AMBIENTE 6.379,14 382,75 0,00 0,00 0,00 0,00 6.761,89 772,99 864,39 0,00 1.637,38 5.124,51 3.567,68 699,91 28/02/2013
273 356200 ANTONIO PAULA DA SILVA OFICIAL DO MP ATIVO JUIZ DE FORA - COMARCA; JUIZ DE FORA-PJ-20PJ 3.879,42 387,94 0,00 0,00 0,00 0,00 4.267,36 469,41 277,54 0,00 746,95 3.520,41 352,00 0,00 28/02/2013
274 83800 ANTONIO ROBSON DA SILVA AGENTE DO MP ATIVO BELO HORIZONTE - COMARCA; BH-23PJ CIVEL-SEC EXP CIVEIS 9.989,93 6.992,95 0,00 0,00 0,00 0,00 16.982,88 2.352,08 3.271,40 0,00 5.623,48 11.359,40 830,50 5.893,81 28/02/2013
275 119900 ANTONIO RODRIGUES DE PINHO OFICIAL DO MP ATIVO GUANHÃES - COMARCA; GUANHAES-PJ-01PJ 7.487,46 3.743,73 0,00 0,00 0,00 0,00 11.231,19 1.392,90 1.910,96 0,00 3.303,86 7.927,33 3.567,68 2.418,29 28/02/2013
276 373300 ANTONIO SERGIO ANANIAS OFICIAL DO MP ATIVO AIURUOCA - COMARCA; AIURUOCA-PJ-UNPJ 3.757,11 225,43 0,00 0,00 0,00 0,00 3.982,54 438,08 159,48 0,00 597,56 3.384,98 587,00 0,00 28/02/2013
277 374700 ANTONIO SILVA NETO OFICIAL DO MP ATIVO BELO HORIZONTE - COMARCA; GAECO - SECRETARIA 4.553,46 273,21 0,00 0,00 0,00 0,00 4.826,67 530,93 390,75 0,00 921,68 3.904,99 352,00 0,00 28/02/2013
278 413200 ANY PEREIRA SILVA ANALISTA DO MP ATIVO TRÊS PONTAS - COMARCA; TRES PONTAS-PJ-01PJ 5.344,58 320,67 0,00 0,00 0,00 0,00 5.665,25 755,84 668,04 0,00 1.423,88 4.241,37 2.801,57 1.751,71 28/02/2013
279 151401 APARECIDA DE FATIMA MENDES DE ALMEIDA ASSESSOR ATIVO JUIZ DE FORA - COMARCA; JUIZ DE FORA-PJ-SECRETARIA 0,00 0,00 3.698,79 0,00 0,00 0,00 3.698,79 427,87 170,04 0,00 597,91 3.100,88 835,11 24,16 28/02/2013
280 329300 APARECIDA MARIA MELO DE ASSIS OFICIAL DO MP ATIVO BELO HORIZONTE - COMARCA; BH-18PJ DIREITOS HUMANOS-SECRETARIA 5.344,58 534,46 0,00 0,00 0,00 0,00 5.879,04 653,68 648,32 0,00 1.302,00 4.577,04 352,00 110,93 28/02/2013
281 475300 APARECIDA MARLENE FREIRE ROSA ANALISTA DO MP ATIVO BELO HORIZONTE - COMARCA; BH-02PJ FAMILIA 5.698,20 4.558,56 0,00 0,00 0,00 0,00 10.256,76 1.278,82 1.719,76 0,00 2.998,58 7.258,18 3.567,68 2.341,07 28/02/2013
282 240300 APARECIDA PEREIRA DO NASCIMENTO OFICIAL DO MP ATIVO ITURAMA - COMARCA; ITURAMA-PJ-01PJ 6.075,32 3.037,66 0,00 0,00 0,00 0,00 9.112,98 1.288,43 1.822,17 0,00 3.110,60 6.002,38 352,00 2.992,89 28/02/2013
283 354500 APARECIDA VIEIRA DE CARVALHO OFICIAL DO MP ATIVO BELO HORIZONTE - COMARCA; PROCON-MG-SEC DE EDUCACAO PARA O CONSUMO 3.879,42 387,94 0,00 0,00 0,00 0,00 4.267,36 469,41 238,85 0,00 708,26 3.559,10 1.403,68 78,88 28/02/2013
284 286200 ARACELI MEDRADO DOS SANTOS LIMA OFICIAL DO MP ATIVO PARACATU - COMARCA; PARACATU-PJ-03PJ 4.409,86 440,99 0,00 0,00 0,00 0,00 4.850,85 533,59 396,67 0,00 930,26 3.920,59 352,00 0,00 28/02/2013
285 189000 ARAHY MARQUES SILVA OFICIAL DO MP ATIVO SÃO JOÃO DEL REI - COMARCA; SAO JOAO DEL REI-PJ-01PJ 4.409,86 881,97 0,00 0,00 0,00 0,00 5.291,83 589,14 504,60 0,00 1.093,74 4.198,09 2.428,15 302,02 28/02/2013
286 112200 ARAQUEM AUGUSTO DE MATOS AGENTE DO MP ATIVO BELO HORIZONTE - COMARCA; BH-23PJ INFRACIONAL-SEC EXP 4.409,86 3.086,91 0,00 0,00 0,00 0,00 7.496,77 901,92 949,67 0,00 1.851,59 5.645,18 3.802,68 1.359,62 28/02/2013
287 280600 ARDUINO FRATTEZI ANALISTA DO MP ATIVO BELO HORIZONTE - COMARCA; CENTRAL DE APOIO TECNICO-SETOR CONTABIL 8.788,36 878,84 0,00 0,00 0,00 0,00 9.667,20 1.234,52 1.480,88 0,00 2.715,40 6.951,80 3.567,68 2.560,45 28/02/2013
288 417700 ARIANA CRISTINA DE FREITAS ANALISTA DO MP ATIVO MATEUS LEME - COMARCA; MATEUS LEME-PJ-01PJ 5.344,58 320,67 0,00 0,00 0,00 0,00 5.665,25 623,18 595,99 0,00 1.219,17 4.446,08 352,00 0,00 28/02/2013
289 520200 ARIANE DE FATIMA CARVALHO ALMEIDA OFICIAL DO MP ATIVO BELO HORIZONTE - COMARCA; BH-19PJ SAUDE-SECRETARIA 129PJ 2.772,23 0,00 0,00 0,00 0,00 0,00 2.772,23 320,57 68,45 0,00 389,02 2.383,21 439,40 187,92 28/02/2013
290 182000 ARILSON ALEXANDRE MARTINS MAGALHAES OFICIAL DO MP ATIVO JOÃO MONLEVADE - COMARCA; JOAO MONLEVADE-PJ-02PJ 7.487,46 2.246,24 0,00 0,00 0,00 0,00 9.733,70 1.203,43 1.497,16 0,00 2.700,59 7.033,11 3.643,33 2.158,05 28/02/2013
291 511000 ARISLANE CAROLINA DA SILVA ANALISTA DO MP ATIVO CAMPINA VERDE - COMARCA; CAMPINA VERDE-PJ-UNPJ 4.701,73 0,00 0,00 0,00 1.567,24 0,00 6.268,97 517,19 791,16 0,00 1.308,35 4.960,62 352,00 0,00 28/02/2013
292 170000 ARLEY BRITES DA SILVA ASSESSOR ATIVO BELO HORIZONTE - COMARCA; EXTINTA - DIVISÃO DE MATERIAL PERMANENTE 0,00 739,76 3.698,79 0,00 0,00 0,00 4.438,55 457,49 202,66 0,00 660,15 3.778,40 822,00 0,00 28/02/2013
293 120400 ARLINDO CASSIO DA CRUZ OFICIAL DO MP ATIVO SÃO GONÇALO DO SAPUCAÍ - COMARCA; SAO GONCALO DO SAPUCAI-PJ-01PJ 11.161,27 7.812,89 0,00 0,00 0,00 0,00 18.974,16 2.595,78 3.711,47 0,00 6.307,25 12.666,91 638,73 6.135,00 28/02/2013
294 243700 ARLINDO MARCIO LACERDA OFICIAL DO MP ATIVO CONTAGEM - COMARCA; CONTAGEM-PJ-03PJ 6.177,98 1.853,39 0,00 0,00 0,00 0,00 8.031,37 941,02 1.175,10 0,00 2.116,12 5.915,25 352,00 867,93 28/02/2013
295 392100 ARNALDO DE ANDRADE OFICIAL DO MP ATIVO DIVINÓPOLIS - COMARCA; DIVINOPOLIS-PJ-02PJ 4.553,46 273,21 0,00 0,00 0,00 0,00 4.826,67 530,93 390,75 0,00 921,68 3.904,99 1.962,99 147,67 28/02/2013
296 352801 ARTHUR JONAS MENDONCA E ARAUJO ANALISTA DO MP ATIVO UBERABA - COMARCA; UBERABA-PJ-12PJ 4.701,73 282,10 0,00 0,00 0,00 0,00 4.983,83 548,22 429,21 0,00 977,43 4.006,40 2.120,15 162,08 28/02/2013
297 302100 AUGUSTO ROUSSEAU DE CASTRO ANALISTA DO MP ATIVO CATAGUASES - COMARCA; CATAGUASES-PJ-02PJ 8.788,36 878,84 0,00 0,00 0,00 0,00 9.667,20 1.277,92 1.575,47 0,00 2.853,39 6.813,81 352,00 2.720,47 28/02/2013
298 183200 AURELIANO MAGELA DE REZENDE COORDENADOR/OFICIAL ATIVO BELO HORIZONTE - COMARCA; COORD DE GABINETE DO PGJ 0,00 1.934,99 9.674,93 0,00 0,00 0,00 11.609,92 1.096,92 2.160,43 0,00 3.257,35 8.352,57 352,00 3.101,53 28/02/2013
299 519400 BARBARA CRISTINA ALVES PINTO ZADOROSNY ANALISTA DO MP ATIVO BELO HORIZONTE - COMARCA; PROC. JUSTICA DIR. DIFUSOS E COLETIVOS-SEC 4.270,85 0,00 0,00 0,00 0,00 0,00 4.270,85 492,51 319,60 0,00 812,11 3.458,74 352,00 278,38 28/02/2013
300 436800 BARBARA ROCHA LADEIA COLEN OFICIAL DO MP ATIVO BELO HORIZONTE - COMARCA; ASSESS TECNICO-JUR JUNTO AS PROC. DE JUST 3.757,11 225,43 0,00 0,00 0,00 0,00 3.982,54 438,08 220,50 0,00 658,58 3.323,96 352,00 0,00 28/02/2013
301 316500 BEATRIZ ABILVIA DA SILVA ANALISTA DO MP ATIVO GOVERNADOR VALADARES - COMARCA; GOVERNADOR VALADARES-PJ-13PJ 7.982,93 798,29 0,00 0,00 0,00 0,00 8.781,22 1.130,05 1.358,62 0,00 2.488,67 6.292,55 2.405,05 2.377,01 28/02/2013
302 482800 BEATRIZ ANGELICA NACIF SADER ASSESSOR ATIVO BELO HORIZONTE - COMARCA; CAO-CRIM EXEC PENAL TRIB JURI AUD MILITAR 0,00 0,00 5.883,73 0,00 0,00 0,00 5.883,73 457,49 701,64 0,00 1.159,13 4.724,60 352,00 536,32 28/02/2013
303 311800 BEATRIZ APARECIDA SOARES GANEM OFICIAL DO MP ATIVO ITAMBACURI - COMARCA; ITAMBACURI-PJ-02PJ 5.344,58 1.068,92 0,00 0,00 0,00 0,00 6.413,50 875,88 906,38 0,00 1.782,26 4.631,24 587,00 1.885,12 28/02/2013
304 266800 BEATRIZ AUGUSTA VILACA GOMES DA SILVA OFICIAL DO MP ATIVO BELO HORIZONTE - COMARCA; BH-05PJ-JUÍZO SUCESSÕES-SEC 4.701,73 470,17 0,00 0,00 0,00 0,00 5.171,90 568,91 475,24 0,00 1.044,15 4.127,75 352,00 0,00 28/02/2013
305 235200 BEATRIZ BOTELHO BATISTA OFICIAL DO MP ATIVO BELO HORIZONTE - COMARCA; CGMP-DIVISAO DE APOIO ADMINISTRATIVO 5.883,73 1.176,75 0,00 0,00 0,00 0,00 7.060,48 842,89 937,47 0,00 1.780,36 5.280,12 3.567,68 1.246,29 28/02/2013
306 113500 BEATRIZ DE LOURDES SOUZA ASSESSOR ATIVO BELO HORIZONTE - COMARCA; BH-02PJ FAMILIA-PROM DEC PAT 0,00 2.941,86 5.883,73 0,00 0,00 0,00 8.825,59 457,49 968,01 0,00 1.425,50 7.400,09 951,40 2.299,21 28/02/2013
307 182300 BEATRIZ PAULA SOUSA RAMOS OFICIAL DO MP ATIVO MARIANA - COMARCA; MARIANA-PJ-01PJ 7.487,46 2.246,24 0,00 0,00 0,00 0,00 9.733,70 1.305,16 1.783,03 0,00 3.088,19 6.645,51 699,54 2.566,29 28/02/2013
308 507000 BELCHIOR FRANKLIN AMARAL LEITE ANALISTA DO MP ATIVO BELO HORIZONTE - COMARCA; CENTRAL DE APOIO TECNICO 5.176,02 0,00 0,00 0,00 0,00 0,00 5.176,02 569,36 476,25 0,00 1.045,61 4.130,41 352,00 0,00 28/02/2013
309 478400 BENEDITO EVANGELISTA DANTAS ANALISTA DO MP ATIVO PARACATU - COMARCA; PARACATU-PJ-01PJ 3.102,11 0,00 0,00 0,00 0,00 0,00 3.102,11 417,07 21,47 0,00 438,54 2.663,57 352,00 0,00 28/02/2013
310 345100 BENITO ELIAS RODRIGUES ANALISTA DO MP ATIVO BARBACENA - COMARCA; BARBACENA-PJ-SECRETARIA 7.731,26 773,13 0,00 0,00 0,00 0,00 8.504,39 1.307,05 1.600,42 0,00 2.907,47 5.596,92 4.235,78 4.543,89 28/02/2013
311 207300 BENITO VIEIRA DOS SANTOS ANALISTA DO MP ATIVO BELO HORIZONTE - COMARCA; COMB CRIMES PRAT POR AG POL MUN-ASSESSORIA 12.062,58 3.618,77 0,00 0,00 0,00 0,00 15.681,35 2.135,78 1.611,11 0,00 3.746,89 11.934,46 3.567,68 5.132,46 28/02/2013
312 120600 BERNADETE FIGUEIREDO SALVIANO OFICIAL DO MP ATIVO BELO HORIZONTE - COMARCA; AUDITORIA INTERNA 4.854,78 3.883,82 0,00 0,00 2.912,87 961,25 12.612,72 1.097,21 2.413,57 0,00 3.510,78 9.101,94 1.021,47 1.873,39 28/02/2013
313 480200 BERNADETE NUNES DOS SANTOS ANALISTA DO MP ATIVO GUANHÃES - COMARCA; GUANHAES-PJ-02PJ 5.698,20 0,00 0,00 0,00 0,00 0,00 5.698,20 718,71 808,54 0,00 1.527,25 4.170,95 352,00 1.148,80 28/02/2013
314 378400 BETANIA FARNESI DE SOUZA E SILVA OFICIAL DO MP ATIVO SETE LAGOAS - COMARCA; SETE LAGOAS-PJ-03PJ 4.553,46 910,69 0,00 0,00 0,00 0,00 5.464,15 601,06 499,48 0,00 1.100,54 4.363,61 2.835,47 206,11 28/02/2013
315 387400 BETANIA MENDONCA DE ASSIS ANALISTA DO MP ATIVO BELO HORIZONTE - COMARCA; BH-08PJ JUIZADO ESPECIAL-SECRETARIA 6.379,14 382,75 0,00 0,00 0,00 0,00 6.761,89 800,50 864,39 0,00 1.664,89 5.097,00 352,00 857,34 28/02/2013
316 450300 BIANCA OLIVEIRA DE ALBUQUERQUE ANALISTA DO MP ATIVO BELO HORIZONTE - COMARCA; BH-10PJ EXECUÇÃO PENAL-SECRETARIA 5.176,02 0,00 0,00 0,00 1.725,34 0,00 6.901,36 730,43 1.309,08 0,00 2.039,51 4.861,85 352,00 1.464,21 28/02/2013
317 120800 BRAS MARQUES DE SOUZA ANALISTA DO MP ATIVO BELO HORIZONTE - COMARCA; EXTINTA - SUPERINTENDENCIA ADMINISTRATIVA-SAD 17.108,05 11.975,65 0,00 0,00 0,00 0,00 29.083,70 2.652,94 4.970,33 4.966,08 12.589,35 16.494,35 3.802,68 294,77 28/02/2013
318 460900 BRENO CRISTIANO DE SOUZA REZENDE ANALISTA DO MP ATIVO ITAÚNA - COMARCA; ITAUNA-PJ-02PJ 4.701,73 0,00 0,00 0,00 0,00 0,00 4.701,73 517,19 364,52 0,00 881,71 3.820,02 388,00 0,00 28/02/2013
319 239000 BRENO VENANCIO ROMANINI OFICIAL DO MP ATIVO BELO HORIZONTE - COMARCA; BH-20PJ ORD ECON TRIBUTARIA-SECRETARIA 4.854,78 970,96 0,00 0,00 0,00 0,00 5.825,74 647,87 635,27 0,00 1.283,14 4.542,60 352,00 111,81 28/02/2013
320 202200 BRIGITTE AMARALINA CALDAS MEDEIROS OFICIAL DO MP ATIVO NANUQUE - COMARCA; NANUQUE-PJ-02PJ 6.801,32 2.040,40 0,00 0,00 0,00 0,00 8.841,72 1.099,43 1.326,14 0,00 2.425,57 6.416,15 3.802,68 2.090,99 28/02/2013
321 513600 BRUNA KARLA MARTINS CARVALHO ANALISTA DO MP ATIVO GOVERNADOR VALADARES - COMARCA; GOVERNADOR VALADARES-PJ-01PJ 4.270,85 0,00 0,00 0,00 0,00 0,00 4.270,85 469,79 278,24 0,00 748,03 3.522,82 352,00 0,00 28/02/2013
322 415100 BRUNA MARIA SOARES OLIVEIRA COSTA RAMOS ANALISTA DO MP ATIVO UBÁ - COMARCA; COORD REG BACIA DO RIO PARAIBA DO SUL 6.379,14 382,75 0,00 0,00 0,00 0,00 6.761,89 808,05 864,39 0,00 1.672,44 5.089,45 3.056,76 1.179,03 28/02/2013
323 470000 BRUNA MORAES MARQUES ANALISTA DO MP ATIVO TOMBOS - COMARCA; TOMBOS-PJ-UNPJ 5.698,20 0,00 0,00 0,00 0,00 0,00 5.698,20 740,87 843,13 0,00 1.584,00 4.114,20 2.834,52 1.309,52 28/02/2013
324 463800 BRUNO ALVES TEIXEIRA ANALISTA DO MP ATIVO UBERLÂNDIA - COMARCA; UBERLANDIA-PJ-04PJ 5.698,20 0,00 0,00 0,00 0,00 0,00 5.698,20 633,36 604,06 0,00 1.237,42 4.460,78 352,00 104,19 28/02/2013
325 318200 BRUNO BARROS DE SOUZA OFICIAL DO MP ATIVO UBÁ - COMARCA; UBA-PJ-04PJ 5.344,58 534,46 0,00 0,00 0,00 0,00 5.879,04 653,68 421,41 0,00 1.075,09 4.803,95 3.567,68 405,64 28/02/2013
326 459600 BRUNO CASTELAR LUGAO MENDES OFICIAL DO MP ATIVO GOVERNADOR VALADARES - COMARCA; GOVERNADOR VALADARES-PJ-SECRETARIA 3.698,79 0,00 0,00 0,00 0,00 0,00 3.698,79 406,87 173,19 0,00 580,06 3.118,73 835,11 24,16 28/02/2013
327 427400 BRUNO CESAR RIBEIRO DE PAIVA ANALISTA DO MP ATIVO BELO HORIZONTE - COMARCA; ASSESS JUR DO CONS SUPERIOR DO MINISTERIO PUB 5.883,73 353,02 0,00 0,00 0,00 0,00 6.236,75 744,46 743,14 0,00 1.487,60 4.749,15 878,37 947,76 28/02/2013
328 490200 BRUNO CESARINO SOARES ANALISTA DO MP ATIVO BELO HORIZONTE - COMARCA; CENTRAL DE APOIO TECNICO-SETOR DE ENGENHARIA 5.176,02 0,00 0,00 0,00 1.725,34 0,00 6.901,36 569,36 950,72 0,00 1.520,08 5.381,28 352,00 0,00 28/02/2013
329 380900 BRUNO CIRILO ANTUNES OFICIAL DO MP ATIVO VARGINHA - COMARCA; VARGINHA-PJ-05PJ 3.469,26 208,16 0,00 0,00 0,00 0,00 3.677,42 404,52 170,34 0,00 574,86 3.102,56 352,00 0,00 28/02/2013
330 329000 BRUNO DE MELO REIS ANALISTA DO MP ATIVO PATROCÍNIO - COMARCA; PATROCINIO-PJ-02PJ 7.982,93 1.596,59 0,00 0,00 0,00 0,00 9.579,52 1.229,60 1.554,01 0,00 2.783,61 6.795,91 4.296,52 2.778,47 28/02/2013
331 378300 BRUNO HERDY LOPES DE OLIVEIRA ANALISTA DO MP ATIVO MANTENA - COMARCA; MANTENA-PJ-SECRETARIA 6.379,14 382,75 0,00 0,00 0,00 0,00 6.761,89 778,49 864,39 0,00 1.642,88 5.119,01 352,00 638,09 28/02/2013
332 350100 BRUNO LAUD SERRANO DOS REIS OFICIAL DO MP ATIVO UBÁ - COMARCA; UBA-PJ-04PJ 4.553,46 910,69 0,00 0,00 0,00 0,00 5.464,15 601,06 452,19 0,00 1.053,25 4.410,90 2.835,47 206,11 28/02/2013
333 373800 BRUNO MARTINO DE ALBUQUERQUE ANALISTA DO MP ATIVO PONTE NOVA - COMARCA; PONTE NOVA-PJ-SECRETARIA 6.379,14 637,91 0,00 0,00 0,00 0,00 7.017,05 1.008,76 1.212,54 0,00 2.221,30 4.795,75 587,00 2.605,22 28/02/2013
334 470400 BRUNO NOVAIS CABRAL ANALISTA DO MP ATIVO RESPLENDOR - COMARCA; RESPLENDOR-PJ-UNPJ 5.698,20 0,00 0,00 0,00 0,00 0,00 5.698,20 636,32 604,06 0,00 1.240,38 4.457,82 3.567,68 431,16 28/02/2013
335 369200 BRUNO ROBERTO DIAS DE OLIVEIRA OFICIAL DO MP ATIVO BELO HORIZONTE - COMARCA; BH-23PJ CIVEL-SETOR JURIDICO 4.701,73 470,17 0,00 0,00 0,00 0,00 5.171,90 575,37 475,24 0,00 1.050,61 4.121,29 2.308,22 282,04 28/02/2013
336 438200 BRUNO SALES PEREIRA ANALISTA DO MP ATIVO BELO HORIZONTE - COMARCA; CENTRAL DE APOIO TECNICO-SETOR CONTABIL 5.883,73 353,02 0,00 0,00 0,00 0,00 6.236,75 686,04 735,87 0,00 1.421,91 4.814,84 352,00 0,00 28/02/2013
337 405800 CAIO FERNANDO RODRIGUES DE OLIVEIRA ANALISTA DO MP ATIVO BELO HORIZONTE - COMARCA; ASSESS TECNICO-JUR JUNTO AS PROC. DE JUST 6.379,14 382,75 0,00 0,00 0,00 0,00 6.761,89 792,03 864,39 0,00 1.656,42 5.105,47 352,00 766,84 28/02/2013
338 491400 CAIO MIRANDA JUNQUEIRA ANALISTA DO MP ATIVO BUENO BRANDAO - COMARCA; BUENO BRANDAO-PJ-UNPJ 4.701,73 0,00 0,00 0,00 0,00 0,00 4.701,73 517,19 364,52 0,00 881,71 3.820,02 587,00 0,00 28/02/2013
339 415800 CAMILA ALVES DA SILVA ANALISTA DO MP ATIVO CAETÉ - COMARCA; CAETE-PJ-01PJ 6.379,14 382,75 0,00 0,00 0,00 0,00 6.761,89 785,93 864,39 0,00 1.650,32 5.111,57 1.193,45 786,86 28/02/2013
340 445200 CAMILA CONDE ROCHA ANALISTA DO MP ATIVO CONTAGEM - COMARCA; CONTAGEM-PJ-10PJ 5.883,73 353,02 0,00 0,00 0,00 0,00 6.236,75 692,56 735,87 0,00 1.428,43 4.808,32 352,00 103,56 28/02/2013
341 419900 CAMILA CUNNINGHAM PIMENTA DE PADUA ANALISTA DO MP ATIVO BELO HORIZONTE - COMARCA; ASSESSORIA PSICOSSOCIAL 6.379,14 382,75 0,00 0,00 2.253,96 0,00 9.015,85 756,52 1.484,23 0,00 2.240,75 6.775,10 352,00 166,19 28/02/2013
342 507700 CAMILA ELIZABETH RODRIGUES ANALISTA DO MP ATIVO BELO HORIZONTE - COMARCA; BH-02PJ FAMILIA 5.176,02 0,00 0,00 0,00 0,00 0,00 5.176,02 569,36 476,25 0,00 1.045,61 4.130,41 352,00 0,00 28/02/2013
343 372700 CAMILA FONSECA LIMONGE ANALISTA DO MP ATIVO BETIM - COMARCA; BETIM-PJ-01PJ 6.379,14 382,75 0,00 0,00 0,00 0,00 6.761,89 808,49 864,39 0,00 1.672,88 5.089,01 352,00 942,16 28/02/2013
344 409800 CAMILA GONCALVES COSTA RIBEIRO ANALISTA DO MP ATIVO INHAPIM - COMARCA; INHAPIM-PJ-02PJ 6.379,14 382,75 0,00 0,00 0,00 0,00 6.761,89 776,49 864,39 0,00 1.640,88 5.121,01 352,00 616,33 28/02/2013
345 335000 CAMILA GONTIJO DE PAIVA ANALISTA DO MP ATIVO BELO HORIZONTE - COMARCA; COORD DE CONTROLE DA CONSTITUCIONALIDADE 7.487,46 748,75 0,00 0,00 0,00 0,00 8.236,21 962,33 1.177,94 0,00 2.140,27 6.095,94 352,00 853,80 28/02/2013
346 430000 CANDIDA MARINA COSTA ANALISTA DO MP ATIVO BELO HORIZONTE - COMARCA; DIVISAO DE DOCUMENTACAO JURIDICA 5.883,73 353,02 0,00 0,00 0,00 0,00 6.236,75 715,47 735,87 0,00 1.451,34 4.785,41 352,00 445,64 28/02/2013
347 380400 CARINA DIAS FACANHA DE SOUZA ANALISTA DO MP ATIVO SANTA RITA DO SAPUCAÍ - COMARCA; SANTA RITA DO SAPUCAI-PJ-SECRETARIA 5.883,73 353,02 0,00 0,00 0,00 0,00 6.236,75 693,28 735,87 0,00 1.429,15 4.807,60 352,00 114,89 28/02/2013
348 255000 CARLA ADRIANA DE MENEZES ASSESSOR/OFICIAL ATIVO BELO HORIZONTE - COMARCA; CENT DE APOIO TEC-SETOR DEF,IDOSO E INFANC 0,00 1.176,75 5.883,73 0,00 0,00 0,00 7.060,48 764,59 957,04 0,00 1.721,63 5.338,85 3.567,68 1.210,66 28/02/2013
349 425100 CARLA ADRIANA DINIZ AMARAL OFICIAL DO MP ATIVO CONTAGEM - COMARCA; CONTAGEM-PJ-08PJ 4.136,15 248,17 0,00 0,00 0,00 0,00 4.384,32 550,04 433,26 0,00 983,30 3.401,02 352,00 830,34 28/02/2013
350 508100 CARLA ALESSANDRA FONSECA ANALISTA DO MP ATIVO BELO HORIZONTE - COMARCA; CAO-ORDEM ECONOMICA E TRIBUTARIA-SECRETARIA 5.176,02 0,00 0,00 0,00 0,00 0,00 5.176,02 569,36 476,25 0,00 1.045,61 4.130,41 2.312,34 179,70 28/02/2013
351 351500 CARLA APARECIDA MENDES RAMIRIO OFICIAL DO MP ATIVO PASSOS - COMARCA; PASSOS-PJ-07PJ 4.701,73 470,17 0,00 0,00 0,00 0,00 5.171,90 568,91 427,95 0,00 996,86 4.175,04 587,00 0,00 28/02/2013
352 206200 CARLA BORGES DA COSTA COORDENADOR/ANALISTA ATIVO BELO HORIZONTE - COMARCA; DIVIS DE PROJETOS DE ENGENHARIA E ARQUITETURA 12.062,58 6.527,27 0,00 0,00 0,00 0,00 18.589,85 2.246,40 3.811,08 0,00 6.057,48 12.532,37 352,00 4.775,31 28/02/2013
353 442800 CARLA GONCALVES COSTA SOALHEIRO ANALISTA DO MP ATIVO GOVERNADOR VALADARES - COMARCA; GOVERNADOR VALADARES-PJ-11PJ 5.883,73 353,02 0,00 0,00 0,00 0,00 6.236,75 715,18 735,87 0,00 1.451,05 4.785,70 587,00 396,27 28/02/2013
354 321500 CARLA GONCALVES MASSOTE OFICIAL DO MP ATIVO CAMPO BELO - COMARCA; CAMPO BELO-PJ-01PJ 5.344,58 534,46 0,00 0,00 1.959,68 0,00 7.838,72 653,28 1.187,23 0,00 1.840,51 5.998,21 352,00 104,80 28/02/2013
355 429200 CARLA HAUTEQUESTT BECHARA ANALISTA DO MP ATIVO BELO HORIZONTE - COMARCA; DIVISAO DE DOCUMENTACAO JURIDICA 5.883,73 353,02 0,00 0,00 0,00 0,00 6.236,75 733,24 735,87 0,00 1.469,11 4.767,64 3.567,68 1.059,35 28/02/2013
356 247500 CARLA MATILDE GUIMARAES DE OLIVEIRA OFICIAL DO MP ATIVO ITAJUBA - COMARCA; ITAJUBA-PJ-03PJ 5.176,02 1.035,20 0,00 0,00 0,00 0,00 6.211,22 715,58 729,62 0,00 1.445,20 4.766,02 352,00 609,84 28/02/2013
357 226100 CARLA MERLI DA CONCEICAO ANALISTA DO MP ATIVO BELO HORIZONTE - COMARCA; CENTRAL DE APOIO TECNICO-SETOR CONTABIL 10.315,17 2.063,03 0,00 0,00 0,00 0,00 12.378,20 1.660,57 2.191,69 0,00 3.852,26 8.525,94 4.509,44 4.169,73 28/02/2013
358 181401 CARLO MICHEL GAUDENSI COELHO ANALISTA DO MP ATIVO IBIRITÉ - COMARCA; IBIRITE-PJ-01PJ 6.379,14 1.275,83 0,00 0,00 2.551,66 0,00 10.206,63 981,68 2.027,18 0,00 3.008,86 7.197,77 352,00 2.009,96 28/02/2013
359 462800 CARLOS ANDREI SOARES FAGUNDES ANALISTA DO MP ATIVO MONTES CLAROS - COMARCA; MONTES CLAROS-PJ-09PJ 5.698,20 0,00 0,00 0,00 0,00 0,00 5.698,20 626,80 604,06 0,00 1.230,86 4.467,34 2.834,52 227,56 28/02/2013
360 370300 CARLOS AUGUSTO BUENO DIAS ASSESSOR ATIVO BELO HORIZONTE - COMARCA; DIRETORIA DE FISCALIZACAO DE OBRAS 0,00 0,00 7.487,46 0,00 0,00 0,00 7.487,46 457,49 524,95 0,00 982,44 6.505,02 3.810,63 1.818,10 28/02/2013
361 505100 CARLOS CEZAR CARVALHO ANALISTA DO MP ATIVO RIBEIRÃO DAS NEVES - COMARCA; RIBEIRAO DAS NEVES-PJ-10PJ 4.270,85 1.281,26 0,00 0,00 0,00 0,00 5.552,11 610,73 568,30 0,00 1.179,03 4.373,08 352,00 0,00 28/02/2013
362 195900 CARLOS DE SOUZA FERREIRA OFICIAL DO MP ATIVO COROMANDEL - COMARCA; COROMANDEL-PJ-UNPJ 6.177,98 3.088,99 0,00 0,00 0,00 0,00 9.266,97 1.168,98 1.382,93 0,00 2.551,91 6.715,06 352,00 2.043,39 28/02/2013
363 196800 CARLOS EDUARDO DE OLIVEIRA MARINHO OFICIAL DO MP ATIVO PASSOS - COMARCA; PASSOS-PJ-SECRETARIA 7.731,26 3.092,51 0,00 0,00 0,00 0,00 10.823,77 1.375,56 1.811,25 0,00 3.186,81 7.636,96 4.227,42 2.803,93 28/02/2013
364 491800 CARLOS EDUARDO ROMAN OFICIAL DO MP ATIVO BARBACENA - COMARCA; BARBACENA-PJ-01PJ 3.359,85 335,99 0,00 0,00 0,00 0,00 3.695,84 476,24 289,97 0,00 766,21 2.929,63 352,00 633,60 28/02/2013
365 299300 CARLOS HENRIQUE BICALHO ANALISTA DO MP ATIVO BELO HORIZONTE - COMARCA; BH-17PJ PATRIMONIO PUBLICO-SECRETARIA 8.788,36 2.636,51 0,00 0,00 0,00 0,00 11.424,87 1.578,43 2.220,75 0,00 3.799,18 7.625,69 352,00 3.427,10 28/02/2013
366 205100 CARLOS HENRIQUE ESTEVES OFICIAL DO MP ATIVO ITAMBACURI - COMARCA; ITAMBACURI-PJ-01PJ 7.731,26 1.546,25 0,00 0,00 0,00 0,00 9.277,51 1.225,41 1.480,09 0,00 2.705,50 6.572,01 352,00 2.345,29 28/02/2013
367 351600 CARLOS HENRIQUE FELICIO DA FONSECA OFICIAL DO MP ATIVO LIMA DUARTE - COMARCA; LIMA DUARTE-PJ-UNPJ 4.553,46 910,69 0,00 0,00 0,00 0,00 5.464,15 601,06 546,77 0,00 1.147,83 4.316,32 352,00 0,00 28/02/2013
368 85400 CARLOS JOSE VIEIRA OFICIAL DO MP ATIVO BELO HORIZONTE - COMARCA; DIRETORIA DO CONSELHO SUPERIOR DO MP 17.108,05 8.554,03 0,00 0,00 0,00 0,00 25.662,08 3.349,21 5.125,64 1.544,46 10.019,31 15.642,77 4.371,24 8.813,83 28/02/2013
369 229100 CARLOS MERCES DE OLIVEIRA ANALISTA DO MP ATIVO BELO HORIZONTE - COMARCA; CENTRAL DE APOIO TECN-SETOR DE MEIO AMBIENTE 10.315,17 2.063,03 0,00 0,00 0,00 0,00 12.378,20 1.672,43 1.502,20 0,00 3.174,63 9.203,57 352,00 3.412,17 28/02/2013
370 265100 CARLOS REIFF MIRANDA ANALISTA DO MP ATIVO BELO HORIZONTE - COMARCA; BH-19PJ SAUDE-SECRETARIA 150PJ 7.982,93 798,29 0,00 0,00 0,00 0,00 8.781,22 1.136,78 1.358,62 0,00 2.495,40 6.285,82 352,00 2.014,24 28/02/2013
371 305400 CARLOS ROCHA DE SOUZA OFICIAL DO MP ATIVO MONTALVÂNIA - COMARCA; MONTALVANIA-PJ-SECRETARIA 4.409,86 440,99 0,00 0,00 0,00 0,00 4.850,85 533,59 396,67 0,00 930,26 3.920,59 2.445,27 149,89 28/02/2013
372 349200 CARLOS WAGNER MELO FRANCO OFICIAL DO MP ATIVO PITANGUI - COMARCA; PITANGUI-PJ-01PJ 3.582,21 214,93 0,00 0,00 0,00 0,00 3.797,14 417,69 160,52 0,00 578,21 3.218,93 587,00 0,00 28/02/2013
373 365100 CARLOS WAGNER SANDER MORAIS ASSESSOR/OFICIAL ATIVO BELO HORIZONTE - COMARCA; DIRETORIA DE ADMINISTRACAO FINANCEIRA 0,00 748,75 7.487,46 0,00 0,00 0,00 8.236,21 634,51 1.609,60 0,00 2.244,11 5.992,10 3.567,68 3.157,71 28/02/2013
374 399900 CARMELITA EVANGELISTA DE SOUZA OFICIAL DO MP ATIVO JOÃO PINHEIRO - COMARCA; JOAO PINHEIRO-PJ-01PJ 3.469,26 208,16 0,00 0,00 1.225,81 0,00 4.903,23 404,52 446,57 0,00 851,09 4.052,14 352,00 0,00 28/02/2013
375 390400 CARMEM APARECIDA ANTUNES RESENDE OFICIAL DO MP ATIVO IGARAPÉ - COMARCA; IGARAPE-PJ-SECRETARIA 4.136,15 3.308,93 0,00 0,00 0,00 0,00 7.445,08 854,11 1.031,60 0,00 1.885,71 5.559,37 3.567,68 937,57 28/02/2013
376 202000 CARMEN LUCIA MARIZ DE MACEDO OFICIAL DO MP ATIVO BELO HORIZONTE - COMARCA; COORD COMB REPRES TRAFICO ILICITO ENTORPECEN 7.487,46 2.994,99 0,00 0,00 0,00 0,00 10.482,45 1.872,66 2.874,54 0,00 4.747,20 5.735,25 1.202,31 7.799,31 28/02/2013
377 228500 CAROLINA CHIARELLA DOS SANTOS RIBEIRO OFICIAL DO MP ATIVO BELO HORIZONTE - COMARCA; BH-13ª PJ JUÍXO DE TÓXICOS 4.409,86 881,97 0,00 0,00 0,00 0,00 5.291,83 582,10 457,30 0,00 1.039,40 4.252,43 822,00 0,00 28/02/2013
378 446500 CAROLINA COSTA VAL RODRIGUES ANALISTA DO MP ATIVO CONTAGEM - COMARCA; CONTAGEM-PJ-05PJ 5.883,73 588,37 0,00 0,00 0,00 0,00 6.472,10 718,40 793,47 0,00 1.511,87 4.960,23 3.567,68 397,70 28/02/2013
379 404300 CAROLINA DOS SANTOS VIEIRA ANALISTA DO MP ATIVO BELO HORIZONTE - COMARCA; BH-08PJ JUIZADO ESPECIAL-SECRETARIA 6.379,14 382,75 0,00 0,00 0,00 0,00 6.761,89 815,84 935,32 0,00 1.751,16 5.010,73 822,00 977,99 28/02/2013
380 382200 CAROLINA MENDES CHAVES LIN ANALISTA DO MP ATIVO BELO HORIZONTE - COMARCA; SUPERINTENDENCIA DE RECURSOS HUMANOS 5.344,58 320,67 0,00 0,00 0,00 0,00 5.665,25 623,18 595,99 0,00 1.219,17 4.446,08 0,00 0,00 28/02/2013
381 461900 CAROLINA MURTA TEIXEIRA DIAS ANALISTA DO MP ATIVO BELO HORIZONTE - COMARCA; DIRET DE FORMACAO, APERFEIC. E POS-GRADUACAO 5.698,20 0,00 0,00 0,00 0,00 0,00 5.698,20 626,80 604,06 0,00 1.230,86 4.467,34 555,24 18,63 28/02/2013
382 509600 CAROLINA PINTO DE OLIVEIRA SOUZA ANALISTA DO MP ATIVO MURIAÉ - COMARCA; MURIAE-PJ-03PJ 4.701,73 0,00 0,00 0,00 0,00 0,00 4.701,73 517,19 364,52 0,00 881,71 3.820,02 587,00 0,00 28/02/2013
383 502600 CAROLINA RODRIGUES RUBEN ANALISTA DO MP ATIVO BELO HORIZONTE - COMARCA; BH-18PJ VIOLENCIA DOMESTICA-SECRETARIA 4.701,73 0,00 0,00 0,00 0,00 0,00 4.701,73 517,19 364,52 0,00 881,71 3.820,02 352,00 0,00 28/02/2013
384 517600 CAROLINE ALVES DE OLIVEIRA MULLER ANALISTA DO MP ATIVO ERVÁLIA - COMARCA; ERVALIA-PJ-SECRETARIA 5.176,02 0,00 0,00 0,00 0,00 0,00 5.176,02 601,68 563,12 0,00 1.164,80 4.011,22 587,00 478,80 28/02/2013
385 373200 CAROLINE ANTUNES RIBEIRO OFICIAL DO MP ATIVO JACUI - COMARCA; JACUI-PJ-UNPJ 4.553,46 273,21 0,00 0,00 0,00 0,00 4.826,67 530,93 390,75 0,00 921,68 3.904,99 3.483,00 265,47 28/02/2013
386 497800 CAROLINE BATISTA MARTINS OFICIAL DO MP ATIVO RIBEIRÃO DAS NEVES - COMARCA; RIBEIRAO DAS NEVES-PJ-04PJ 3.359,85 0,00 0,00 0,00 0,00 0,00 3.359,85 369,58 127,94 0,00 497,52 2.862,33 352,00 0,00 28/02/2013
387 499400 CAROLINE MARQUES DE LOURDES MARZULLO OFICIAL DO MP ATIVO JUIZ DE FORA - COMARCA; JUIZ DE FORA-PJ-20PJ 3.051,96 0,00 0,00 0,00 0,00 0,00 3.051,96 335,72 86,84 0,00 422,56 2.629,40 352,00 0,00 28/02/2013
388 268800 CASSIA BEATRIZ TEIXEIRA OFICIAL DO MP ATIVO BELO HORIZONTE - COMARCA; COMB CRIMES PRAT POR AG POL MUN-SECRETARIA 5.883,73 588,37 0,00 0,00 0,00 0,00 6.472,10 771,99 793,47 0,00 1.565,46 4.906,64 352,00 892,29 28/02/2013
389 500000 CASSIA DE OLIVEIRA COSTA VIANA ANALISTA DO MP ATIVO SETE LAGOAS - COMARCA; SETE LAGOAS-PJ-01PJ 5.176,02 0,00 0,00 0,00 0,00 0,00 5.176,02 569,36 476,25 0,00 1.045,61 4.130,41 352,00 0,00 28/02/2013
390 368800 CASSIA LUISA BATISTA MENDONCA WEBER OFICIAL DO MP ATIVO BELO HORIZONTE - COMARCA; PROCON-MG-SEC DE EDUCACAO PARA O CONSUMO 3.879,42 387,94 0,00 0,00 0,00 0,00 4.267,36 469,41 277,54 0,00 746,95 3.520,41 587,00 0,00 28/02/2013
391 121000 CASSIO HENRIQUE AFONSO DA SILVA COORDENADOR/OFICIAL ATIVO BELO HORIZONTE - COMARCA; DIVISAO DE ATENDIMENTO E CONSULTA JURIDICA 8.788,36 6.716,17 0,00 0,00 0,00 0,00 15.504,53 1.909,30 2.979,81 0,00 4.889,11 10.615,42 4.037,68 5.440,00 28/02/2013
392 121100 CASSIO MOREIRA DE MIRANDA AGENTE DO MP ATIVO BELO HORIZONTE - COMARCA; PROCON-MG-SECRETARIA DE FISCALIZACOES 3.151,29 2.205,91 0,00 0,00 0,00 0,00 5.357,20 596,46 60,41 0,00 656,87 4.700,33 2.493,52 167,36 28/02/2013
393 512000 CATARINA NATALINO CALIXTO OFICIAL DO MP ATIVO BELO HORIZONTE - COMARCA; EXTINTA - DIVISÃO DE COMPRAS 2.772,23 0,00 0,00 0,00 0,00 0,00 2.772,23 304,95 56,74 0,00 361,69 2.410,54 352,00 0,00 28/02/2013
394 71800 CATIA EFIGENIA CARNEIRO DE FREITAS OFICIAL DO MP ATIVO BELO HORIZONTE - COMARCA; ASSESSORIA JURIDICO-ADMINISTRATIVA 18.850,65 13.799,78 0,00 0,00 0,00 0,00 32.650,43 2.652,94 4.827,50 9.396,13 16.876,57 15.773,86 352,00 0,00 28/02/2013
395 261300 CECILIO ANTONIO CAMPOS DOS REIS ANALISTA DO MP ATIVO BELO HORIZONTE - COMARCA; CENTRAL DE APOIO TECNICO-SETOR CONTABIL 9.074,45 1.814,89 0,00 0,00 0,00 0,00 10.889,34 1.417,10 1.874,59 0,00 3.291,69 7.597,65 352,00 2.773,60 28/02/2013
396 386400 CEFAS AMORELI DE FIGUEIREDO OFICIAL DO MP ATIVO CABO VERDE - COMARCA; CABO VERDE-PJ-SECRETARIA 3.469,26 208,16 0,00 0,00 1.225,81 0,00 4.903,23 404,52 446,57 0,00 851,09 4.052,14 352,00 0,00 28/02/2013
397 149000 CELIA MAGALHAES CLAROS SOSSI OFICIAL DO MP ATIVO GOVERNADOR VALADARES - COMARCA; GOVERNADOR VALADARES-PJ-01PJ 7.982,93 3.193,17 0,00 0,00 0,00 0,00 11.176,10 1.538,59 1.944,77 0,00 3.483,36 7.692,74 3.567,68 3.690,75 28/02/2013
398 113100 CELIA MARIA ALVES PINTO OFICIAL DO MP ATIVO BELO HORIZONTE - COMARCA; PROCON-MG-SEC DE EDUCACAO PARA O CONSUMO 5.883,73 4.118,61 0,00 0,00 0,00 0,00 10.002,34 1.203,39 1.657,49 0,00 2.860,88 7.141,46 3.567,68 1.710,87 28/02/2013
399 421000 CELINA BENEDITA DE SOUZA ALMEIDA OFICIAL DO MP ATIVO CAMBUÍ - COMARCA; CAMBUI-PJ-01PJ 4.136,15 1.654,47 0,00 0,00 1.930,21 0,00 7.720,83 636,97 1.110,19 0,00 1.747,16 5.973,67 352,00 0,00 28/02/2013
400 252900 CELIO DE MELO CASTOR ANALISTA DO MP ATIVO BELO HORIZONTE - COMARCA; BH-20PJ ORD ECON TRIBUTARIA-SECRETARIA 9.074,45 1.814,89 0,00 0,00 0,00 0,00 10.889,34 1.404,70 1.827,29 0,00 3.231,99 7.657,35 352,00 2.648,68 28/02/2013
401 395700 CELIO FERREIRA LIMA OFICIAL DO MP ATIVO CONTAGEM - COMARCA; CONTAGEM-PJ-07PJ 3.757,11 225,43 0,00 0,00 1.327,51 0,00 5.310,05 438,08 501,92 0,00 940,00 4.370,05 587,00 0,00 28/02/2013
402 281300 CELMA REGINA PEREIRA SANTOS ANALISTA DO MP ATIVO BELO HORIZONTE - COMARCA; DIVISAO DE ACERVOS BIBLIOGRAFICOS 8.788,36 878,84 0,00 0,00 0,00 0,00 9.667,20 1.272,99 1.575,47 0,00 2.848,46 6.818,74 811,75 2.452,47 28/02/2013
403 367000 CESAR NARVAES DE AVELAR OFICIAL DO MP ATIVO BELO HORIZONTE - COMARCA; DIVISAO DE MEMORIA INSTITUCIONAL 4.701,73 470,17 0,00 0,00 1.723,97 0,00 6.895,87 575,35 951,73 0,00 1.527,08 5.368,79 352,00 111,09 28/02/2013
404 226500 CESAR SILVEIRA BARROUIN OFICIAL DO MP ATIVO BELO HORIZONTE - COMARCA; DIRETORIA DE ADMINISTRACAO FINANCEIRA 6.177,98 1.853,39 0,00 0,00 0,00 0,00 8.031,37 955,32 1.175,10 0,00 2.130,42 5.900,95 352,00 1.008,60 28/02/2013
405 121400 CEZAR MORENO CONCEICAO TAVARES OFICIAL DO MP ATIVO BELO HORIZONTE - COMARCA; BH-15PJ M AMB 16PJ HAB URB-SECRETARIA 7.982,93 3.991,47 0,00 0,00 0,00 0,00 11.974,40 1.645,97 2.140,16 0,00 3.786,13 8.188,27 3.567,68 4.226,96 28/02/2013
406 243800 CHARLES MARTINS MUNIZ OFICIAL DO MP ATIVO BELO HORIZONTE - COMARCA; GAECO - SECRETARIA 5.176,02 1.035,20 0,00 0,00 0,00 0,00 6.211,22 712,11 729,62 0,00 1.441,73 4.769,49 3.347,54 723,81 28/02/2013
407 193500 CHARLIN CESAR KOURLY OFICIAL DO MP ATIVO ITUIUTABA - COMARCA; ITUIUTABA-PJ-SECRETARIA 7.731,26 1.546,25 0,00 0,00 0,00 0,00 9.277,51 1.020,53 1.480,09 0,00 2.500,62 6.776,89 352,00 0,00 28/02/2013
408 385500 CHILLEN PEIXOTO DE MOURA OFICIAL DO MP ATIVO RIBEIRÃO DAS NEVES - COMARCA; RIBEIRAO DAS NEVES-PJ-SEC CIVEL 3.469,26 208,16 0,00 0,00 0,00 0,00 3.677,42 404,52 170,34 0,00 574,86 3.102,56 352,00 0,00 28/02/2013
409 370600 CHRISTIAN KARINE FELIX PRATES ASSESSOR ATIVO BELO HORIZONTE - COMARCA; PROCURADOR-GERAL DE JUSTICA- GABINETE 0,00 0,00 5.883,73 0,00 0,00 0,00 5.883,73 457,49 701,64 0,00 1.159,13 4.724,60 587,00 0,00 28/02/2013
410 435800 CHRISTIANA BAHIA ANDRADE PINA ANALISTA DO MP ATIVO BELO HORIZONTE - COMARCA; CAO-ORDEM ECONOMICA E TRIBUTARIA 5.883,73 353,02 0,00 0,00 0,00 0,00 6.236,75 708,46 735,87 0,00 1.444,33 4.792,42 587,00 256,70 28/02/2013
411 516800 CHRISTIANE FERREIRA DO NASCIMENTO ANALISTA DO MP ATIVO ESTRELA DO SUL - COMARCA; ESTRELA DO SUL-PJ-UNPJ 4.270,85 0,00 0,00 0,00 0,00 0,00 4.270,85 493,99 322,30 0,00 816,29 3.454,56 352,00 350,22 28/02/2013
412 176000 CHRISTIANE JUNQUEIRA PULITI ANDRADE DE BARROS ASSESSOR ATIVO BELO HORIZONTE - COMARCA; GABINETE DO PROCURADOR-GERAL DE JUSTICA 0,00 4.837,47 9.674,93 0,00 0,00 0,00 14.512,40 2.036,35 2.714,04 0,00 4.750,39 9.762,01 3.567,68 5.495,22 28/02/2013
413 319200 CHRISTIANE MARIA DE ASSIS RUSSO OFICIAL DO MP ATIVO BELO HORIZONTE - COMARCA; CAO-ORDEM ECONOMICA E TRIBUTARIA-SECRETARIA 5.344,58 534,46 0,00 0,00 0,00 0,00 5.879,04 686,54 722,31 0,00 1.408,85 4.470,19 587,00 407,14 28/02/2013
414 510300 CHRISTIANE MARY DE CARVALHO FERREIRA ANALISTA DO MP ATIVO BELO HORIZONTE - COMARCA; DIRETORIA DE SISTEMAS DE INFORMACAO 4.136,15 0,00 0,00 0,00 0,00 0,00 4.136,15 454,98 251,26 0,00 706,24 3.429,91 587,00 0,00 28/02/2013
415 424900 CHRISTIANE PEREIRA TURNER DE ARAUJO OFICIAL DO MP ATIVO BELO HORIZONTE - COMARCA; CAO-PATRIMONIO PUBLICO 4.136,15 248,17 0,00 0,00 0,00 0,00 4.384,32 566,25 506,15 0,00 1.072,40 3.311,92 352,00 1.258,92 28/02/2013
416 513700 CHRISTIANE VIEIRA SOARES PEDERSOLI ANALISTA DO MP ATIVO BELO HORIZONTE - COMARCA; EXTINTA - SECRETARIA ADMINISTRATIVA 5.176,02 0,00 0,00 0,00 0,00 0,00 5.176,02 569,36 476,25 0,00 1.045,61 4.130,41 352,00 0,00 28/02/2013
417 412300 CHRYSTIAN MACHADO RIBEIRO ANALISTA DO MP ATIVO VARGINHA - COMARCA; VARGINHA-PJ-04PJ 6.379,14 382,75 0,00 0,00 0,00 0,00 6.761,89 773,58 864,39 0,00 1.637,97 5.123,92 3.567,68 856,07 28/02/2013
418 513800 CHRYSTIANE DO NASCIMENTO DE MAGALHAES OFICIAL DO MP ATIVO UBERLÂNDIA - COMARCA; UBERLANDIA-PJ-10PJ 2.772,23 0,00 0,00 0,00 0,00 0,00 2.772,23 304,95 56,74 0,00 361,69 2.410,54 587,00 0,00 28/02/2013
419 497900 CIBELE DE FREITAS SANCHES DIAS ANALISTA DO MP ATIVO SABARÁ - COMARCA; SABARA-PJ-03PJ 4.701,73 0,00 0,00 0,00 0,00 0,00 4.701,73 517,19 364,52 0,00 881,71 3.820,02 352,00 0,00 28/02/2013
420 500900 CIBELLE SILVA PRADO ALVARENGA ANALISTA DO MP ATIVO ITANHANDU - COMARCA; ITANHANDU-PJ-UNPJ 4.701,73 0,00 0,00 0,00 0,00 0,00 4.701,73 517,19 364,52 0,00 881,71 3.820,02 352,00 0,00 28/02/2013
421 296400 CINTIA APARECIDA MOREIRA NAVES E RODRIGUES ANALISTA DO MP ATIVO CAMPO BELO - COMARCA; CAMPO BELO-PJ-04PJ 8.788,36 878,84 0,00 0,00 0,00 0,00 9.667,20 1.239,22 1.575,47 0,00 2.814,69 6.852,51 3.658,13 2.360,72 28/02/2013
422 407900 CINTIA NETO COMELLI ANALISTA DO MP ATIVO BELO HORIZONTE - COMARCA; CENTRAL DE APOIO TECNICO-SETOR CONTABIL 6.379,14 382,75 0,00 0,00 0,00 0,00 6.761,89 751,04 864,39 0,00 1.615,43 5.146,46 352,00 114,72 28/02/2013
423 304700 CINTIA QUEIROZ OFICIAL DO MP ATIVO BELO HORIZONTE - COMARCA; BH-17PJ PATRIMONIO PUBLICO 5.344,58 534,46 0,00 0,00 0,00 0,00 5.879,04 653,90 648,32 0,00 1.302,22 4.576,82 352,00 114,50 28/02/2013
424 286100 CIRO CANGUSSU CORDEIRO OFICIAL DO MP ATIVO IPATINGA - COMARCA; IPATINGA-PJ-09PJ 4.409,86 440,99 0,00 0,00 0,00 0,00 4.850,85 533,59 396,67 0,00 930,26 3.920,59 352,00 0,00 28/02/2013
425 412500 CLARICE GOMES MAROTTA ANALISTA DO MP ATIVO BELO HORIZONTE - COMARCA; ASSESS TECNICO-JUR JUNTO AS PROC. DE JUST 6.379,14 1.275,83 0,00 0,00 0,00 0,00 7.654,97 901,48 1.082,97 0,00 1.984,45 5.670,52 3.567,68 1.172,25 28/02/2013
426 308100 CLARISSA DUARTE MARTINS DIRETOR/ANALISTA ATIVO BELO HORIZONTE - COMARCA; SUPERINTENDENCIA DE RECURSOS HUMANOS 0,00 1.254,01 12.540,10 0,00 0,00 0,00 13.794,11 1.368,84 2.710,37 0,00 4.079,21 9.714,90 3.567,68 5.072,48 28/02/2013
427 497100 CLARISSA ROCHA GUIDI ANALISTA DO MP ATIVO BELO HORIZONTE - COMARCA; EXTINTA - JUIZO DE FAMILIA-02 PJ-02 VARA 5.176,02 0,00 0,00 0,00 0,00 0,00 5.176,02 569,36 476,25 0,00 1.045,61 4.130,41 352,00 0,00 28/02/2013
428 463700 CLAUDIA ADRIANA FERRAO DIAS ANALISTA DO MP ATIVO SETE LAGOAS - COMARCA; SETE LAGOAS-PJ-06PJ 4.270,85 0,00 0,00 0,00 0,00 0,00 4.270,85 469,79 278,24 0,00 748,03 3.522,82 352,00 0,00 28/02/2013
429 415400 CLAUDIA ALMEIDA DE VASCONCELLOS BARROS ASSESSOR/OFICIAL ATIVO BELO HORIZONTE - COMARCA; DIRET DE PESSOAL DO MINISTERIO PUBLICO - DPMP 0,00 449,25 7.487,46 0,00 0,00 0,00 7.936,71 873,04 1.151,93 0,00 2.024,97 5.911,74 1.898,35 141,75 28/02/2013
430 389600 CLAUDIA ALVES PERDOMO ASSESSOR ATIVO BELO HORIZONTE - COMARCA; PROCON-MG-GAB DO COORDENADOR DO PROCON-MG 0,00 0,00 7.487,46 0,00 0,00 0,00 7.487,46 457,49 1.142,66 0,00 1.600,15 5.887,31 1.628,80 1.659,88 28/02/2013
431 207000 CLAUDIA APARECIDA VILELA MACHADO ANALISTA DO MP ATIVO BELO HORIZONTE - COMARCA; CENTRAL DE APOIO TECNICO-SETOR CONTABIL 11.161,27 3.348,38 0,00 0,00 0,00 0,00 14.509,65 1.910,55 2.618,78 0,00 4.529,33 9.980,32 4.701,78 4.757,29 28/02/2013
432 365700 CLAUDIA BREGUEZ CUNHA ANALISTA DO MP ATIVO VARGINHA - COMARCA; VARGINHA-PJ-07PJ 7.487,46 748,75 0,00 0,00 0,00 0,00 8.236,21 986,44 1.225,23 0,00 2.211,67 6.024,54 352,00 1.094,87 28/02/2013
433 430500 CLAUDIA CECILIA SANTANA VENCESLAU ASSESSOR/OFICIAL ATIVO BELO HORIZONTE - COMARCA; DIRET DE DESENV DE RECURSOS HUMANOS-DDRH 0,00 449,25 7.487,46 0,00 0,00 0,00 7.936,71 438,08 1.271,54 0,00 1.709,62 6.227,09 352,00 0,00 28/02/2013
434 112400 CLAUDIA CRISTINA FIUZA DE AVELAR AGENTE DO MP ATIVO BELO HORIZONTE - COMARCA; SERVICO MEDICO-DEPTO PERIC MEDICA SAUDE OCUP 5.176,02 2.070,40 0,00 0,00 2.415,47 0,00 9.661,89 842,58 1.647,23 0,00 2.489,81 7.172,08 352,00 745,54 28/02/2013
435 149400 CLAUDIA DINIZ OFICIAL DO MP ATIVO BELO HORIZONTE - COMARCA; BH-09PJ AUDITORIA MILITAR-SECRETARIA 9.989,93 4.994,97 0,00 0,00 0,00 0,00 14.984,90 2.014,99 2.687,81 0,00 4.702,80 10.282,10 450,94 4.369,76 28/02/2013
436 480400 CLAUDIA GOULART DE SOUZA OFICIAL DO MP ATIVO PASSOS - COMARCA; PASSOS-PJ-06PJ 3.359,85 0,00 0,00 0,00 0,00 0,00 3.359,85 423,77 217,55 0,00 641,32 2.718,53 659,89 795,37 28/02/2013
437 519800 CLAUDIA HELENA CORREA DE ALMEIDA ANALISTA DO MP ATIVO BELO HORIZONTE - COMARCA; BH-12PJ JUIZO CRIMINAL-GAB 090PJ 4.553,46 0,00 0,00 0,00 0,00 0,00 4.553,46 500,88 334,83 0,00 835,71 3.717,75 352,00 0,00 28/02/2013
438 422100 CLAUDIA IACOMINI CABRAL ANALISTA DO MP ATIVO BELO HORIZONTE - COMARCA; CENT DE APOIO TEC-SETOR DEF,IDOSO E INFANC 6.379,14 2.551,65 0,00 0,00 0,00 0,00 8.930,79 1.088,10 1.395,23 0,00 2.483,33 6.447,46 3.567,68 1.873,09 28/02/2013
439 258200 CLAUDIA LAGE MICHALAROS ANALISTA DO MP ATIVO BELO HORIZONTE - COMARCA; CENTRAL DE APOIO TECN-SETOR DE MEIO AMBIENTE 9.369,85 4.684,93 0,00 0,00 0,00 0,00 14.054,78 1.925,32 2.649,33 0,00 4.574,65 9.480,13 352,00 4.487,01 28/02/2013
440 284600 CLAUDIA LENI DE ABREU OFICIAL DO MP ATIVO CONTAGEM - COMARCA; CONTAGEM-PJ-22PJ 4.409,86 1.322,96 0,00 0,00 0,00 0,00 5.732,82 659,06 612,53 0,00 1.271,59 4.461,23 2.869,14 553,21 28/02/2013
441 433600 CLAUDIA LUIZA SANTIAGO FELICIO ANALISTA DO MP ATIVO BELO HORIZONTE - COMARCA; CAO-SAUDE-TECNICO JURIDICO 5.883,73 353,02 0,00 0,00 0,00 0,00 6.236,75 692,64 688,57 0,00 1.381,21 4.855,54 822,00 104,85 28/02/2013
442 317000 CLAUDIA MACHADO ALVES OFICIAL DO MP ATIVO BELO HORIZONTE - COMARCA; ASSESS ESPECIAL DO PGJ ATUACAO JUNTO A PGJAI 4.409,86 440,99 0,00 0,00 0,00 0,00 4.850,85 561,04 366,95 0,00 927,99 3.922,86 3.567,68 490,66 28/02/2013
443 155300 CLAUDIA MACIEL MIRANDA OFICIAL DO MP ATIVO CONGONHAS - COMARCA; CONGONHAS-PJ-SECRETARIA 7.982,93 2.394,88 0,00 0,00 0,00 0,00 10.377,81 1.389,96 1.654,81 0,00 3.044,77 7.333,04 822,00 2.783,70 28/02/2013
444 242200 CLAUDIA MICHELLE DIAS MUNIZ BALEEIRO OFICIAL DO MP ATIVO MONTE AZUL - COMARCA; MONTE AZUL-PJ-SECRETARIA 5.698,20 1.709,46 0,00 0,00 0,00 0,00 7.407,66 899,54 927,86 0,00 1.827,40 5.580,26 587,00 1.138,87 28/02/2013
445 418400 CLAUDIA REGINA MARTINS BONIFACIO OFICIAL DO MP ATIVO CAPINÓPOLIS - COMARCA; CAPINOPOLIS-PJ-UNPJ 3.469,26 208,16 0,00 0,00 0,00 0,00 3.677,42 404,52 170,34 0,00 574,86 3.102,56 352,00 0,00 28/02/2013
446 240501 CLAUDIA RENATA SOARES ALVES ANALISTA DO MP ATIVO CONTAGEM - COMARCA; CONTAGEM-PJ-20PJ 5.698,20 1.139,64 0,00 0,00 0,00 0,00 6.837,84 828,73 835,69 0,00 1.664,42 5.173,42 352,00 1.068,46 28/02/2013
447 498300 CLAUDIA SOUTO FARIAS BRAUN OFICIAL DO MP ATIVO TEÓFILO OTONI - COMARCA; TEOFILO OTONI-PJ-02PJ 2.772,23 0,00 0,00 0,00 0,00 0,00 2.772,23 304,95 30,94 0,00 335,89 2.436,34 822,00 0,00 28/02/2013
448 206500 CLAUDIA VALERIA FONSECA ANDRADE ANALISTA DO MP ATIVO BELO HORIZONTE - COMARCA; BH-23PJ INF-FISC MED SOC FEC 11.161,27 4.464,51 0,00 0,00 0,00 0,00 15.625,78 2.104,77 2.986,54 0,00 5.091,31 10.534,47 3.688,82 4.900,55 28/02/2013
449 277500 CLAUDIO ANTONIO BORGES ALVARES ASSESSOR/OFICIAL ATIVO BELO HORIZONTE - COMARCA; COORD REG BACIAS RIO VELHAS E PARAOPEBA 0,00 588,37 5.883,73 0,00 0,00 0,00 6.472,10 714,89 805,62 0,00 1.520,51 4.951,59 352,00 778,43 28/02/2013
450 444800 CLAUDIO ARESIO DO CARMO ANALISTA DO MP ATIVO SETE LAGOAS - COMARCA; SETE LAGOAS-PJ-09PJ 5.883,73 1.176,75 0,00 0,00 0,00 0,00 7.060,48 958,59 1.233,77 0,00 2.192,36 4.868,12 3.567,68 2.276,86 28/02/2013
451 353500 CLAUDIO HENRIQUE PEDRO DA ROCHA OFICIAL DO MP ATIVO BELO HORIZONTE - COMARCA; DIVISAO DE ATENDIMENTO E CONSULTA JURIDICA 4.553,46 455,35 0,00 0,00 0,00 0,00 5.008,81 550,97 348,63 0,00 899,60 4.109,21 2.145,13 134,48 28/02/2013
452 265800 CLAUDIO KUPIDLOWSKY FERNANDES OFICIAL DO MP ATIVO BELO HORIZONTE - COMARCA; EXTINTA - SECRETARIA ADMINISTRATIVA 5.518,54 1.103,71 0,00 0,00 0,00 0,00 6.622,25 756,55 162,98 0,00 919,53 5.702,72 3.802,68 482,66 28/02/2013
453 193600 CLAUDIO LEITE FONTES OFICIAL DO MP ATIVO ITUIUTABA - COMARCA; ITUIUTABA-PJ-02PJ 4.701,73 1.410,52 0,00 0,00 0,00 0,00 6.112,25 703,77 518,94 0,00 1.222,71 4.889,54 587,00 611,79 28/02/2013
454 329400 CLAUDIO MARCIO BERNARDES OFICIAL DO MP ATIVO ITAÚNA - COMARCA; ITAUNA-PJ-04PJ 5.344,58 2.137,83 0,00 0,00 0,00 0,00 7.482,41 870,48 1.040,74 0,00 1.911,22 5.571,19 3.603,68 1.056,69 28/02/2013
455 270200 CLAUDIO RABELO ALVES OFICIAL DO MP ATIVO FORMIGA - COMARCA; FORMIGA-PJ-SECRETARIA 5.883,73 1.176,75 0,00 0,00 0,00 0,00 7.060,48 801,34 748,31 0,00 1.549,65 5.510,83 3.567,68 572,63 28/02/2013
456 264700 CLAUDIO ROBERTO KFURI DE ARAUJO ANALISTA DO MP ATIVO BELO HORIZONTE - COMARCA; CENTRAL DE APOIO TECNICO-SETOR DE INFORMATICA 9.074,45 907,45 0,00 0,00 0,00 0,00 9.981,90 1.321,02 1.557,91 0,00 2.878,93 7.102,97 587,00 2.817,97 28/02/2013
457 188600 CLAUDIO SALES OFICIAL DO MP ATIVO NEPOMUCENO - COMARCA; NEPOMUCENO-PJ-SECRETARIA 7.487,46 3.743,73 0,00 0,00 0,00 0,00 11.231,19 1.332,64 1.863,67 0,00 3.196,31 8.034,88 2.527,29 1.465,64 28/02/2013
458 160700 CLAUDIO VICENTE HESS ASSESSOR ATIVO BELO HORIZONTE - COMARCA; EXTINTA - DIRETORIA DE COMPRAS E LICITAÇÕES 0,00 2.472,85 8.242,82 0,00 0,00 0,00 10.715,67 457,49 1.888,54 0,00 2.346,03 8.369,64 1.072,54 3.998,29 28/02/2013
459 312900 CLAUDIO VIEIRA FIRPE ASSESSOR/OFICIAL ATIVO BELO HORIZONTE - COMARCA; DIRETORIA DE RELACOES PUBLICAS E CERIMONIAL 0,00 588,37 5.883,73 0,00 0,00 0,00 6.472,10 624,91 832,80 0,00 1.457,71 5.014,39 352,00 915,89 28/02/2013
460 459200 CLEIA ZILLE PEREIRA ANALISTA DO MP ATIVO BELO HORIZONTE - COMARCA; ASSESS TECNICO-JUR JUNTO AS PROC. DE JUST 5.698,20 0,00 0,00 0,00 0,00 0,00 5.698,20 633,39 604,06 0,00 1.237,45 4.460,75 822,00 104,59 28/02/2013
461 461300 CLEIDE ALVES DA SILVA OFICIAL DO MP ATIVO BOA ESPERANÇA - COMARCA; BOA ESPERANCA-PJ-01PJ 3.698,79 0,00 0,00 0,00 0,00 0,00 3.698,79 406,87 173,19 0,00 580,06 3.118,73 352,00 0,00 28/02/2013
462 481800 CLEIDE CARDOSO DA SILVA ANALISTA DO MP ATIVO GOVERNADOR VALADARES - COMARCA; GOVERNADOR VALADARES-PJ-15PJ 5.176,02 0,00 0,00 0,00 0,00 0,00 5.176,02 575,81 476,25 0,00 1.052,06 4.123,96 822,00 102,58 28/02/2013
463 347600 CLEIDIMAR DE OLIVEIRA SILVA OFICIAL DO MP ATIVO JOÃO PINHEIRO - COMARCA; JOAO PINHEIRO-PJ-02PJ 3.879,42 775,88 0,00 0,00 0,00 0,00 4.655,30 512,08 200,45 0,00 712,53 3.942,77 3.567,68 241,18 28/02/2013
464 396500 CLEIDISON BATISTA DE ANDRADE OFICIAL DO MP ATIVO RESPLENDOR - COMARCA; RESPLENDOR-PJ-UNPJ 3.469,26 208,16 0,00 0,00 0,00 0,00 3.677,42 404,52 170,34 0,00 574,86 3.102,56 352,00 0,00 28/02/2013
465 298100 CLEONICE AUGUSTA BARROS DE OLIVEIRA ANALISTA DO MP ATIVO JUIZ DE FORA - COMARCA; JUIZ DE FORA-PJ-18PJ 8.788,36 878,84 0,00 0,00 0,00 0,00 9.667,20 1.221,96 1.575,47 0,00 2.797,43 6.869,77 352,00 1.881,50 28/02/2013
466 60200 CLERES DE ALMEIDA AGENTE DO MP ATIVO BELO HORIZONTE - COMARCA; EXTINTA - DIVISAO DE TRANSPORTES 4.136,15 2.895,32 0,00 0,00 0,00 0,00 7.031,47 945,76 788,50 0,00 1.734,26 5.297,21 3.567,68 2.526,96 28/02/2013
467 114300 CLERES PEREIRA DA SILVA JUNIOR ASSESSOR ATIVO BELO HORIZONTE - COMARCA; GAECO - SECRETARIA 0,00 1.479,52 3.698,79 0,00 0,00 0,00 5.178,31 457,49 413,06 0,00 870,55 4.307,76 2.314,63 179,91 28/02/2013
468 264100 CLETO HENRIQUE ANDRADE SILVA ANALISTA DO MP ATIVO BELO HORIZONTE - COMARCA; DIRETORIA DE SISTEMAS DE INFORMACAO 9.074,45 907,45 0,00 0,00 0,00 0,00 9.981,90 1.306,48 1.510,61 0,00 2.817,09 7.164,81 587,00 2.645,16 28/02/2013
469 334400 CLEUBA DE OLIVEIRA BARCELOS GONCALVES OFICIAL DO MP ATIVO DIVINÓPOLIS - COMARCA; DIVINOPOLIS-PJ-07PJ 5.344,58 534,46 0,00 0,00 0,00 0,00 5.879,04 653,68 601,02 0,00 1.254,70 4.624,34 3.567,68 405,64 28/02/2013
470 347500 CLEUSA CORDEIRO DA MATA PIMENTA OFICIAL DO MP ATIVO CAMPO BELO - COMARCA; CAMPO BELO-PJ-04PJ 4.854,78 2.427,39 0,00 0,00 0,00 0,00 7.282,17 901,55 897,15 0,00 1.798,70 5.483,47 3.725,82 1.634,10 28/02/2013
471 510200 CLEZIO SALES SILVA OFICIAL DO MP ATIVO BRASÓPOLIS - COMARCA; BRASOPOLIS-PJ-UNPJ 2.772,23 0,00 0,00 0,00 0,00 0,00 2.772,23 304,95 56,74 0,00 361,69 2.410,54 352,00 0,00 28/02/2013
472 323000 CLOTILDE DE PADUA VIEIRA OFICIAL DO MP ATIVO BELO HORIZONTE - COMARCA; BH-15PJ M AMB 16PJ HAB URB-SECRETARIA 3.757,11 375,71 0,00 0,00 0,00 0,00 4.132,82 454,61 250,60 0,00 705,21 3.427,61 352,00 0,00 28/02/2013
473 285200 CLOVIS ANDRE LUDTKE OFICIAL DO MP ATIVO BELO HORIZONTE - COMARCA; DIRETORIA DE MANUTENCAO PREDIAL 5.344,58 534,46 0,00 0,00 0,00 0,00 5.879,04 987,46 1.264,98 0,00 2.252,44 3.626,60 3.015,36 3.689,62 28/02/2013
474 381100 CONCEICAO APARECIDA TEIXEIRA ANALISTA DO MP ATIVO BELO HORIZONTE - COMARCA; BH-23PJ INFRACIONAL-ASS JURIDICA 5.883,73 353,02 0,00 0,00 0,00 0,00 6.236,75 693,18 735,87 0,00 1.429,05 4.807,70 352,00 113,27 28/02/2013
475 249900 CONSTANTINO CEZAR GOMES MOTA OFICIAL DO MP ATIVO MONTES CLAROS - COMARCA; COORD REG BACIA RIOS VERDE GRANDE E PARDO 4.409,86 881,97 0,00 0,00 0,00 0,00 5.291,83 582,10 504,60 0,00 1.086,70 4.205,13 2.428,15 190,31 28/02/2013
476 481000 CRISHMA ANALIA LOMBELLO ANALISTA DO MP ATIVO JUIZ DE FORA - COMARCA; JUIZ DE FORA-PJ-13PJ 5.698,20 0,00 0,00 0,00 0,00 0,00 5.698,20 714,88 752,73 0,00 1.467,61 4.230,59 352,00 1.079,18 28/02/2013
477 187500 CRISLEY PATRICK TOSTES OFICIAL DO MP ATIVO JUIZ DE FORA - COMARCA; JUIZ DE FORA-PJ-21PJ 7.731,26 1.546,25 0,00 0,00 0,00 0,00 9.277,51 1.218,09 1.480,09 0,00 2.698,18 6.579,33 352,00 2.536,16 28/02/2013
478 523900 CRISTHYANE BAZOLI COSTA GUEDES OFICIAL DO MP ATIVO BELO HORIZONTE - COMARCA; TRIBUNAL DO JURI-07 PJ-01 TRIBUNAL 2.684,83 0,00 0,00 0,00 0,00 0,00 2.684,83 295,33 50,90 0,00 346,23 2.338,60 352,00 0,00 28/02/2013
479 187000 CRISTIAN DAYVSON EVANGELISTA OFICIAL DO MP ATIVO JUIZ DE FORA - COMARCA; JUIZ DE FORA-PJ-09PJ 7.487,46 1.497,49 0,00 0,00 0,00 0,00 8.984,95 1.069,83 1.361,20 0,00 2.431,03 6.553,92 352,00 1.101,51 28/02/2013
480 319800 CRISTIANA GONCALVES DOS SANTOS OFICIAL DO MP ATIVO BELO HORIZONTE - COMARCA; BH-14PJ DEFESA CONSUMIDOR-SECRETARIA 4.854,78 485,48 0,00 0,00 0,00 0,00 5.340,26 617,64 583,68 0,00 1.201,32 4.138,94 352,00 274,68 28/02/2013
481 520600 CRISTIANA JANAINA BARBOZA JUVENCIO DOS SANTOS ANALISTA DO MP ATIVO BELO HORIZONTE - COMARCA; EXTINTA - JUIZO DE FAMILIA-02 PJ-02 VARA 5.012,79 0,00 0,00 0,00 0,00 0,00 5.012,79 551,41 436,30 0,00 987,71 4.025,08 352,00 0,00 28/02/2013
482 195600 CRISTIANA SOARES HALABI OFICIAL DO MP ATIVO UBERABA - COMARCA; UBERABA-PJ-11PJ 6.801,32 1.360,26 0,00 0,00 0,00 0,00 8.161,58 1.004,11 1.206,97 0,00 2.211,08 5.950,50 618,19 1.395,02 28/02/2013
483 218900 CRISTIANE ALVES BELLES OFICIAL DO MP ATIVO JUIZ DE FORA - COMARCA; JUIZ DE FORA-PJ-10PJ 4.409,86 881,97 0,00 0,00 0,00 0,00 5.291,83 589,14 366,61 0,00 955,75 4.336,08 2.428,15 267,42 28/02/2013
484 263600 CRISTIANE CARVALHO COUTINHO OFICIAL DO MP ATIVO BELO HORIZONTE - COMARCA; BH-23PJ INFRACIONAL-SEC EXP 5.344,58 1.068,92 0,00 0,00 0,00 0,00 6.413,50 734,22 731,83 0,00 1.466,05 4.947,45 587,00 384,88 28/02/2013
485 441700 CRISTIANE CORRADO DE ANDRADE ANALISTA DO MP ATIVO BELO HORIZONTE - COMARCA; DIRETORIA DE SISTEMAS DE INFORMACAO 5.883,73 353,02 0,00 0,00 0,00 0,00 6.236,75 700,09 735,87 0,00 1.435,96 4.800,79 587,00 178,71 28/02/2013
486 375100 CRISTIANE DAS DORES ERCIO DE LIMA OFICIAL DO MP ATIVO GOVERNADOR VALADARES - COMARCA; GOVERNADOR VALADARES-PJ-15PJ 3.757,11 225,43 0,00 0,00 0,00 0,00 3.982,54 438,08 220,50 0,00 658,58 3.323,96 3.567,68 241,18 28/02/2013
487 178800 CRISTIANE DE LIMA HOSKEN OFICIAL DO MP ATIVO BELO HORIZONTE - COMARCA; COORD ESTADUAL DE DEFESA DA EDUCACAO 7.731,26 1.546,25 0,00 0,00 0,00 0,00 9.277,51 1.158,98 1.338,21 0,00 2.497,19 6.780,32 3.567,68 2.219,26 28/02/2013
488 494000 CRISTIANE DE MELO MARQUEZ OLIVEIRA ANALISTA DO MP ATIVO UBERLÂNDIA - COMARCA; UBERLANDIA-PJ-06PJ 5.176,02 0,00 0,00 0,00 0,00 0,00 5.176,02 569,36 476,25 0,00 1.045,61 4.130,41 3.457,61 284,68 28/02/2013
489 266100 CRISTIANE DE OLIVEIRA CASTRO OFICIAL DO MP ATIVO BELO HORIZONTE - COMARCA; PROCON-MG-SECRETARIA DE FISCALIZACOES 5.698,20 1.139,64 0,00 0,00 2.279,28 0,00 9.117,12 804,13 1.509,78 0,00 2.313,91 6.803,21 587,00 810,62 28/02/2013
490 329500 CRISTIANE DOS REIS SILVA OFICIAL DO MP ATIVO ARAXÁ - COMARCA; ARAXA-PJ-04PJ 4.005,77 400,58 0,00 0,00 0,00 0,00 4.406,35 484,70 227,98 0,00 712,68 3.693,67 587,00 0,00 28/02/2013
491 301600 CRISTIANE GODINHO PIRES ANALISTA DO MP ATIVO BETIM - COMARCA; BETIM-PJ-07PJ 8.511,21 851,12 0,00 0,00 0,00 0,00 9.362,33 1.136,32 1.500,85 0,00 2.637,17 6.725,16 3.567,68 1.865,56 28/02/2013
492 406100 CRISTIANE GONCALVES CHAVES ANALISTA DO MP ATIVO BELO HORIZONTE - COMARCA; ASSESS TECNICO-JUR JUNTO AS PROC. DE JUST 6.379,14 1.275,83 0,00 0,00 0,00 0,00 7.654,97 907,30 1.082,97 0,00 1.990,27 5.664,70 3.567,68 1.244,44 28/02/2013
493 487600 CRISTIANE LOPES DE OLIVEIRA OFICIAL DO MP ATIVO IBIRACI - COMARCA; IBIRACI-PJ-SECRETARIA 3.051,96 0,00 0,00 0,00 1.017,32 0,00 4.069,28 335,72 224,36 0,00 560,08 3.509,20 352,00 0,00 28/02/2013
494 502500 CRISTIANE MACIEL DE OLIVEIRA GOMES ANALISTA DO MP ATIVO JUIZ DE FORA - COMARCA; JUIZ DE FORA-PJ-04PJ 5.176,02 0,00 0,00 0,00 0,00 0,00 5.176,02 569,36 476,25 0,00 1.045,61 4.130,41 352,00 0,00 28/02/2013
495 285500 CRISTIANE MAGALHAES LOURENCO ANALISTA DO MP ATIVO BELO HORIZONTE - COMARCA; CENTRAL DE APOIO TECNICO-SETOR CONTABIL 8.788,36 878,84 0,00 0,00 0,00 0,00 9.667,20 1.241,68 1.480,88 0,00 2.722,56 6.944,64 3.567,68 2.373,92 28/02/2013
496 346600 CRISTIANE NOGUEIRA ANDRADE ANALISTA DO MP ATIVO BELO HORIZONTE - COMARCA; CENTRAL DE APOIO TECNICO-SETOR CONTABIL 7.731,26 773,13 0,00 0,00 0,00 0,00 8.504,39 1.096,51 1.290,87 0,00 2.387,38 6.117,01 822,00 1.942,22 28/02/2013
497 234000 CRISTIANE OLIVEIRA TOSTES OFICIAL DO MP ATIVO JUIZ DE FORA - COMARCA; JUIZ DE FORA-PJ-19PJ 6.177,98 1.235,60 0,00 0,00 0,00 0,00 7.413,58 914,41 1.023,89 0,00 1.938,30 5.475,28 3.567,68 1.571,60 28/02/2013
498 445800 CRISTIANE ORZIL COSTA OFICIAL DO MP ATIVO SANTA LUZIA - COMARCA; SANTA LUZIA-PJ-05PJ 3.151,29 189,08 0,00 0,00 0,00 0,00 3.340,37 367,44 125,34 0,00 492,78 2.847,59 352,00 0,00 28/02/2013
499 215000 CRISTIANE RODRIGUES DE CARVALHO ASSESSOR ATIVO BELO HORIZONTE - COMARCA; BH-14PJ DEFESA CONSUMIDOR-SECRETARIA 0,00 739,76 3.698,79 0,00 0,00 0,00 4.438,55 457,49 318,74 0,00 776,23 3.662,32 352,00 0,00 28/02/2013
500 257700 CRISTIANE RODRIGUES PAES NUNES ANALISTA DO MP ATIVO BELO HORIZONTE - COMARCA; BH-22PJ PES COM DEF E IDOSOS-ORIENTACAO PSIC 8.788,36 1.757,67 0,00 0,00 0,00 0,00 10.546,03 1.520,03 2.210,90 0,00 3.730,93 6.815,10 3.567,68 4.020,36 28/02/2013
501 510800 CRISTIANE SANTOS FERNANDES ORNELES ANALISTA DO MP ATIVO BELO HORIZONTE - COMARCA; COORD ESTADUAL DAS PJS DE HAB. E URBANISMO 4.270,85 0,00 0,00 0,00 0,00 0,00 4.270,85 469,79 278,24 0,00 748,03 3.522,82 352,00 0,00 28/02/2013
502 477400 CRISTIANO SOARES ELEUTERIO ANALISTA DO MP ATIVO BELO HORIZONTE - COMARCA; BH-17PJ PATRIMONIO PUBLICO 5.176,02 0,00 0,00 0,00 0,00 0,00 5.176,02 569,36 476,25 0,00 1.045,61 4.130,41 352,00 0,00 28/02/2013
503 449400 CRISTIANO TEIXEIRA RODRIGUES LANA ANALISTA DO MP ATIVO BELO HORIZONTE - COMARCA; ASSESS TECNICO-JUR JUNTO AS PROC. DE JUST 5.698,20 0,00 0,00 0,00 0,00 0,00 5.698,20 626,80 604,06 0,00 1.230,86 4.467,34 352,00 0,00 28/02/2013
504 239400 CRISTINA DE FATIMA CRUZ E SILVA OFICIAL DO MP ATIVO MONTE SANTO DE MINAS - COMARCA; MONTE SANTO DE MINAS-PJ-SECRETARIA 5.344,58 1.068,92 0,00 0,00 0,00 0,00 6.413,50 856,17 1.048,25 0,00 1.904,42 4.509,08 352,00 1.578,06 28/02/2013
505 356800 CRISTINA DE PINHO BARROSO OFICIAL DO MP ATIVO SABINÓPOLIS - COMARCA; SABINOPOLIS-PJ-UNPJ 3.879,42 775,88 0,00 0,00 0,00 0,00 4.655,30 512,08 355,22 0,00 867,30 3.788,00 352,00 0,00 28/02/2013
506 449100 CRISTINA KISTEMANN CHIODI ASSESSOR ATIVO BELO HORIZONTE - COMARCA; CAO-MEIO AMBIENTE-SECRETARIA 0,00 0,00 7.487,46 0,00 0,00 0,00 7.487,46 457,49 1.142,66 0,00 1.600,15 5.887,31 352,00 1.549,29 28/02/2013
507 348201 CRISTINA MARIA DA SILVA ANALISTA DO MP ATIVO JOÃO PINHEIRO - COMARCA; JOAO PINHEIRO-PJ-01PJ 5.518,54 331,11 0,00 0,00 0,00 0,00 5.849,65 1.043,88 803,20 0,00 1.847,08 4.002,57 352,00 3.971,26 28/02/2013
508 434900 CRISTINA MELO DE MADUREIRA ANALISTA DO MP ATIVO BELO HORIZONTE - COMARCA; CAO-CRIMINAL-SECRETARIA 5.883,73 353,02 0,00 0,00 0,00 0,00 6.236,75 715,63 735,87 0,00 1.451,50 4.785,25 587,00 492,34 28/02/2013
509 117100 CRISTINA PEDROSA GARABINI COORDENADOR/ANALISTA ATIVO BELO HORIZONTE - COMARCA; DIRET DE INFORMACAO E CONHECIMENTO-DINC/CEAF 16.456,57 10.550,27 0,00 0,00 0,00 0,00 27.006,84 3.064,60 5.017,62 5.055,89 13.138,11 13.868,73 4.102,15 7.646,29 28/02/2013
510 307700 CRISTINA TEIXEIRA MARQUES OFICIAL DO MP ATIVO BELO HORIZONTE - COMARCA; BH-14PJ DEFESA CONSUMIDOR-SECRETARIA 4.553,46 455,35 0,00 0,00 0,00 0,00 5.008,81 550,97 388,03 0,00 939,00 4.069,81 2.145,13 164,37 28/02/2013
511 265300 CRISTOVAO SANCHES DE MEDEIROS ANALISTA DO MP ATIVO BELO HORIZONTE - COMARCA; BH-02PJ FAMILIA-SECRETARIA 7.982,93 798,29 0,00 0,00 0,00 0,00 8.781,22 1.130,59 1.264,04 0,00 2.394,63 6.386,59 352,00 2.201,67 28/02/2013
512 349800 CROZEIR LUIZ DA SILVA OFICIAL DO MP ATIVO UNAÍ - COMARCA; UNAI-PJ-SECRETARIA 3.879,42 387,94 0,00 0,00 0,00 0,00 4.267,36 469,41 200,15 0,00 669,56 3.597,80 3.567,68 241,18 28/02/2013
513 490500 CYNTHIA CRISTINA DE SOUZA OLIVEIRA VALENTE ANALISTA DO MP ATIVO BELO HORIZONTE - COMARCA; BH-09PJ AUDITORIA MILITAR 4.701,73 0,00 0,00 0,00 0,00 0,00 4.701,73 517,19 364,52 0,00 881,71 3.820,02 822,00 0,00 28/02/2013
514 389800 CYNTHIA GARIGLIO DOS SANTOS OFICIAL DO MP ATIVO PERDIZES - COMARCA; PERDIZES-PJ-SECRETARIA 3.469,26 208,16 0,00 0,00 0,00 0,00 3.677,42 404,52 118,74 0,00 523,26 3.154,16 587,00 0,00 28/02/2013
515 335101 CYNTHIA GONTIJO D ASSUNCAO ANALISTA DO MP ATIVO BELO HORIZONTE - COMARCA; CAO-CRIANCAS E ADOLESCENTES 5.698,20 0,00 0,00 0,00 0,00 0,00 5.698,20 633,26 604,06 0,00 1.237,32 4.460,88 352,00 102,66 28/02/2013
516 154000 CYNTHIA LOPES DOS SANTOS LAGES ASSESSOR ATIVO BELO HORIZONTE - COMARCA; PROCURADOR-GERAL DE JUSTICA- GABINETE 0,00 3.869,97 9.674,93 0,00 0,00 0,00 13.544,90 1.900,59 2.477,24 0,00 4.377,83 9.167,07 352,00 4.853,76 28/02/2013
517 269700 CYNTIA ROCHA CAVALCANTI OFICIAL DO MP ATIVO UBERLÂNDIA - COMARCA; UBERLANDIA-PJ-06PJ 5.698,20 569,82 0,00 0,00 0,00 0,00 6.268,02 722,28 743,52 0,00 1.465,80 4.802,22 3.404,34 895,11 28/02/2013
518 278000 DAIRTON LOPES MARTINS FILHO COORDENADOR/ANALISTA ATIVO BELO HORIZONTE - COMARCA; DIRETORIA DE SISTEMAS DE INFORMACAO 0,00 967,49 9.674,93 0,00 0,00 0,00 10.642,42 1.034,80 1.906,75 0,00 2.941,55 7.700,87 3.567,68 3.127,50 28/02/2013
519 392700 DALIANA CHAVES SILVA OFICIAL DO MP ATIVO ITAÚNA - COMARCA; ITAUNA-PJ-SECRETARIA 4.136,15 248,17 0,00 0,00 0,00 0,00 4.384,32 482,28 300,96 0,00 783,24 3.601,08 352,00 0,00 28/02/2013
520 476700 DALTON DAUD ANALISTA DO MP ATIVO ARAGUARI - COMARCA; ARAGUARI-PJ-05PJ 5.698,20 0,00 0,00 0,00 0,00 0,00 5.698,20 633,24 509,47 0,00 1.142,71 4.555,49 555,24 120,83 28/02/2013
521 121900 DALVA MARIA DE LIMA ANALISTA DO MP ATIVO BELO HORIZONTE - COMARCA; EXTINTA-TUTELA DAS FUNDACOES-21 PJ- GABINETE 16.456,57 14.810,92 0,00 0,00 0,00 2.652,94 33.920,43 2.652,94 5.841,77 7.149,87 15.644,58 18.275,85 352,00 0,00 28/02/2013
522 426900 DANIEL ALVES DA SILVA OFICIAL DO MP ATIVO BELO HORIZONTE - COMARCA; EXTINTA - PROTOCOLO DA PGJ 3.151,29 189,08 0,00 0,00 0,00 0,00 3.340,37 367,44 125,34 0,00 492,78 2.847,59 711,69 6,23 28/02/2013
523 122000 DANIEL ANTONIO VIEIRA OFICIAL DO MP ATIVO ENTRE-RIOS DE MINAS - COMARCA; ENTRE RIOS DE MINAS-PJ-SECRETARIA 7.022,72 3.511,36 0,00 0,00 0,00 0,00 10.534,08 1.366,34 1.598,47 0,00 2.964,81 7.569,27 352,00 2.655,68 28/02/2013
524 272401 DANIEL AUGUSTO DOS REIS ANALISTA DO MP ATIVO BELO HORIZONTE - COMARCA; BH-22PJ PES COM DEF E IDOSOS-ASS JURIDICA 6.379,14 382,75 0,00 0,00 0,00 0,00 6.761,89 773,46 864,39 0,00 1.637,85 5.124,04 352,00 482,82 28/02/2013
525 411000 DANIEL FERREIRA DA SILVA ANALISTA DO MP ATIVO GOVERNADOR VALADARES - COMARCA; GOVERNADOR VALADARES-PJ-15PJ 6.379,14 1.275,83 0,00 0,00 0,00 0,00 7.654,97 896,04 1.035,68 0,00 1.931,72 5.723,25 1.439,15 912,91 28/02/2013
526 309000 DANIEL GOMES DOS SANTOS ANALISTA DO MP ATIVO POÇOS DE CALDAS - COMARCA; POCOS DE CALDAS-PJ-03PJ 6.801,32 680,13 0,00 0,00 0,00 0,00 7.481,45 999,59 1.213,16 0,00 2.212,75 5.268,70 511,05 2.000,02 28/02/2013
527 453000 DANIEL GONCALVES PEREIRA ANALISTA DO MP ATIVO UNAÍ - COMARCA; UNAI-PJ-SECRETARIA 5.698,20 0,00 0,00 0,00 0,00 0,00 5.698,20 626,80 604,06 0,00 1.230,86 4.467,34 3.567,68 294,77 28/02/2013
528 495500 DANIEL GUIMARAES CABRAL OFICIAL DO MP ATIVO LAGOA DA PRATA - COMARCA; LAGOA DA PRATA-PJ-02PJ 2.772,23 0,00 0,00 0,00 0,00 0,00 2.772,23 304,95 56,74 0,00 361,69 2.410,54 352,00 0,00 28/02/2013
529 442900 DANIEL GUIMARAES GONCALVES ANALISTA DO MP ATIVO UBERLÂNDIA - COMARCA; UBERLANDIA-PJ-03PJ 5.883,73 353,02 0,00 0,00 0,00 0,00 6.236,75 693,16 735,87 0,00 1.429,03 4.807,72 3.373,07 389,93 28/02/2013
530 491200 DANIEL HENRIQUE SOUTO COSTA ANALISTA DO MP ATIVO CORAÇÃO DE JESUS - COMARCA; CORACAO DE JESUS-PJ-UNPJ 5.176,02 0,00 0,00 0,00 1.725,34 0,00 6.901,36 569,36 950,72 0,00 1.520,08 5.381,28 352,00 0,00 28/02/2013
531 464600 DANIEL PIACENTINI STIVANIN ANALISTA DO MP ATIVO ANDRADAS - COMARCA; ANDRADAS-PJ-02PJ 5.176,02 0,00 0,00 0,00 0,00 0,00 5.176,02 569,36 476,25 0,00 1.045,61 4.130,41 352,00 0,00 28/02/2013
532 417000 DANIEL QUEIROZ FERREIRA ANALISTA DO MP ATIVO AREADO - COMARCA; AREADO-PJ-UNPJ 6.379,14 382,75 0,00 0,00 0,00 0,00 6.761,89 750,97 864,39 0,00 1.615,36 5.146,53 352,00 113,68 28/02/2013
533 396700 DANIEL SILVA CARNEVALLI DIRETOR/ANALISTA ATIVO BELO HORIZONTE - COMARCA; DIRETORIA DE REDES E BANCOS DE DADOS 0,00 752,41 12.540,10 0,00 0,00 0,00 13.292,51 899,03 2.660,31 0,00 3.559,34 9.733,17 3.567,68 2.628,84 28/02/2013
534 489300 DANIEL TABOZA ROCHA ANALISTA DO MP ATIVO IPATINGA - COMARCA; IPATINGA-PJ-08PJ 5.176,02 0,00 0,00 0,00 0,00 0,00 5.176,02 569,36 476,25 0,00 1.045,61 4.130,41 352,00 0,00 28/02/2013
535 414100 DANIEL TARDELI VALADAO ANALISTA DO MP ATIVO TRÊS CORACOES - COMARCA; TRES CORACOES-PJ-02PJ 6.379,14 382,75 0,00 0,00 0,00 0,00 6.761,89 772,41 864,39 0,00 1.636,80 5.125,09 352,00 419,77 28/02/2013
536 446600 DANIEL VIEIRA BUENO OFICIAL DO MP ATIVO RIO PIRACICABA - COMARCA; RIO PIRACICABA-PJ-UNPJ 3.469,26 208,16 0,00 0,00 0,00 0,00 3.677,42 404,52 170,34 0,00 574,86 3.102,56 352,00 0,00 28/02/2013
537 253200 DANIELA BATISTA LIMA BARBOSA ASSESSOR ATIVO BELO HORIZONTE - COMARCA; CENTRAL DE APOIO TECN-SETOR DE MEIO AMBIENTE 0,00 369,88 3.698,79 0,00 0,00 0,00 4.068,67 457,49 235,52 0,00 693,01 3.375,66 352,00 0,00 28/02/2013
538 505800 DANIELA BORGES DE MATTOS RESENDE ANALISTA DO MP ATIVO JUIZ DE FORA - COMARCA; JUIZ DE FORA-PJ-20PJ 4.701,73 0,00 0,00 0,00 0,00 0,00 4.701,73 517,19 364,52 0,00 881,71 3.820,02 352,00 0,00 28/02/2013
539 478000 DANIELA CARVALHO SOARES ANALISTA DO MP ATIVO SÃO JOÃO DEL REI - COMARCA; SAO JOAO DEL REI-PJ-06PJ 5.698,20 0,00 0,00 0,00 0,00 0,00 5.698,20 626,80 604,06 0,00 1.230,86 4.467,34 352,00 0,00 28/02/2013
540 518900 DANIELA CERUTTI AGUIAR ANALISTA DO MP ATIVO BELO HORIZONTE - COMARCA; ASSESS TECNICO-JUR JUNTO AS PROC. DE JUST 4.701,73 0,00 0,00 0,00 0,00 0,00 4.701,73 542,74 417,02 0,00 959,76 3.741,97 352,00 316,31 28/02/2013
541 275900 DANIELA CHAGAS SODRE ANALISTA DO MP ATIVO BELO HORIZONTE - COMARCA; CENTRAL DE APOIO TECNICO-SETOR CONTABIL 8.788,36 878,84 0,00 0,00 0,00 0,00 9.667,20 1.234,52 1.528,18 0,00 2.762,70 6.904,50 587,00 2.265,68 28/02/2013
542 234301 DANIELA CRUZ SOARES ANALISTA DO MP ATIVO BELO HORIZONTE - COMARCA; CAO-ORDEM ECONOMICA E TRIBUTARIA-SECRETARIA 9.074,45 1.814,89 0,00 0,00 0,00 0,00 10.889,34 1.412,40 1.874,59 0,00 3.286,99 7.602,35 3.567,68 2.734,97 28/02/2013
543 301000 DANIELA DE ALMEIDA E OLIVEIRA ANALISTA DO MP ATIVO BELO HORIZONTE - COMARCA; DIRETORIA DE REDES E BANCOS DE DADOS 8.788,36 878,84 0,00 0,00 0,00 0,00 9.667,20 1.241,68 1.575,47 0,00 2.817,15 6.850,05 352,00 2.079,15 28/02/2013
544 296000 DANIELA DE AZEVEDO SILVA ANALISTA DO MP ATIVO ITAJUBA - COMARCA; ITAJUBA-PJ-03PJ 7.731,26 1.546,25 0,00 0,00 0,00 0,00 9.277,51 1.157,49 1.480,09 0,00 2.637,58 6.639,93 616,82 1.736,93 28/02/2013
545 453500 DANIELA DE CASTRO SOUSA BARBOSA ANALISTA DO MP ATIVO BELO HORIZONTE - COMARCA; BH-08PJ JUIZADO ESPECIAL-SECRETARIA 5.698,20 0,00 0,00 0,00 0,00 0,00 5.698,20 816,27 1.010,48 0,00 1.826,75 3.871,45 352,00 1.768,99 28/02/2013
546 506000 DANIELA DE OLIVEIRA CAVALIERI ANALISTA DO MP ATIVO BELO HORIZONTE - COMARCA; BH-14PJ DEFESA CONSUMIDOR-SECRETARIA 4.270,85 0,00 0,00 0,00 0,00 0,00 4.270,85 469,79 278,24 0,00 748,03 3.522,82 352,00 0,00 28/02/2013
547 482900 DANIELA DINIZ MONTEIRO NASCIMENTO ASSESSOR ATIVO BELO HORIZONTE - COMARCA; COORD REG BACIAS RIO VELHAS E PARAOPEBA 0,00 0,00 5.883,73 0,00 0,00 0,00 5.883,73 457,49 701,64 0,00 1.159,13 4.724,60 587,00 263,26 28/02/2013
548 393700 DANIELA GOMES CARDOSO OFICIAL DO MP ATIVO SABARÁ - COMARCA; SABARA-PJ-02PJ 2.862,51 171,75 0,00 0,00 0,00 0,00 3.034,26 333,77 61,33 0,00 395,10 2.639,16 587,00 0,00 28/02/2013
549 356400 DANIELA LEAL FERRAZ ANALISTA DO MP ATIVO MONTES CLAROS - COMARCA; COORD REG PJ DEF EDUC DIR CRIANCA ADOL NORTE 7.487,46 748,75 0,00 0,00 0,00 0,00 8.236,21 1.000,31 1.225,23 0,00 2.225,54 6.010,67 3.567,68 1.531,67 28/02/2013
550 501000 DANIELA LOURENCO SANTOS DA SILVA GUIMARAES ANALISTA DO MP ATIVO BELO HORIZONTE - COMARCA; BH-12PJ JUIZO CRIMINAL 4.701,73 0,00 0,00 0,00 0,00 0,00 4.701,73 517,19 364,52 0,00 881,71 3.820,02 352,00 0,00 28/02/2013
551 195801 DANIELA MARIA DE OLIVEIRA QUEIROZ ANALISTA DO MP ATIVO ARAGUARI - COMARCA; ARAGUARI-PJ-02PJ 6.379,14 1.275,83 0,00 0,00 0,00 0,00 7.654,97 939,72 1.082,97 0,00 2.022,69 5.632,28 352,00 1.271,04 28/02/2013
552 511400 DANIELA MARIA LARA DE OLIVEIRA ANALISTA DO MP ATIVO BOA ESPERANÇA - COMARCA; BOA ESPERANCA-PJ-02PJ 4.701,73 0,00 0,00 0,00 0,00 0,00 4.701,73 517,19 287,14 0,00 804,33 3.897,40 3.173,04 211,58 28/02/2013
553 252101 DANIELA PAULA ALVES PENA ANALISTA DO MP ATIVO CONTAGEM - COMARCA; CONTAGEM-PJ-APO TECNICO 6.379,14 1.275,83 0,00 0,00 0,00 0,00 7.654,97 901,49 1.082,97 0,00 1.984,46 5.670,51 3.567,68 1.184,21 28/02/2013
554 429600 DANIELA PIMENTA NUNES MACHADO ANALISTA DO MP ATIVO BELO HORIZONTE - COMARCA; BH-05PJ JUÍZO DE SUCESSÕES 5.883,73 353,02 0,00 0,00 0,00 0,00 6.236,75 714,46 735,87 0,00 1.450,33 4.786,42 352,00 324,25 28/02/2013
555 424300 DANIELA PORTO PINTO OFICIAL DO MP ATIVO BELO HORIZONTE - COMARCA; EXTINTA-DEFESA DA SAUDE-19 PJ-GABINETE 3.253,89 195,23 0,00 0,00 0,00 0,00 3.449,12 379,40 139,86 0,00 519,26 2.929,86 352,00 0,00 28/02/2013
556 462000 DANIELA SOUSA GOMES DO AMARAL ANALISTA DO MP ATIVO BETIM - COMARCA; BETIM-PJ-08PJ 5.698,20 0,00 0,00 0,00 0,00 0,00 5.698,20 626,80 604,06 0,00 1.230,86 4.467,34 587,00 0,00 28/02/2013
557 427000 DANIELA TEIXEIRA DINIZ ANDRADE ANALISTA DO MP ATIVO BELO HORIZONTE - COMARCA; DIVIS DE PROJETOS DE ENGENHARIA E ARQUITETURA 4.854,78 291,29 0,00 0,00 0,00 0,00 5.146,07 566,07 468,92 0,00 1.034,99 4.111,08 587,00 0,00 28/02/2013
558 337200 DANIELA TOLEDO SENIUK ANALISTA DO MP ATIVO BELO HORIZONTE - COMARCA; CGMP-SECRETARIA DA CORREGEDORIA-GERAL DO MP 6.801,32 680,13 0,00 0,00 0,00 0,00 7.481,45 873,86 993,21 0,00 1.867,07 5.614,38 587,00 794,83 28/02/2013
559 229900 DANIELA UCHOA SALOMON ANALISTA DO MP ATIVO BELO HORIZONTE - COMARCA; CAO-PATRIMONIO PUBLICO-SECRETARIA 7.251,34 1.450,27 0,00 0,00 0,00 0,00 8.701,61 1.040,14 1.339,14 0,00 2.379,28 6.322,33 587,00 1.123,27 28/02/2013
560 195500 DANIELE CHAVES FONSECA ASSESSOR/OFICIAL ATIVO BELO HORIZONTE - COMARCA; ASSESSORIA ESPECIAL DO PGJ 0,00 1.497,49 7.487,46 0,00 0,00 0,00 8.984,95 1.061,44 1.433,39 0,00 2.494,83 6.490,12 3.567,68 2.762,27 28/02/2013
561 323400 DANIELE MEGALE SANTINI OFICIAL DO MP ATIVO BELO HORIZONTE - COMARCA; ASSESS TECNICO-JUR JUNTO AS PROC. DE JUST 5.176,02 517,60 0,00 0,00 0,00 0,00 5.693,62 626,30 602,93 0,00 1.229,23 4.464,39 3.064,94 227,14 28/02/2013
562 357900 DANIELE REJANE PINTO VERSIEUX OFICIAL DO MP ATIVO PEDRO LEOPOLDO - COMARCA; PEDRO LEOPOLDO-PJ-01PJ 4.701,73 470,17 0,00 0,00 0,00 0,00 5.171,90 568,91 475,24 0,00 1.044,15 4.127,75 2.308,22 179,32 28/02/2013
563 389500 DANIELE VASCONCELOS AMORIM OFICIAL DO MP ATIVO SÃO SEBASTIÃO DO PARAÍSO - COMARCA; SAO SEBASTIAO DO PARAISO-PJ-04PJ 4.553,46 273,21 0,00 0,00 1.608,89 0,00 6.435,56 530,93 833,19 0,00 1.364,12 5.071,44 352,00 0,00 28/02/2013
564 265000 DANIELLE CASTANHEIRA SCALABRINI OFICIAL DO MP ATIVO BELO HORIZONTE - COMARCA; JUNTA RECURSAL DO PROCON ESTADUAL 4.854,78 485,48 0,00 0,00 0,00 0,00 5.340,26 593,87 376,31 0,00 970,18 4.370,08 352,00 102,45 28/02/2013
565 490100 DANIELLE DE AVILA SILVA LOPES ANALISTA DO MP ATIVO BELO HORIZONTE - COMARCA; PROC. JUSTICA DIR. DIFUSOS E COLETIVOS-SEC 5.176,02 517,60 0,00 0,00 0,00 0,00 5.693,62 626,30 602,93 0,00 1.229,23 4.464,39 352,00 0,00 28/02/2013
566 379900 DANIELLE GUIMARAES CARNEIRO PERES ANALISTA DO MP ATIVO BELO HORIZONTE - COMARCA; DIRETORIA DE ORCAMENTO-DIOR/SPC 6.379,14 382,75 0,00 0,00 0,00 0,00 6.761,89 792,23 864,39 0,00 1.656,62 5.105,27 587,00 775,95 28/02/2013
567 380800 DANILLO RIBEIRO ANTUNES ANALISTA DO MP ATIVO MONTES CLAROS - COMARCA; MONTES CLAROS-PJ-SECRETARIA 6.379,14 382,75 0,00 0,00 0,00 0,00 6.761,89 778,49 864,39 0,00 1.642,88 5.119,01 352,00 638,09 28/02/2013
568 453700 DANILO BOTELHO DE CARVALHO ANALISTA DO MP ATIVO BELO HORIZONTE - COMARCA; DIRETORIA DE ADMINISTRACAO FINANCEIRA 5.698,20 0,00 0,00 0,00 0,00 0,00 5.698,20 724,55 807,27 0,00 1.531,82 4.166,38 555,24 950,89 28/02/2013
569 391200 DANILO D'AVILA MENDES ANALISTA DO MP ATIVO JANAÚBA - COMARCA; JANAUBA-PJ-01PJ 6.379,14 382,75 0,00 0,00 0,00 0,00 6.761,89 838,76 864,39 0,00 1.703,15 5.058,74 1.425,20 1.368,29 28/02/2013
570 494900 DANILO GAVIAO AVELINO DE MELLO ANALISTA DO MP ATIVO POUSO ALEGRE - COMARCA; POUSO ALEGRE-PJ-08PJ 4.701,73 0,00 0,00 0,00 0,00 0,00 4.701,73 517,19 364,52 0,00 881,71 3.820,02 352,00 0,00 28/02/2013
571 298300 DANUZA MONICA DE SOUZA DINIZ ANALISTA DO MP ATIVO DIVINÓPOLIS - COMARCA; DIVINOPOLIS-PJ-02PJ 6.586,88 658,69 0,00 0,00 0,00 0,00 7.245,57 894,63 935,48 0,00 1.830,11 5.415,46 3.567,68 1.562,07 28/02/2013
572 398700 DARCY LUIZ MILEO GREGATTI OFICIAL DO MP ATIVO LAMBARI - COMARCA; LAMBARI-PJ-SECRETARIA 3.469,26 208,16 0,00 0,00 0,00 0,00 3.677,42 404,52 170,34 0,00 574,86 3.102,56 352,00 0,00 28/02/2013
573 406200 DARIANA AUGUSTA DE TOLEDO PATROCINIO ASSESSOR/OFICIAL ATIVO BELO HORIZONTE - COMARCA; EXTINTA - DIRETORIA DE CONTRATOS E CONVÊNIOS 0,00 449,25 7.487,46 0,00 0,00 0,00 7.936,71 530,93 1.246,01 0,00 1.776,94 6.159,77 352,00 0,00 28/02/2013
574 305000 DARLI LEITE DE OLIVEIRA OFICIAL DO MP ATIVO ARAÇUAÍ - COMARCA; ARACUAI-PJ-02PJ 4.409,86 440,99 0,00 0,00 0,00 0,00 4.850,85 723,09 661,86 0,00 1.384,95 3.465,90 2.222,17 1.889,82 28/02/2013
575 122200 DAVID RIBEIRO DOS SANTOS ANALISTA DO MP ATIVO BORDA DA MATA - COMARCA; BORDA DA MATA-PJ-UNPJ 13.036,58 9.125,60 0,00 0,00 0,00 0,00 22.162,18 3.247,89 5.098,54 0,00 8.346,43 13.815,75 4.005,98 9.404,36 28/02/2013
576 389400 DAWSON CANEDO MARQUES OFICIAL DO MP ATIVO GOVERNADOR VALADARES - COMARCA; GOVERNADOR VALADARES-PJ-08PJ 4.553,46 273,21 0,00 0,00 0,00 0,00 4.826,67 530,93 350,85 0,00 881,78 3.944,89 352,00 0,00 28/02/2013
577 256100 DAYSE ROSALY PEREIRA BATISTA OFICIAL DO MP ATIVO BELO HORIZONTE - COMARCA; PROCON-MG-SECRETARIA DE FISCALIZACOES 4.553,46 910,69 0,00 0,00 0,00 0,00 5.464,15 601,06 404,89 0,00 1.005,95 4.458,20 2.600,47 206,11 28/02/2013
578 311901 DEBORA APARECIDA DA SILVA ASSESSOR ATIVO BELO HORIZONTE - COMARCA; BH-23PJ CIVEL-SETOR ATEND PUB 0,00 0,00 1.923,60 0,00 0,00 0,00 1.923,60 282,40 16,66 0,00 299,06 1.624,54 352,00 0,00 28/02/2013
579 194301 DEBORA APARECIDA DOS SANTOS ANALISTA DO MP ATIVO UBERLÂNDIA - COMARCA; UBERLANDIA-COORD CONJ-FAMÍLIA E JUIZ ESP CRIM 7.731,26 1.546,25 0,00 0,00 0,00 0,00 9.277,51 1.216,46 1.480,09 0,00 2.696,55 6.580,96 352,00 2.529,66 28/02/2013
580 518800 DEBORA CARVALHO FIORATTO OFICIAL DO MP ATIVO CONTAGEM - COMARCA; CONTAGEM-PJ-11PJ 2.955,70 0,00 0,00 0,00 0,00 0,00 2.955,70 325,13 73,99 0,00 399,12 2.556,58 352,00 0,00 28/02/2013
581 444900 DEBORA CLAUDIA PEREIRA ALVES ANALISTA DO MP ATIVO BELO HORIZONTE - COMARCA; BH-08PJ JUIZADO ESPECIAL-SECRETARIA 5.883,73 353,02 0,00 0,00 0,00 0,00 6.236,75 686,04 735,87 0,00 1.421,91 4.814,84 587,00 0,00 28/02/2013
582 513100 DEBORA CRISTINA PEREIRA DE OLIVEIRA ANALISTA DO MP ATIVO BELO HORIZONTE - COMARCA; BH-23PJ CIVEL-SETOR JURIDICO 4.701,73 0,00 0,00 0,00 0,00 0,00 4.701,73 517,19 364,52 0,00 881,71 3.820,02 352,00 0,00 28/02/2013
583 424100 DEBORA SANTOS E ALVES ANALISTA DO MP ATIVO JANUÁRIA - COMARCA; JANUARIA-PJ-01PJ 6.379,14 382,75 0,00 0,00 0,00 0,00 6.761,89 750,60 864,39 0,00 1.614,99 5.146,90 352,00 107,92 28/02/2013
584 426300 DEBORA SCUCATO MACHADO SOARES OFICIAL DO MP ATIVO ITABIRA - COMARCA; ITABIRA-PJ-03PJ 3.469,26 208,16 0,00 0,00 0,00 0,00 3.677,42 404,52 170,34 0,00 574,86 3.102,56 352,00 0,00 28/02/2013
585 438000 DEBORAH COSTA LAGE ANALISTA DO MP ATIVO BELO HORIZONTE - COMARCA; ASSESS TECNICO-JUR JUNTO AS PROC. DE JUST 5.883,73 353,02 0,00 0,00 0,00 0,00 6.236,75 706,63 735,87 0,00 1.442,50 4.794,25 352,00 239,70 28/02/2013
586 475700 DEBORAH LOBAO LACERDA OFICIAL DO MP ATIVO BELO HORIZONTE - COMARCA; BH-23PJ INFRACIONAL 3.051,96 0,00 0,00 0,00 0,00 0,00 3.051,96 335,72 86,84 0,00 422,56 2.629,40 352,00 0,00 28/02/2013
587 506200 DEBORAH RALEMADHA RODRIGUES MELO ANALISTA DO MP ATIVO BELO HORIZONTE - COMARCA; COMB CRIMES PRAT POR AG POL MUN-ASSESSORIA 5.176,02 0,00 0,00 0,00 0,00 0,00 5.176,02 569,36 476,25 0,00 1.045,61 4.130,41 352,00 0,00 28/02/2013
588 501900 DELI RAQUEL RODRIGUES ANALISTA DO MP ATIVO ITUIUTABA - COMARCA; ITUIUTABA-PJ-04PJ 4.701,73 0,00 0,00 0,00 0,00 0,00 4.701,73 517,19 364,52 0,00 881,71 3.820,02 352,00 0,00 28/02/2013
589 378600 DELIANE LOPES VIEIRA BREIJAO NEVES ANALISTA DO MP ATIVO SANTOS DUMONT - COMARCA; SANTOS DUMONT-PJ-03PJ 6.379,14 382,75 0,00 0,00 0,00 0,00 6.761,89 772,61 864,39 0,00 1.637,00 5.124,89 352,00 351,01 28/02/2013
590 522500 DELMINDA MARIA LEAO E SILVA OFICIAL DO MP ATIVO ITAGUARA - COMARCA; ITAGUARA-PJ-UNPJ 2.684,83 1.879,38 0,00 0,00 0,00 0,00 4.564,21 502,06 259,60 0,00 761,66 3.802,55 352,00 0,00 28/02/2013
591 393000 DENER LOPES MACHADO ANALISTA DO MP ATIVO PATOS DE MINAS - COMARCA; COORD REG BACIAS PARACATU,URUCUIA E ABAETE 5.344,58 320,67 0,00 0,00 0,00 0,00 5.665,25 629,97 595,99 0,00 1.225,96 4.439,29 352,00 107,89 28/02/2013
592 487700 DENIA FERREIRA MAIA SILVA OFICIAL DO MP ATIVO TRÊS CORACOES - COMARCA; TRES CORACOES-PJ-01PJ 2.772,23 0,00 0,00 0,00 0,00 0,00 2.772,23 304,95 43,84 0,00 348,79 2.423,44 587,00 0,00 28/02/2013
593 424800 DENIS APARECIDO CAMPOS DELFINO ANALISTA DO MP ATIVO LUZ - COMARCA; LUZ-PJ-UNPJ 6.379,14 382,75 0,00 0,00 0,00 0,00 6.761,89 868,60 963,28 0,00 1.831,88 4.930,01 4.133,20 2.141,31 28/02/2013
594 381400 DENISE ANGELICA MELLO DE PAULA OFICIAL DO MP ATIVO BELO HORIZONTE - COMARCA; BH-18PJ DIREITOS HUMANOS-SECRETARIA 4.553,46 273,21 0,00 0,00 0,00 0,00 4.826,67 530,93 390,75 0,00 921,68 3.904,99 352,00 0,00 28/02/2013
595 196300 DENISE DE ALMEIDA VILELA FURTADO OFICIAL DO MP ATIVO BELO HORIZONTE - COMARCA; CENTRAL DE APOIO TECNICO-SECRETARIA 6.177,98 1.235,60 0,00 0,00 0,00 0,00 7.413,58 844,82 929,31 0,00 1.774,13 5.639,45 352,00 454,25 28/02/2013
596 336900 DENISE DE SOUSA MORAES SILVA OFICIAL DO MP ATIVO MATEUS LEME - COMARCA; MATEUS LEME-PJ-02PJ 4.005,77 400,58 0,00 0,00 0,00 0,00 4.406,35 484,70 305,37 0,00 790,07 3.616,28 352,00 0,00 28/02/2013
597 271100 DENISE ELOY PEIXOTO OFICIAL DO MP ATIVO BELO HORIZONTE - COMARCA; GAECO - SECRETARIA 5.698,20 569,82 0,00 0,00 0,00 0,00 6.268,02 764,37 748,93 0,00 1.513,30 4.754,72 3.404,34 1.343,57 28/02/2013
598 385400 DENISE FREITAS DE ASSIS OFICIAL DO MP ATIVO CARATINGA - COMARCA; CARATINGA-PJ-01PJ 4.136,15 248,17 0,00 0,00 0,00 0,00 4.384,32 482,28 223,57 0,00 705,85 3.678,47 352,00 0,00 28/02/2013
599 437100 DENISE NOGUEIRA MAGRI MENDES ANALISTA DO MP ATIVO BELO HORIZONTE - COMARCA; CAO-ORDEM ECONOMICA E TRIBUTARIA-SECRETARIA 5.883,73 1.176,75 0,00 0,00 2.353,49 0,00 9.413,97 853,19 1.442,81 0,00 2.296,00 7.117,97 587,00 1.052,77 28/02/2013
600 524700 DENISE RAMOS GUIMARAES OFICIAL DO MP ATIVO SANTA LUZIA - COMARCA; SANTA LUZIA-PJ-02PJ 2.955,70 0,00 0,00 0,00 0,00 0,00 2.955,70 325,13 73,99 0,00 399,12 2.556,58 352,00 0,00 28/02/2013
601 239100 DENISE RIBEIRO DOS SANTOS CAETANO OFICIAL DO MP ATIVO ITANHANDU - COMARCA; ITANHANDU-PJ-SECRETARIA 5.883,73 1.176,75 0,00 0,00 0,00 0,00 7.060,48 969,38 1.124,37 0,00 2.093,75 4.966,73 3.567,68 2.397,51 28/02/2013
602 325500 DENISE ROSA TORRES ASSESSOR/OFICIAL ATIVO BELO HORIZONTE - COMARCA; DIRETORIA DE PESSOAL ADMINISTRATIVO - DPAD 0,00 748,75 7.487,46 0,00 0,00 0,00 8.236,21 716,83 1.310,97 0,00 2.027,80 6.208,41 3.567,68 1.522,10 28/02/2013
603 437200 DENISE VIVIANE DOS SANTOS ANALISTA DO MP ATIVO BELO HORIZONTE - COMARCA; ASSESS TECNICA DA CORREGEDORIA-GERAL DO MP 5.344,58 320,67 0,00 0,00 0,00 0,00 5.665,25 623,18 595,99 0,00 1.219,17 4.446,08 2.801,57 224,54 28/02/2013
604 267900 DENISIA DE ALMEIDA SALES OFICIAL DO MP ATIVO BELO HORIZONTE - COMARCA; CAO-SAUDE- SECRETARIA 4.409,86 440,99 0,00 0,00 0,00 0,00 4.850,85 533,59 317,00 0,00 850,59 4.000,26 1.987,17 122,64 28/02/2013
605 480300 DESIREE ARANTES FERREIRA GOUVEA OFICIAL DO MP ATIVO PRATÁPOLIS - COMARCA; PRATAPOLIS-PJ-UNPJ 3.051,96 0,00 0,00 0,00 0,00 0,00 3.051,96 383,92 159,33 0,00 543,25 2.508,71 352,00 689,99 28/02/2013
606 355300 DEYSE CRISTINA MORAIS OFICIAL DO MP ATIVO PASSOS - COMARCA; PASSOS-PJ-02PJ 3.879,42 387,94 0,00 0,00 0,00 0,00 4.267,36 469,41 277,54 0,00 746,95 3.520,41 1.403,68 78,88 28/02/2013
607 523700 DIANA CAMPOS RESENDE OFICIAL DO MP ATIVO SÃO JOÃO DEL REI - COMARCA; SAO JOAO DEL REI-PJ-04PJ 2.955,70 1.182,28 0,00 0,00 1.379,33 0,00 5.517,31 455,18 601,51 0,00 1.056,69 4.460,62 352,00 0,00 28/02/2013
608 241900 DIANA CARDOSO MARTINS OFICIAL DO MP ATIVO BELO HORIZONTE - COMARCA; SUPRIN DE FORMACAO E APERFEICOAMENTO-SFA/CEAF 4.701,73 940,35 0,00 0,00 0,00 0,00 5.642,08 649,89 590,32 0,00 1.240,21 4.401,87 521,57 415,99 28/02/2013
609 410100 DIANA GORDILHO SILVEIRA SENA ANALISTA DO MP ATIVO BELO HORIZONTE - COMARCA; ASSESS TECNICO-JUR JUNTO AS PROC. DE JUST 6.379,14 382,75 0,00 0,00 0,00 0,00 6.761,89 773,32 864,39 0,00 1.637,71 5.124,18 3.567,68 853,39 28/02/2013
610 520000 DIARLE TOSTE DOS SANTOS ANALISTA DO MP ATIVO RIO POMBA - COMARCA; RIO POMBA-PJ-UNPJ 4.553,46 0,00 0,00 0,00 0,00 0,00 4.553,46 500,88 218,75 0,00 719,63 3.833,83 587,00 0,00 28/02/2013
611 388100 DIEGO CESAR DO NASCIMENTO PERONI OFICIAL DO MP ATIVO CASSIA - COMARCA; CASSIA-PJ-02PJ 3.469,26 208,16 0,00 0,00 0,00 0,00 3.677,42 404,52 170,34 0,00 574,86 3.102,56 352,00 0,00 28/02/2013
612 446900 DIEGO DE FREITAS OFICIAL DO MP ATIVO UBERABA - COMARCA; UBERABA-PJ-06PJ 3.151,29 189,08 0,00 0,00 1.113,46 0,00 4.453,83 367,44 342,44 0,00 709,88 3.743,95 352,00 0,00 28/02/2013
613 379800 DIEGO OSORIO DA SILVA CORDEIRO OFICIAL DO MP ATIVO CONSELHEIRO LAFAIETE - COMARCA; CONSELHEIRO LAFAIETE-PJ-05PJ 3.757,11 225,43 0,00 0,00 1.327,51 0,00 5.310,05 438,08 549,21 0,00 987,29 4.322,76 352,00 0,00 28/02/2013
614 288800 DILENE NEPOMUCENO ALVES OFICIAL DO MP ATIVO BELO HORIZONTE - COMARCA; DIRETORIA DE PESSOAL ADMINISTRATIVO - DPAD 5.518,54 551,85 0,00 0,00 2.023,46 0,00 8.093,85 703,67 1.251,60 0,00 1.955,27 6.138,58 352,00 650,95 28/02/2013
615 270100 DILSON DO AMARAL OFICIAL DO MP ATIVO RIO CASCA - COMARCA; RIO CASCA-PJ-SECRETARIA 5.012,79 501,28 0,00 0,00 0,00 0,00 5.514,07 606,55 558,99 0,00 1.165,54 4.348,53 352,00 0,00 28/02/2013
616 466000 DIMITRI GUDE MARCIAL ANALISTA DO MP ATIVO NANUQUE - COMARCA; NANUQUE-PJ-02PJ 4.270,85 0,00 0,00 0,00 0,00 0,00 4.270,85 550,31 386,58 0,00 936,89 3.333,96 1.642,17 811,14 28/02/2013
617 516300 DINORA APARECIDA MACEDO BRANDAO ANALISTA DO MP ATIVO BELO HORIZONTE - COMARCA; COMB CRIMES PRAT POR AG POL MUN-ASSESSORIA 4.270,85 0,00 0,00 0,00 0,00 0,00 4.270,85 469,79 278,24 0,00 748,03 3.522,82 352,00 0,00 28/02/2013
618 511700 DIOGENES HENRIQUES PEREIRA LOURENCO ANALISTA DO MP ATIVO CONTAGEM - COMARCA; CONTAGEM-PJ-22PJ 5.176,02 0,00 0,00 0,00 0,00 0,00 5.176,02 569,36 476,25 0,00 1.045,61 4.130,41 352,00 0,00 28/02/2013
619 387800 DIOGO FELIX DA SILVA OFICIAL DO MP ATIVO MANTENA - COMARCA; MANTENA-PJ-SECRETARIA 3.469,26 208,16 0,00 0,00 0,00 0,00 3.677,42 404,52 170,34 0,00 574,86 3.102,56 995,50 23,09 28/02/2013
620 259600 DIOGO MESQUITA MAIA ANALISTA DO MP ATIVO BELO HORIZONTE - COMARCA; DIRET DE APOIO AS PROCURADORIAS DE JUSTICA 7.982,93 5.588,05 0,00 0,00 0,00 0,00 13.570,98 1.905,96 2.389,04 0,00 4.295,00 9.275,98 754,04 4.486,56 28/02/2013
621 364100 DIOGO OLIVEIRA CANUTO OFICIAL DO MP ATIVO BELO HORIZONTE - COMARCA; EXTINTA-04ª PJ JUÍZO REG PÚBLICOS-SECRETARIA 4.553,46 455,35 0,00 0,00 0,00 0,00 5.008,81 550,97 435,33 0,00 986,30 4.022,51 2.145,13 164,37 28/02/2013
622 386700 DIRCIMAR FERNANDES CARNEIRO OFICIAL DO MP ATIVO ALTO RIO DOCE - COMARCA; ALTO RIO DOCE-PJ-UNPJ 4.553,46 1.821,39 0,00 0,00 0,00 0,00 6.374,85 833,87 1.037,18 0,00 1.871,05 4.503,80 3.511,17 1.546,00 28/02/2013
623 113800 DIRSON APARECIDO GUIMARAES ASSESSOR ATIVO BELO HORIZONTE - COMARCA; DIRETORIA DE MANUTENCAO PREDIAL 0,00 1.772,24 2.215,31 0,00 0,00 0,00 3.987,55 457,49 131,52 0,00 589,01 3.398,54 352,00 0,00 28/02/2013
624 216700 DOMICIO VALDETE PEREIRA OFICIAL DO MP ATIVO TEÓFILO OTONI - COMARCA; COORD REG PJ DEF EDU DIR CRIAN ADOL JEQUI MUC 7.487,46 1.497,49 0,00 0,00 0,00 0,00 8.984,95 1.156,91 1.172,03 0,00 2.328,94 6.656,01 352,00 2.208,88 28/02/2013
625 85700 DONIZETTE PEREIRA DOS SANTOS OFICIAL DO MP ATIVO BELO HORIZONTE - COMARCA; EXTINTA - PROTOCOLO DA PGJ 15.227,00 10.658,90 0,00 0,00 0,00 0,00 25.885,90 3.360,75 4.986,82 1.768,28 10.115,85 15.770,05 4.988,10 8.330,01 28/02/2013
626 192701 DONIZETTI APARECIDO AMORIM ANALISTA DO MP ATIVO PRATÁPOLIS - COMARCA; PRATAPOLIS-PJ-UNPJ 4.701,73 940,35 0,00 0,00 0,00 0,00 5.642,08 620,63 590,32 0,00 1.210,95 4.431,13 352,00 0,00 28/02/2013
627 276700 DORALICE ROSA DE OLIVEIRA FREITAS OFICIAL DO MP ATIVO CARMO DA MATA - COMARCA; CARMO DA MATA-PJ-SECRETARIA 4.409,86 3.527,89 0,00 0,00 0,00 873,15 8.810,90 977,49 1.392,30 0,00 2.369,79 6.441,11 3.527,10 1.759,32 28/02/2013
628 265900 DOUGLAS GOMES MOREIRA ANALISTA DO MP ATIVO BELO HORIZONTE - COMARCA; CENTRAL DE APOIO TECNICO-SETOR DE ENGENHARIA 8.788,36 878,84 0,00 0,00 0,00 0,00 9.667,20 1.285,33 1.575,47 0,00 2.860,80 6.806,40 352,00 2.528,28 28/02/2013
629 241000 DOUGLAS MEIRELLES DE CASTRO OFICIAL DO MP ATIVO CONCEIÇÃO DO RIO VERDE - COMARCA; CONCEICAO DO RIO VERDE-PJ-UNPJ 6.075,32 1.215,06 0,00 0,00 0,00 0,00 7.290,38 868,18 899,16 0,00 1.767,34 5.523,04 587,00 951,52 28/02/2013
630 146800 DUCINALVA AMARAL LOPES REIS OFICIAL DO MP ATIVO PARAISÓPOLIS - COMARCA; PARAISOPOLIS-PJ-UNPJ 8.788,36 4.394,18 0,00 0,00 0,00 0,00 13.182,54 1.814,86 2.246,68 0,00 4.061,54 9.121,00 4.139,37 4.289,53 28/02/2013
631 122500 DUILIO CARLOS FERREIRA UTSCH OFICIAL DO MP ATIVO CONCEIÇÃO DO MATO DENTRO - COMARCA; CONCEICAO DO MATO DENTRO-PJ-UNPJ 7.487,46 5.241,23 0,00 0,00 0,00 0,00 12.728,69 1.696,68 2.324,77 0,00 4.021,45 8.707,24 352,00 3.595,63 28/02/2013
632 201800 DULCINEIA ANDRE DE SOUZA OFICIAL DO MP ATIVO JEQUITINHONHA - COMARCA; JEQUITINHONHA-PJ-SECRETARIA 7.487,46 1.497,49 0,00 0,00 0,00 0,00 8.984,95 1.095,97 1.219,32 0,00 2.315,29 6.669,66 607,99 1.528,17 28/02/2013
633 395800 DUVIDIER MEDIRCIO JUNIOR ANALISTA DO MP ATIVO BELO HORIZONTE - COMARCA; CENTRAL DE APOIO TECNICO-SETOR DE ENGENHARIA 5.883,73 353,02 0,00 0,00 0,00 0,00 6.236,75 701,06 735,87 0,00 1.436,93 4.799,82 352,00 187,68 28/02/2013
634 273000 EDELFINA APARECIDA GUIMARAES OFICIAL DO MP ATIVO BELO HORIZONTE - COMARCA; PROMOT ESTADUAL DE DEF PATRI CULT E TUR DE MG 4.854,78 1.941,91 0,00 0,00 0,00 0,00 6.796,69 818,30 778,33 0,00 1.596,63 5.200,06 3.567,68 1.291,27 28/02/2013
635 523300 EDER DOS SANTOS PATRICIO ANALISTA DO MP ATIVO NOVA SERRANA - COMARCA; NOVA SERRANA-PJ-03PJ 4.136,15 0,00 0,00 0,00 0,00 0,00 4.136,15 454,98 251,26 0,00 706,24 3.429,91 352,00 0,00 28/02/2013
636 356700 EDER JOSE PACHECO OFICIAL DO MP ATIVO CAMPO BELO - COMARCA; CAMPO BELO-PJ-SECRETARIA 4.701,73 470,17 0,00 0,00 0,00 0,00 5.171,90 575,89 427,95 0,00 1.003,84 4.168,06 2.339,83 290,12 28/02/2013
637 507900 EDERSON SILVA LOPES OFICIAL DO MP ATIVO BELO HORIZONTE - COMARCA; SERVICO MEDICO-DEPTO PERIC MEDICA SAUDE OCUP 2.772,23 0,00 0,00 0,00 0,00 0,00 2.772,23 304,95 56,74 0,00 361,69 2.410,54 352,00 0,00 28/02/2013
638 296200 EDGARD GOULART MATOSINHO DE LAET JUNIOR ANALISTA DO MP ATIVO GOVERNADOR VALADARES - COMARCA; GOVERNADOR VALADARES-PJ-SECRETARIA 7.982,93 798,29 0,00 0,00 0,00 0,00 8.781,22 1.158,14 1.216,75 0,00 2.374,89 6.406,33 608,75 2.224,02 28/02/2013
639 295000 EDILA MARIA DA SILVEIRA OFICIAL DO MP ATIVO FORMIGA - COMARCA; FORMIGA-PJ-SECRETARIA 4.553,46 455,35 0,00 0,00 0,00 0,00 5.008,81 550,97 435,33 0,00 986,30 4.022,51 352,00 0,00 28/02/2013
640 332300 EDILA MARILAC MIRANDA PRADO OFICIAL DO MP ATIVO DIAMANTINA - COMARCA; DIAMANTINA-PJ-03PJ 4.701,73 1.410,52 0,00 0,00 0,00 0,00 6.112,25 692,11 610,81 0,00 1.302,92 4.809,33 3.248,57 497,45 28/02/2013
641 376600 EDILANE CONSOLACAO ROSA NAZARETH ANALISTA DO MP ATIVO BETIM - COMARCA; BETIM-PJ-10PJ 6.379,14 382,75 0,00 0,00 0,00 0,00 6.761,89 792,32 864,39 0,00 1.656,71 5.105,18 352,00 778,64 28/02/2013
642 301500 EDILENE APARECIDA DE CARVALHO ANALISTA DO MP ATIVO BELO HORIZONTE - COMARCA; DIRETORIA DE ADMINISTRACAO FINANCEIRA 7.982,93 798,29 0,00 0,00 2.927,07 0,00 11.708,29 1.130,05 2.163,57 0,00 3.293,62 8.414,67 352,00 2.188,81 28/02/2013
643 309800 EDILZA DOS REIS OFICIAL DO MP ATIVO UBERLÂNDIA - COMARCA; UBERLANDIA-PJ-03PJ 5.344,58 534,46 0,00 0,00 0,00 0,00 5.879,04 653,26 601,02 0,00 1.254,28 4.624,76 3.567,68 399,10 28/02/2013
644 200500 EDINEIA MARIA DE OLIVEIRA ANTUNES OFICIAL DO MP ATIVO MONTES CLAROS - COMARCA; MONTES CLAROS-PJ-10PJ 7.487,46 2.246,24 0,00 0,00 0,00 0,00 9.733,70 1.227,45 1.591,74 0,00 2.819,19 6.914,51 352,00 1.864,04 28/02/2013
645 427700 EDISANGELA SOARES LOPES OFICIAL DO MP ATIVO PIRAPORA - COMARCA; PIRAPORA-PJ-03PJ 3.469,26 208,16 0,00 0,00 0,00 0,00 3.677,42 404,52 170,34 0,00 574,86 3.102,56 368,37 0,00 28/02/2013
646 517700 EDMILSON TADEU FERNANDES OFICIAL DO MP ATIVO POUSO ALEGRE - COMARCA; POUSO ALEGRE-PJ-04PJ 2.955,70 0,00 0,00 0,00 0,00 0,00 2.955,70 325,13 73,99 0,00 399,12 2.556,58 352,00 0,00 28/02/2013
647 358400 EDNA APARECIDA SILVA FERREIRA OFICIAL DO MP ATIVO CORONEL FABRICIANO - COMARCA; CORONEL FABRICIANO-PJ-02PJ 4.701,73 470,17 0,00 0,00 0,00 0,00 5.171,90 568,91 475,24 0,00 1.044,15 4.127,75 2.543,22 179,32 28/02/2013
648 331800 EDNA MARCIA CAMILO DA SILVA OFICIAL DO MP ATIVO SETE LAGOAS - COMARCA; SETE LAGOAS-PJ-07PJ 5.344,58 534,46 0,00 0,00 0,00 0,00 5.879,04 653,68 648,32 0,00 1.302,00 4.577,04 3.015,36 355,01 28/02/2013
649 87400 EDNA MARIA DE LIMA OFICIAL DO MP ATIVO BELO HORIZONTE - COMARCA; EXTINTA - DIVISÃO DE MATERIAL PERMANENTE 7.487,46 3.743,73 0,00 0,00 0,00 0,00 11.231,19 1.469,97 1.910,96 0,00 3.380,93 7.850,26 3.567,68 3.229,63 28/02/2013
650 422800 EDNILSON DE SOUZA FERREIRA ASSESSOR ATIVO BELO HORIZONTE - COMARCA; DIRET DE INFORMACAO E EXPEDICAO DE PROCESSOS 0,00 0,00 2.215,31 0,00 0,00 0,00 2.215,31 363,63 10,57 0,00 374,20 1.841,11 352,00 0,00 28/02/2013
651 327900 EDRIEL SANTANA PEREIRA OFICIAL DO MP ATIVO TUPACIGUARA - COMARCA; TUPACIGUARA-PJ-UNPJ 5.344,58 534,46 0,00 0,00 0,00 0,00 5.879,04 653,62 648,32 0,00 1.301,94 4.577,10 357,12 110,08 28/02/2013
652 482400 EDSON GARCIA OFICIAL DO MP ATIVO MACHADO - COMARCA; MACHADO-PJ-02PJ 2.772,23 0,00 0,00 0,00 0,00 0,00 2.772,23 307,56 58,32 0,00 365,88 2.406,35 352,00 23,76 28/02/2013
653 225601 EDSON LABRE FILHO ANALISTA DO MP ATIVO VARGINHA - COMARCA; VARGINHA-PJ-01PJ 7.982,93 1.596,59 0,00 0,00 0,00 0,00 9.579,52 1.255,24 1.554,01 0,00 2.809,25 6.770,27 4.020,55 3.012,75 28/02/2013
654 414400 EDUARDO ABRANTES CAMPOS ANALISTA DO MP ATIVO OLIVEIRA - COMARCA; OLIVEIRA-PJ-02PJ 6.379,14 382,75 0,00 0,00 0,00 0,00 6.761,89 774,07 864,39 0,00 1.638,46 5.123,43 352,00 590,72 28/02/2013
655 476800 EDUARDO ALVES DE MOURA ANALISTA DO MP ATIVO UBERLÂNDIA - COMARCA; UBERLANDIA-PJ-19PJ 4.701,73 0,00 0,00 0,00 0,00 0,00 4.701,73 517,19 364,52 0,00 881,71 3.820,02 352,00 0,00 28/02/2013
656 390800 EDUARDO AMORIM PETTERSEN OFICIAL DO MP ATIVO CARANGOLA - COMARCA; CARANGOLA-PJ-03PJ 3.469,26 208,16 0,00 0,00 0,00 0,00 3.677,42 404,52 170,34 0,00 574,86 3.102,56 352,00 0,00 28/02/2013
657 461600 EDUARDO ANTONIO DE ASSIS FARIA ASSESSOR ATIVO BELO HORIZONTE - COMARCA; ASSESS EXECUTIVA DO CONSELHO SUPERIOR DO MP 0,00 0,00 3.698,79 0,00 0,00 0,00 3.698,79 445,59 167,38 0,00 612,97 3.085,82 352,00 0,00 28/02/2013
658 248800 EDUARDO DE CASTRO AMORIM ANALISTA DO MP ATIVO BELO HORIZONTE - COMARCA; CAO-TS-TERCEIRO SETOR-ASSESSORIA JURIDICA 9.369,85 1.873,97 0,00 0,00 0,00 0,00 11.243,82 1.475,42 1.961,35 0,00 3.436,77 7.807,05 352,00 2.981,25 28/02/2013
659 209100 EDUARDO DE SOUZA MAIA ANALISTA DO MP ATIVO BELO HORIZONTE - COMARCA; CAO-TS-TERCEIRO SETOR-ASSESSORIA JURIDICA 10.997,69 2.199,54 0,00 0,00 0,00 0,00 13.197,23 1.778,05 2.529,14 0,00 4.307,19 8.890,04 394,66 5.389,52 28/02/2013
660 350500 EDUARDO GONCALVES RIBEIRO OFICIAL DO MP ATIVO VESPASIANO - COMARCA; VESPASIANO-PJ-04PJ 3.879,42 387,94 0,00 0,00 0,00 0,00 4.267,36 469,41 277,54 0,00 746,95 3.520,41 352,00 0,00 28/02/2013
661 115800 EDUARDO HENRIQUE DE CAMPOS MAIA OFICIAL DO MP ATIVO BELO HORIZONTE - COMARCA; EXTINTA - DIVISAO DE SERVICOS GERAIS 7.982,93 3.193,17 0,00 0,00 0,00 0,00 11.176,10 1.470,40 1.897,48 0,00 3.367,88 7.808,22 352,00 3.001,63 28/02/2013
662 392600 EDUARDO HENRIQUE DOS SANTOS COSTA ELIAZAR OFICIAL DO MP ATIVO MATOZINHOS - COMARCA; MATOZINHOS-PJ-02PJ 3.757,11 225,43 0,00 0,00 0,00 0,00 3.982,54 438,08 159,48 0,00 597,56 3.384,98 587,00 0,00 28/02/2013
663 122900 EDUARDO JOSE COSTA SILVA OFICIAL DO MP ATIVO SETE LAGOAS - COMARCA; SETE LAGOAS-PJ-04PJ 11.161,27 7.812,89 0,00 0,00 0,00 0,00 18.974,16 2.608,55 3.806,05 0,00 6.414,60 12.559,56 4.031,29 6.137,15 28/02/2013
664 418700 EDUARDO LEMOS SIMOES OFICIAL DO MP ATIVO LAVRAS - COMARCA; COORD REG DO MA DA BACIA DO RIO GRANDE 3.469,26 208,16 0,00 0,00 0,00 0,00 3.677,42 404,52 170,34 0,00 574,86 3.102,56 352,00 0,00 28/02/2013
665 407500 EDUARDO MASCARENHAS CURI AZEVEDO ANALISTA DO MP ATIVO BELO HORIZONTE - COMARCA; SUPERINTENDENCIA DE COMUNICACAO INTEGRADA 5.883,73 353,02 0,00 0,00 0,00 0,00 6.236,75 693,23 735,87 0,00 1.429,10 4.807,65 352,00 114,15 28/02/2013
666 257600 EDUARDO VALADARES CABRAL ASSESSOR/ANALISTA ATIVO BELO HORIZONTE - COMARCA; EXTINTA - SECRETARIA ADMINISTRATIVA 0,00 1.648,56 8.242,82 0,00 0,00 0,00 9.891,38 1.162,64 1.657,76 0,00 2.820,40 7.070,98 352,00 2.532,04 28/02/2013
667 401700 EDWANIA AMORIM DO CARMO OFICIAL DO MP ATIVO RIBEIRÃO DAS NEVES - COMARCA; RIBEIRAO DAS NEVES-PJ-10PJ 4.553,46 273,21 0,00 0,00 0,00 0,00 4.826,67 530,93 390,75 0,00 921,68 3.904,99 352,00 0,00 28/02/2013
668 303600 EFIGENIO SARAIVA LOPES ANALISTA DO MP ATIVO BELO HORIZONTE - COMARCA; DIRETORIA DE PAGAMENTO DE PESSOAL-DPAG 8.788,36 878,84 0,00 0,00 0,00 0,00 9.667,20 1.284,24 1.433,59 0,00 2.717,83 6.949,37 352,00 2.790,87 28/02/2013
669 312000 ELAINE APARECIDA DE ARAUJO RODRIGUES ASSESSOR/OFICIAL ATIVO DIVINÓPOLIS - COMARCA; DIVINOPOLIS-PJ-02PJ 0,00 2.941,87 5.883,73 0,00 0,00 0,00 8.825,60 952,14 1.368,88 0,00 2.321,02 6.504,58 352,00 2.369,13 28/02/2013
670 286000 ELAINE APARECIDA SILVA BERZOINI OFICIAL DO MP ATIVO JUIZ DE FORA - COMARCA; JUIZ DE FORA-PJ-07PJ 5.518,54 551,85 0,00 0,00 0,00 0,00 6.070,39 677,50 695,15 0,00 1.372,65 4.697,74 587,00 138,68 28/02/2013
671 509000 ELAINE CANDIDA PONTES OFICIAL DO MP ATIVO BELO HORIZONTE - COMARCA; BH-02PJ FAMILIA-SECRETARIA 2.772,23 0,00 0,00 0,00 0,00 0,00 2.772,23 304,95 56,74 0,00 361,69 2.410,54 352,00 0,00 28/02/2013
672 283601 ELAINE CRISTINA MEQUELINO DUARTE ANALISTA DO MP ATIVO ALFENAS - COMARCA; ALFENAS-PJ-04PJ 6.379,14 382,75 0,00 0,00 0,00 0,00 6.761,89 778,49 864,39 0,00 1.642,88 5.119,01 587,00 638,09 28/02/2013
673 455700 ELAINE DE OLIVEIRA CASTRO ANALISTA DO MP ATIVO POMPÉU - COMARCA; POMPEU-PJ-UNPJ 5.176,02 0,00 0,00 0,00 0,00 0,00 5.176,02 569,36 476,25 0,00 1.045,61 4.130,41 352,00 0,00 28/02/2013
674 367200 ELAINE MUNIZ BARBOSA FIGUEIREDO ANALISTA DO MP ATIVO BELO HORIZONTE - COMARCA; DIRETORIA DE REDES E BANCOS DE DADOS 7.487,46 748,75 0,00 0,00 0,00 0,00 8.236,21 971,84 1.225,23 0,00 2.197,07 6.039,14 352,00 951,22 28/02/2013
675 176900 ELAINE RIBEIRO TAVEIRA OFICIAL DO MP ATIVO BELO HORIZONTE - COMARCA; DIRETORIA DE PESSOAL ADMINISTRATIVO - DPAD 5.698,20 1.139,64 0,00 0,00 0,00 0,00 6.837,84 786,69 882,98 0,00 1.669,67 5.168,17 352,00 633,80 28/02/2013
676 496200 ELAINE SABRINA DIAS MOREIRA ANALISTA DO MP ATIVO CORONEL FABRICIANO - COMARCA; CORONEL FABRICIANO-PJ-03PJ 4.701,73 0,00 0,00 0,00 0,00 0,00 4.701,73 517,19 364,52 0,00 881,71 3.820,02 352,00 0,00 28/02/2013
677 489200 ELAINE VICENTINO GARCIA ANALISTA DO MP ATIVO BELO HORIZONTE - COMARCA; CENTRAL DE APOIO TECNICO-SETOR CONTABIL 5.176,02 1.035,20 0,00 0,00 0,00 0,00 6.211,22 683,23 729,62 0,00 1.412,85 4.798,37 4.037,68 294,77 28/02/2013
678 244500 ELCI ALVES DE SOUZA ASSESSOR ATIVO BELO HORIZONTE - COMARCA; CAO-DH APOIO COMUNITARIO-SEC ADM 0,00 739,76 3.698,79 0,00 0,00 0,00 4.438,55 457,49 318,74 0,00 776,23 3.662,32 3.567,68 241,18 28/02/2013
679 472500 ELCI VAZ DE OLIVEIRA FILHO ANALISTA DO MP ATIVO PIUMHI - COMARCA; PIUMHI-PJ-02PJ 5.698,20 1.709,46 0,00 0,00 0,00 0,00 7.407,66 844,86 1.022,45 0,00 1.867,31 5.540,35 352,00 568,64 28/02/2013
680 385200 ELCI VIANA REIS OFICIAL DO MP ATIVO RIO PARDO DE MINAS - COMARCA; RIO PARDO DE MINAS-PJ-SECRETARIA 4.553,46 1.366,04 0,00 0,00 0,00 0,00 5.919,50 651,15 658,22 0,00 1.309,37 4.610,13 3.567,68 294,77 28/02/2013
681 289801 ELCIO JOSE DOS SANTOS ANALISTA DO MP ATIVO BELO HORIZONTE - COMARCA; EXTINTA - DIVISAO DE SERVICOS GERAIS 5.698,20 0,00 0,00 0,00 1.899,40 0,00 7.597,60 745,17 1.126,39 0,00 1.871,56 5.726,04 352,00 1.994,27 28/02/2013
682 123000 ELCIO VILHENA DE FARIA OFICIAL DO MP ATIVO BELO HORIZONTE - COMARCA; ARQUIVO DO MINISTERIO PUBLICO DO ESTADO DE MG 11.161,27 8.929,02 0,00 0,00 0,00 2.209,93 22.300,22 2.738,37 4.734,25 0,00 7.472,62 14.827,60 611,84 6.869,12 28/02/2013
683 503200 ELDER GOMES DUTRA ANALISTA DO MP ATIVO IGARAPÉ - COMARCA; IGARAPE-PJ-01PJ 5.176,02 0,00 0,00 0,00 0,00 0,00 5.176,02 569,36 476,25 0,00 1.045,61 4.130,41 352,00 0,00 28/02/2013
684 319600 ELEN TULER DE ALBERGARIA ANALISTA DO MP ATIVO BELO HORIZONTE - COMARCA; BH-19PJ SAUDE 6.379,14 1.275,83 0,00 0,00 0,00 0,00 7.654,97 899,62 1.082,97 0,00 1.982,59 5.672,38 587,00 867,93 28/02/2013
685 333100 ELENILDA ROCHA DE MORAES MELO OFICIAL DO MP ATIVO ALÉM PARAÍBA - COMARCA; ALEM PARAIBA-PJ-03PJ 4.005,77 400,58 0,00 0,00 0,00 0,00 4.406,35 484,70 227,98 0,00 712,68 3.693,67 352,00 0,00 28/02/2013
686 151000 ELI LOURENCO RIBEIRO AGENTE DO MP ATIVO BELO HORIZONTE - COMARCA; BH-17PJ PATRIMONIO PUBLICO-SECRETARIA 5.883,73 1.765,12 0,00 0,00 0,00 0,00 7.648,85 906,74 618,62 0,00 1.525,36 6.123,49 3.567,68 1.238,15 28/02/2013
687 205500 ELIANA ALVES DE SOUSA OFICIAL DO MP ATIVO GOVERNADOR VALADARES - COMARCA; GOVERNADOR VALADARES-PJ-07PJ 4.854,78 970,96 0,00 0,00 0,00 0,00 5.825,74 669,60 635,27 0,00 1.304,87 4.520,87 3.567,68 642,29 28/02/2013
688 301700 ELIANA DA SILVEIRA ANALISTA DO MP ATIVO BELO HORIZONTE - COMARCA; ASSESS TECNICO-JUR JUNTO AS PROC. DE JUST 7.731,26 773,13 0,00 0,00 0,00 0,00 8.504,39 1.046,60 1.243,58 0,00 2.290,18 6.214,21 4.059,85 1.809,59 28/02/2013
689 103400 ELIANA DE FARIA MORAIS JOTTA OFICIAL DO MP ATIVO BELO HORIZONTE - COMARCA; DIRET DE PESSOAL DO MINISTERIO PUBLICO - DPMP 17.785,38 7.114,15 0,00 0,00 0,00 0,00 24.899,53 3.335,31 4.973,83 781,91 9.091,05 15.808,48 4.911,13 7.911,56 28/02/2013
690 251500 ELIANA DE LIMA MILAGRES FONSECA ANALISTA DO MP ATIVO CONTAGEM - COMARCA; CONTAGEM-PJ-17PJ 7.731,26 1.546,25 0,00 0,00 0,00 0,00 9.277,51 1.160,22 1.385,51 0,00 2.545,73 6.731,78 352,00 1.933,88 28/02/2013
691 503900 ELIANA DIAS DUTRA FERREIRA OFICIAL DO MP ATIVO GOVERNADOR VALADARES - COMARCA; GOVERNADOR VALADARES-PJ-10PJ 3.359,85 0,00 0,00 0,00 0,00 0,00 3.359,85 369,58 57,27 0,00 426,85 2.933,00 587,00 0,00 28/02/2013
692 413900 ELIANA PINTO DE OLIVEIRA NEVES ANALISTA DO MP ATIVO CAMPO BELO - COMARCA; CAMPO BELO-PJ-03PJ 6.379,14 382,75 0,00 0,00 0,00 0,00 6.761,89 805,70 864,39 0,00 1.670,09 5.091,80 3.567,68 1.206,96 28/02/2013
693 228200 ELIANA RODRIGUES DA CUNHA PINHEIRO COORDENADOR/OFICIAL ATIVO BELO HORIZONTE - COMARCA; SUPERINTENDÊNCIA DE ENGENHARIA E ARQUITETURA 0,00 1.934,99 9.674,93 0,00 0,00 0,00 11.609,92 1.621,33 2.003,66 0,00 3.624,99 7.984,93 694,36 3.789,84 28/02/2013
694 386600 ELIANA SABINO CHAVES ANALISTA DO MP ATIVO CARATINGA - COMARCA; CARATINGA-PJ-05PJ 6.075,32 2.430,13 0,00 0,00 0,00 0,00 8.505,45 1.058,68 1.243,84 0,00 2.302,52 6.202,93 352,00 1.525,98 28/02/2013
695 297400 ELIANE AUGUSTA RIBEIRO COSTA ANALISTA DO MP ATIVO CONSELHEIRO LAFAIETE - COMARCA; CONSELHEIRO LAFAIETE-PJ-05PJ 8.788,36 878,84 0,00 0,00 0,00 0,00 9.667,20 1.241,68 1.433,59 0,00 2.675,27 6.991,93 587,00 2.079,15 28/02/2013
696 510600 ELIANE CAROLINA MAIA ANALISTA DO MP ATIVO IGARAPÉ - COMARCA; IGARAPE-PJ-02PJ 4.270,85 0,00 0,00 0,00 0,00 0,00 4.270,85 469,79 278,24 0,00 748,03 3.522,82 822,00 0,00 28/02/2013
697 269300 ELIANE EDLAMAR ROCHA OFICIAL DO MP ATIVO PEDRO LEOPOLDO - COMARCA; PEDRO LEOPOLDO-PJ-02PJ 5.012,79 501,28 0,00 0,00 0,00 0,00 5.514,07 658,54 627,39 0,00 1.285,93 4.228,14 2.650,39 683,39 28/02/2013
698 359100 ELIANE FARIAS DE OLIVEIRA ASSESSOR ATIVO BELO HORIZONTE - COMARCA; EXTINTA-TUTELA DAS FUNDACOES-21 PJ- GABINETE 0,00 0,00 2.215,31 0,00 0,00 0,00 2.215,31 282,40 16,66 0,00 299,06 1.916,25 352,00 0,00 28/02/2013
699 262600 ELIANE FERREIRA SOARES ASSESSOR ATIVO BELO HORIZONTE - COMARCA; BH-18PJ DIREITOS HUMANOS 0,00 739,76 3.698,79 0,00 0,00 0,00 4.438,55 457,49 318,74 0,00 776,23 3.662,32 587,00 104,49 28/02/2013
700 204400 ELIANE GLAUCE DE QUEIROS MAIA OFICIAL DO MP ATIVO GUANHÃES - COMARCA; GUANHAES-PJ-01PJ 7.487,46 1.497,49 0,00 0,00 0,00 0,00 8.984,95 1.074,77 1.408,49 0,00 2.483,26 6.501,69 352,00 1.158,53 28/02/2013
701 91800 ELIANE KAPLER OFICIAL DO MP ATIVO BELO HORIZONTE - COMARCA; SUPERINTENDÊNCIA DE ENGENHARIA E ARQUITETURA 9.674,93 3.869,97 0,00 0,00 0,00 0,00 13.544,90 1.875,10 2.429,95 0,00 4.305,05 9.239,85 4.037,68 4.847,29 28/02/2013
702 334200 ELIANE MARCIA DE OLIVEIRA BRITO OFICIAL DO MP ATIVO BELO HORIZONTE - COMARCA; BH-09PJ AUDITORIA MILITAR 4.005,77 400,58 0,00 0,00 0,00 0,00 4.406,35 484,70 305,37 0,00 790,07 3.616,28 352,00 0,00 28/02/2013
703 365900 ELIANE MARIA DE OLIVEIRA FERREIRA OFICIAL DO MP ATIVO SETE LAGOAS - COMARCA; SETE LAGOAS-PJ-SECRETARIA 4.854,78 1.456,43 0,00 0,00 0,00 0,00 6.311,21 742,00 754,09 0,00 1.496,09 4.815,12 3.447,53 1.053,50 28/02/2013
704 320600 ELIANE STADLER DE SOUZA OFICIAL DO MP ATIVO FRANCISCO SÁ - COMARCA; FRANCISCO SA-PJ-SECRETARIA 4.701,73 470,17 0,00 0,00 0,00 0,00 5.171,90 575,39 427,95 0,00 1.003,34 4.168,56 352,00 103,01 28/02/2013
705 448900 ELIAS PEREIRA OTONI ASSESSOR ATIVO BELO HORIZONTE - COMARCA; EXTINTA - DIVISAO DE TRANSPORTES 0,00 0,00 2.215,31 0,00 0,00 0,00 2.215,31 282,40 16,66 0,00 299,06 1.916,25 352,00 0,00 28/02/2013
706 495400 ELICA SOUZA GASPARONI MATTOS OFICIAL DO MP ATIVO UBÁ - COMARCA; UBA-PJ-SECRETARIA 2.772,23 0,00 0,00 0,00 0,00 0,00 2.772,23 304,95 56,74 0,00 361,69 2.410,54 352,00 0,00 28/02/2013
707 86600 ELIENE FERREIRA DA SILVA OFICIAL DO MP ATIVO BELO HORIZONTE - COMARCA; BH-22PJ PES COM DEF E IDOSOS 15.227,00 7.613,50 0,00 0,00 0,00 0,00 22.840,50 3.141,52 4.752,34 0,00 7.893,86 14.946,64 4.502,26 7.168,31 28/02/2013
708 183800 ELIENE MARIA CUNHA OFICIAL DO MP ATIVO BELO HORIZONTE - COMARCA; DIRETORIA DE PESSOAL ADMINISTRATIVO - DPAD 7.731,26 1.546,25 0,00 0,00 0,00 0,00 9.277,51 1.147,74 1.432,80 0,00 2.580,54 6.696,97 3.567,68 2.095,00 28/02/2013
709 172300 ELINA APARECIDA SILVA ASSESSOR ATIVO BELO HORIZONTE - COMARCA; BH-19PJ SAUDE-SECRETARIA 130PJ 0,00 443,06 2.215,31 0,00 0,00 0,00 2.658,37 331,14 20,44 0,00 351,58 2.306,79 587,00 0,00 28/02/2013
710 492500 ELINE CAMPOS DA FONSECA CUNHA ANALISTA DO MP ATIVO CAPELINHA - COMARCA; CAPELINHA-PJ-02PJ 4.270,85 0,00 0,00 0,00 0,00 0,00 4.270,85 518,11 366,19 0,00 884,30 3.386,55 587,00 439,20 28/02/2013
711 256500 ELISABETE NOGUEIRA ANALISTA DO MP ATIVO BELO HORIZONTE - COMARCA; BH-21PJ TUTELA DAS FUNDACOES-ASS CURADORES 7.487,46 2.246,24 0,00 0,00 0,00 0,00 9.733,70 1.271,58 1.497,16 0,00 2.768,74 6.964,96 3.802,68 2.597,59 28/02/2013
712 355000 ELISANGELA DARLANTONI RIBEIRO OFICIAL DO MP ATIVO ARAXÁ - COMARCA; ARAXA-PJ-05PJ 3.879,42 387,94 0,00 0,00 0,00 0,00 4.267,36 469,41 277,54 0,00 746,95 3.520,41 587,00 0,00 28/02/2013
713 323800 ELISANGELA GONCALVES DE JESUS OFICIAL DO MP ATIVO BELO HORIZONTE - COMARCA; CAO-TS-TERCEIRO SETOR-SECRETARIA 4.005,77 400,58 0,00 0,00 0,00 0,00 4.406,35 484,70 305,37 0,00 790,07 3.616,28 352,00 0,00 28/02/2013
714 261400 ELISANGELA MENDES OFICIAL DO MP ATIVO POUSO ALEGRE - COMARCA; POUSO ALEGRE-PJ-05PJ 5.176,02 517,60 0,00 0,00 0,00 0,00 5.693,62 626,30 602,93 0,00 1.229,23 4.464,39 2.829,94 227,14 28/02/2013
715 507400 ELISANGELA MIGUEL DA ROCHA ASSESSOR ATIVO BELO HORIZONTE - COMARCA; CGMP-DIVIS DE APOIO FISC ORIENTACAO FUNCIONAL 0,00 0,00 2.215,31 0,00 0,00 0,00 2.215,31 282,40 16,66 0,00 299,06 1.916,25 352,00 0,00 28/02/2013
716 461700 ELIZABETH ALEIXO DA PAZ ANALISTA DO MP ATIVO JUIZ DE FORA - COMARCA; JUIZ DE FORA-PJ-24PJ 5.698,20 0,00 0,00 0,00 1.899,40 0,00 7.597,60 626,80 1.126,39 0,00 1.753,19 5.844,41 352,00 0,00 28/02/2013
717 198100 ELIZABETH CARDOSO CAMPOS OFICIAL DO MP ATIVO PIUMHI - COMARCA; PIUMHI-PJ-02PJ 5.883,73 4.706,98 0,00 0,00 0,00 1.164,98 11.755,69 1.404,67 2.121,87 0,00 3.526,54 8.229,15 352,00 2.930,46 28/02/2013
718 227300 ELIZABETH COIMBRA FELIX ASSESSOR/OFICIAL ATIVO BELO HORIZONTE - COMARCA; DIRETORIA DE PAGAMENTO DE PESSOAL-DPAG 0,00 2.472,85 8.242,82 0,00 0,00 0,00 10.715,67 912,72 1.805,68 0,00 2.718,40 7.997,27 3.567,68 2.808,26 28/02/2013
719 354800 ELIZABETH DOS REIS OFICIAL DO MP ATIVO BELO HORIZONTE - COMARCA; EXTINTA - DIVISÃO DE MATERIAL PERMANENTE 4.854,78 485,48 0,00 0,00 0,00 0,00 5.340,26 594,53 474,14 0,00 1.068,67 4.271,59 352,00 130,81 28/02/2013
720 452800 ELIZANGELA MARIA DAVI OFICIAL DO MP ATIVO ARCOS - COMARCA; ARCOS-PJ-01PJ 3.051,96 0,00 0,00 0,00 0,00 0,00 3.051,96 335,72 86,84 0,00 422,56 2.629,40 587,00 0,00 28/02/2013
721 496300 ELIZANGELA MARQUES PINTO COELHO OFICIAL DO MP ATIVO BELO HORIZONTE - COMARCA; DIRETORIA DE PESSOAL ADMINISTRATIVO - DPAD 3.051,96 0,00 0,00 0,00 0,00 0,00 3.051,96 335,72 86,84 0,00 422,56 2.629,40 352,00 0,00 28/02/2013
722 422500 ELIZETE FORTES DA CUNHA ANALISTA DO MP ATIVO RIBEIRÃO DAS NEVES - COMARCA; RIBEIRAO DAS NEVES-PJ-01PJ 6.379,14 382,75 0,00 0,00 0,00 0,00 6.761,89 750,61 864,39 0,00 1.615,00 5.146,89 587,00 108,19 28/02/2013
723 506100 ELLEM CRISTINA ROCHA FONSECA BOWEN ANALISTA DO MP ATIVO GOVERNADOR VALADARES - COMARCA; COORD REG PJ DEF EDU DIR CRIANCA ADOL RIODOCE 4.136,15 0,00 0,00 0,00 0,00 0,00 4.136,15 458,88 258,36 0,00 717,24 3.418,91 822,00 35,46 28/02/2013
724 468200 ELLEN CRISTINA BERNARDES DARE ANALISTA DO MP ATIVO TRÊS PONTAS - COMARCA; TRES PONTAS-PJ-02PJ 5.698,20 0,00 0,00 0,00 0,00 0,00 5.698,20 728,88 831,17 0,00 1.560,05 4.138,15 555,24 946,59 28/02/2013
725 418800 ELLEN CRISTINA DE QUEIROZ FERREIRA ANALISTA DO MP ATIVO BELO HORIZONTE - COMARCA; CENTRAL DE APOIO TECNICO-SETOR CONTABIL 6.379,14 382,75 0,00 0,00 0,00 0,00 6.761,89 788,48 867,15 0,00 1.655,63 5.106,26 3.567,68 1.040,40 28/02/2013
726 328401 ELLEN CRISTINA FERREIRA MORAIS MONTEIRO ANALISTA DO MP ATIVO CAMANDUCAIA - COMARCA; CAMANDUCAIA-PJ-UNPJ 6.379,14 382,75 0,00 0,00 0,00 0,00 6.761,89 766,79 769,81 0,00 1.536,60 5.225,29 587,00 261,86 28/02/2013
727 447100 ELLEN ROSANA DE MACEDO BORGES OFICIAL DO MP ATIVO UBERLÂNDIA - COMARCA; UBERLANDIA-PJ-17PJ 3.757,11 225,43 0,00 0,00 0,00 0,00 3.982,54 438,08 220,50 0,00 658,58 3.323,96 352,00 0,00 28/02/2013
728 477700 ELMA JACOB OFICIAL DO MP ATIVO BELO HORIZONTE - COMARCA; CAO-CRIANCAS E ADOLESCENTES 3.051,96 1.525,98 0,00 0,00 0,00 0,00 4.577,94 503,57 339,73 0,00 843,30 3.734,64 1.714,26 102,17 28/02/2013
729 123300 ELMA PAULA DOS SANTOS COELHO OFICIAL DO MP ATIVO BELO HORIZONTE - COMARCA; BH-19PJ SAUDE-SECRETARIA 130PJ 8.788,36 7.030,69 0,00 0,00 0,00 1.740,10 17.559,15 2.143,26 3.465,08 0,00 5.608,34 11.950,81 926,29 5.374,90 28/02/2013
730 356500 ELOISA CARDOSO SILVA FRANCA OFICIAL DO MP ATIVO PEÇANHA - COMARCA; PECANHA-PJ-SECRETARIA 3.879,42 387,94 0,00 0,00 0,00 0,00 4.267,36 469,41 277,54 0,00 746,95 3.520,41 352,00 0,00 28/02/2013
731 251901 ELOISA COSTA E SILVA ANALISTA DO MP ATIVO SANTOS DUMONT - COMARCA; SANTOS DUMONT-PJ-02PJ 5.176,02 1.035,20 0,00 0,00 0,00 0,00 6.211,22 683,23 729,62 0,00 1.412,85 4.798,37 2.836,49 227,74 28/02/2013
732 400400 ELOIZA MARIA FERRI PIRES DA SILVA OFICIAL DO MP ATIVO BELO HORIZONTE - COMARCA; CAO-MEIO AMBIENTE 3.757,11 225,43 0,00 0,00 0,00 0,00 3.982,54 438,08 185,27 0,00 623,35 3.359,19 352,00 0,00 28/02/2013
733 258000 ELSO CECIANO PALMEIRA ASSESSOR/OFICIAL ATIVO BELO HORIZONTE - COMARCA; DIRET DE PESSOAL DO MINISTERIO PUBLICO - DPMP 0,00 2.994,98 7.487,46 0,00 0,00 0,00 10.482,44 1.095,39 2.129,98 0,00 3.225,37 7.257,07 3.567,68 5.218,23 28/02/2013
734 206900 ELVIRA RITA DOS SANTOS ANALISTA DO MP ATIVO BELO HORIZONTE - COMARCA; CENTRAL DE APOIO TECNICO-SETOR CONTABIL 12.062,58 2.412,52 0,00 0,00 0,00 0,00 14.475,10 1.970,91 2.752,20 0,00 4.723,11 9.751,99 3.705,36 4.820,26 28/02/2013
735 506800 ELVIS FERREIRA DA SILVA ANALISTA DO MP ATIVO BELO HORIZONTE - COMARCA; DIRETORIA DE SISTEMAS DE INFORMACAO 5.176,02 0,00 0,00 0,00 0,00 0,00 5.176,02 569,36 428,96 0,00 998,32 4.177,70 352,00 0,00 28/02/2013
736 154300 ELZA MARIA DA SILVA OFICIAL DO MP ATIVO ERVÁLIA - COMARCA; ERVALIA-PJ-SECRETARIA 6.801,32 4.760,93 0,00 0,00 0,00 1.311,95 12.874,20 1.573,30 2.428,12 0,00 4.001,42 8.872,78 352,00 4.279,19 28/02/2013
737 206600 ELZA MARIA GONTIJO DE MAGALHAES GOMES ANALISTA DO MP ATIVO BELO HORIZONTE - COMARCA; DIVISAO DE ACERVOS BIBLIOGRAFICOS 8.788,36 1.757,67 0,00 0,00 0,00 1.160,06 11.706,09 1.396,11 2.109,58 0,00 3.505,69 8.200,40 4.049,10 3.589,47 28/02/2013
738 368401 ELZIRA SIMOES DOS SANTOS ASSESSOR ATIVO BELO HORIZONTE - COMARCA; DIRETORIA DE RELACOES PUBLICAS E CERIMONIAL 0,00 0,00 7.487,46 0,00 0,00 0,00 7.487,46 457,49 1.142,66 0,00 1.600,15 5.887,31 3.567,68 1.092,05 28/02/2013
739 437400 EMANOELLE DA SILVA RODRIGUES OFICIAL DO MP ATIVO UNAÍ - COMARCA; UNAI-PJ-03PJ 3.757,11 225,43 0,00 0,00 0,00 0,00 3.982,54 438,08 185,27 0,00 623,35 3.359,19 352,00 0,00 28/02/2013
740 458900 EMANUELLE CONRAD SILVA FREDERICO ANALISTA DO MP ATIVO DIVINÓPOLIS - COMARCA; DIVINOPOLIS-PJ-08PJ 5.698,20 0,00 0,00 0,00 0,00 0,00 5.698,20 633,70 604,06 0,00 1.237,76 4.460,44 2.834,52 337,03 28/02/2013
741 284100 EMERSON MAGNO ALMEIDA PEDROSA DA FONSECA ANALISTA DO MP ATIVO BELO HORIZONTE - COMARCA; CENTRAL DE APOIO TECNICO-SETOR CONTABIL 8.788,36 878,84 0,00 0,00 0,00 0,00 9.667,20 1.234,52 790,86 0,00 2.025,38 7.641,82 4.037,68 2.560,45 28/02/2013
742 179900 EMERSON MORAIS DIAS OFICIAL DO MP ATIVO BELO HORIZONTE - COMARCA; EXTINTA - DIVISÃO DE APOIO À LICITAÇÃO 7.731,26 1.546,25 0,00 0,00 0,00 0,00 9.277,51 1.306,02 1.480,09 0,00 2.786,11 6.491,40 352,00 3.321,67 28/02/2013
743 488700 EMERSON SIQUEIRA DE SOUSA TEIXEIRA ANALISTA DO MP ATIVO TARUMIRIM - COMARCA; TARUMIRIM-PJ-UNPJ 5.176,02 0,00 0,00 0,00 0,00 0,00 5.176,02 569,36 382,11 0,00 951,47 4.224,55 822,00 0,00 28/02/2013
744 194200 EMILIA ALVES FERREIRA RAMOS OFICIAL DO MP ATIVO UBERLÂNDIA - COMARCA; UBERLANDIA-PJ-04PJ 4.409,86 881,97 0,00 0,00 0,00 0,00 5.291,83 589,14 410,01 0,00 999,15 4.292,68 3.527,10 402,81 28/02/2013
745 123400 EMILIO CARLOS MARTINS OFICIAL DO MP ATIVO AREADO - COMARCA; AREADO-PJ-UNPJ 9.074,45 6.352,13 0,00 0,00 0,00 0,00 15.426,58 2.143,98 2.937,78 0,00 5.081,76 10.344,82 553,74 4.852,16 28/02/2013
746 297000 ENEIDA SOARES COSTA MELO ANALISTA DO MP ATIVO PIUMHI - COMARCA; PIUMHI-PJ-01PJ 8.788,36 878,84 0,00 0,00 0,00 0,00 9.667,20 1.234,52 1.575,47 0,00 2.809,99 6.857,21 3.567,68 2.560,45 28/02/2013
747 276000 ENEZIO RODRIGUES DE SOUZA FILHO OFICIAL DO MP ATIVO UBERLÂNDIA - COMARCA; UBERLANDIA-COORD CONJ-FAMÍLIA E JUIZ ESP CRIM 5.344,58 534,46 0,00 0,00 0,00 0,00 5.879,04 674,99 648,32 0,00 1.323,31 4.555,73 352,00 312,10 28/02/2013
748 387700 ENI MARIA DOS REIS OFICIAL DO MP ATIVO POUSO ALEGRE - COMARCA; POUSO ALEGRE-PJ-03PJ 4.553,46 273,21 0,00 0,00 0,00 0,00 4.826,67 530,93 350,85 0,00 881,78 3.944,89 3.567,68 241,18 28/02/2013
749 417300 ERIC BARATTI DA SILVA ANALISTA DO MP ATIVO PRATA - COMARCA; PRATA-PJ-UNPJ 5.883,73 353,02 0,00 0,00 2.078,92 0,00 8.315,67 694,01 1.307,57 0,00 2.001,58 6.314,09 352,00 126,58 28/02/2013
750 398900 ERIC TEIXEIRA SILVA OFICIAL DO MP ATIVO UBERLÂNDIA - COMARCA; UBERLANDIA-PJ-08PJ 3.757,11 225,43 0,00 0,00 1.327,51 0,00 5.310,05 438,08 549,21 0,00 987,29 4.322,76 352,00 0,00 28/02/2013
751 274200 ERICA DE SOUZA ANDRADE OFICIAL DO MP ATIVO BELO HORIZONTE - COMARCA; BH-18PJ DIREITOS HUMANOS 5.344,58 534,46 0,00 0,00 0,00 0,00 5.879,04 653,21 648,32 0,00 1.301,53 4.577,51 352,00 103,71 28/02/2013
752 225700 ERICA GOMES DO COUTO OFICIAL DO MP ATIVO BELO HORIZONTE - COMARCA; BH-18PJ VIOLENCIA DOMESTICA 6.177,98 1.235,60 0,00 0,00 0,00 0,00 7.413,58 918,05 1.023,89 0,00 1.941,94 5.471,64 3.567,68 1.652,76 28/02/2013
753 524800 ERICA MACHADO DA COSTA E SOUZA ANALISTA DO MP ATIVO BELO HORIZONTE - COMARCA; BH-02PJ FAMILIA 4.553,46 0,00 0,00 0,00 1.517,82 0,00 6.071,28 500,88 741,28 0,00 1.242,16 4.829,12 352,00 0,00 28/02/2013
754 249500 ERICA RODRIGUES ANDRADE OFICIAL DO MP ATIVO SÃO FRANCISCO - COMARCA; SAO FRANCISCO-PJ-02PJ 4.409,86 881,97 0,00 0,00 0,00 0,00 5.291,83 582,10 504,60 0,00 1.086,70 4.205,13 2.663,15 190,31 28/02/2013
755 260800 ERICA VIANA GIARDINI DE OLIVEIRA OFICIAL DO MP ATIVO BELO HORIZONTE - COMARCA; EXTINTA - DIVISÃO DE COMPRAS 5.883,73 588,37 0,00 0,00 0,00 0,00 6.472,10 736,62 793,47 0,00 1.530,09 4.942,01 352,00 277,86 28/02/2013
756 299800 ERICH DOUGLAS RIBEIRO GARCIA ANALISTA DO MP ATIVO BELO HORIZONTE - COMARCA; CENTRAL DE APOIO TECNICO-SETOR CONTABIL 7.982,93 798,29 0,00 0,00 0,00 0,00 8.781,22 1.130,05 1.358,62 0,00 2.488,67 6.292,55 3.567,68 2.483,58 28/02/2013
757 365000 ERICK EDUARDO JOSE DA SILVA OFICIAL DO MP ATIVO ALÉM PARAÍBA - COMARCA; ALEM PARAIBA-PJ-02PJ 3.879,42 387,94 0,00 0,00 0,00 0,00 4.267,36 549,86 432,87 0,00 982,73 3.284,63 352,00 731,40 28/02/2013
758 123500 ERICO SEGISMUNDO LIMA VILASBOAS ANALISTA DO MP ATIVO MONTES CLAROS - COMARCA; COORD REG PJ DEF EDUC DIR CRIANCA ADOL NORTE 13.036,58 10.429,26 0,00 0,00 0,00 0,00 23.465,84 3.354,51 5.016,87 0,00 8.371,38 15.094,46 847,38 8.564,15 28/02/2013
759 227400 ERIKA DE LAET GOULART BOECHAT ASSESSOR/OFICIAL ATIVO BELO HORIZONTE - COMARCA; ASSESSORIA ESPECIAL DO PGJ 0,00 1.497,49 7.487,46 0,00 0,00 0,00 8.984,95 978,67 1.457,86 0,00 2.436,53 6.548,42 352,00 2.488,75 28/02/2013
760 451800 ERIKA DELLARETTI GUIMARAES OFICIAL DO MP ATIVO LAVRAS - COMARCA; LAVRAS-PJ-04PJ 3.051,96 0,00 0,00 0,00 1.017,32 0,00 4.069,28 335,72 263,05 0,00 598,77 3.470,51 352,00 0,00 28/02/2013
761 285100 ERIKA FERREIRA DA SILVA OFICIAL DO MP ATIVO JUIZ DE FORA - COMARCA; JUIZ DE FORA-PJ-14PJ 5.344,58 534,46 0,00 0,00 0,00 0,00 5.879,04 675,42 648,32 0,00 1.323,74 4.555,30 352,00 384,88 28/02/2013
762 420100 ERIKA JEANINE VERSIANI DE CASTRO ANALISTA DO MP ATIVO MONTES CLAROS - COMARCA; COORD REG PJ DEF EDUC DIR CRIANCA ADOL NORTE 6.379,14 382,75 0,00 0,00 0,00 0,00 6.761,89 942,06 1.148,11 0,00 2.090,17 4.671,72 3.567,68 2.457,24 28/02/2013
763 491000 ERIKA ROCHA PEREIRA E SILVA ANALISTA DO MP ATIVO BELO HORIZONTE - COMARCA; DIRETORIA DE SISTEMAS DE INFORMACAO 5.176,02 0,00 0,00 0,00 1.725,34 0,00 6.901,36 569,36 950,72 0,00 1.520,08 5.381,28 352,00 0,00 28/02/2013
764 283201 ERIKA STEHLING ASSESSOR/ANALISTA ATIVO BELO HORIZONTE - COMARCA; CENTRAL DE APOIO TECNICO-SETOR DE ENGENHARIA 0,00 0,00 7.487,46 0,00 0,00 0,00 7.487,46 602,80 1.111,90 0,00 1.714,70 5.772,76 352,00 632,21 28/02/2013
765 383500 ERIKO RODRIGUES VELOSO ANALISTA DO MP ATIVO BOCAIÚVA - COMARCA; BOCAIUVA-PJ-01PJ 5.344,58 320,67 0,00 0,00 0,00 0,00 5.665,25 630,00 595,99 0,00 1.225,99 4.439,26 2.801,57 332,86 28/02/2013
766 254000 ERLANDIA DA SILVA MENDES OFICIAL DO MP ATIVO IPATINGA - COMARCA; IPATINGA-PJ-03PJ 5.698,20 1.709,46 0,00 0,00 0,00 0,00 7.407,66 821,98 880,57 0,00 1.702,55 5.705,11 4.037,68 408,04 28/02/2013
767 208600 ERNANE JOSE DA COSTA ANALISTA DO MP ATIVO BELO HORIZONTE - COMARCA; CENTRAL DE APOIO TECNICO-SETOR MEDICO 12.062,58 6.031,29 0,00 0,00 0,00 0,00 18.093,87 2.503,84 3.637,89 0,00 6.141,73 11.952,14 352,00 5.533,62 28/02/2013
768 260600 ERNANI CALDEIRA DE ANDRADE ANALISTA DO MP ATIVO BELO HORIZONTE - COMARCA; CENTRAL DE APOIO TECNICO-SETOR CONTABIL 9.674,93 1.934,99 0,00 0,00 0,00 0,00 11.609,92 1.499,35 2.003,66 0,00 3.503,01 8.106,91 3.567,68 3.099,86 28/02/2013
769 348500 ERNILANDIA OLIVEIRA DIAS OFICIAL DO MP ATIVO BELO HORIZONTE - COMARCA; EXTINTA - JUIZO DE FAMILIA-02 PJ-02 VARA 4.553,46 455,35 0,00 0,00 1.669,60 0,00 6.678,41 550,97 894,47 0,00 1.445,44 5.232,97 352,00 0,00 28/02/2013
770 199300 ERTON PORTINARI DE ANDRADE OFICIAL DO MP ATIVO SETE LAGOAS - COMARCA; SETE LAGOAS-PJ-01PJ 7.487,46 2.246,24 0,00 0,00 0,00 0,00 9.733,70 1.297,82 1.742,19 0,00 3.040,01 6.693,69 3.802,68 2.998,49 28/02/2013
771 430400 ESDRAS SOARES VILAS BOAS RIBEIRO OFICIAL DO MP ATIVO BELO HORIZONTE - COMARCA; BH-17PJ PATRIMONIO PUBLICO-SECRETARIA 3.757,11 225,43 0,00 0,00 0,00 0,00 3.982,54 438,08 220,50 0,00 658,58 3.323,96 352,00 0,00 28/02/2013
772 326900 ESTER ALICE PIMENTA OFICIAL DO MP ATIVO BELO HORIZONTE - COMARCA; COORD DE INCLUSAO E MOBILIZACAO SOCIAIS 4.005,77 400,58 0,00 0,00 0,00 0,00 4.406,35 484,70 266,68 0,00 751,38 3.654,97 1.542,67 89,30 28/02/2013
773 503700 ESTHER GONCALVES FONSECA ANALISTA DO MP ATIVO BELO HORIZONTE - COMARCA; DIRETORIA DE PUBLICIDADE INSTITUCIONAL 4.270,85 0,00 0,00 0,00 0,00 0,00 4.270,85 469,79 278,24 0,00 748,03 3.522,82 352,00 0,00 28/02/2013
774 475600 ETIENE DE FATIMA OLIVEIRA PEREIRA ANALISTA DO MP ATIVO PATROCÍNIO - COMARCA; PATROCINIO-PJ-04PJ 5.176,02 0,00 0,00 0,00 0,00 0,00 5.176,02 569,36 476,25 0,00 1.045,61 4.130,41 352,00 0,00 28/02/2013
775 428800 EUGENIA RODRIGUES TRAJANO BORGES ANALISTA DO MP ATIVO UBERABA - COMARCA; UBERABA-PJ-08PJ 5.344,58 320,67 0,00 0,00 1.888,42 0,00 7.553,67 629,76 1.115,30 0,00 1.745,06 5.808,61 352,00 104,70 28/02/2013
776 272700 EUGENIO DE BARCELOS FILHO OFICIAL DO MP ATIVO FRUTAL - COMARCA; FRUTAL-PJ-02PJ 4.553,46 455,35 0,00 0,00 0,00 0,00 5.008,81 557,86 388,03 0,00 945,89 4.062,92 2.306,41 273,75 28/02/2013
777 254100 EULALIA ALVES MIRANDA LUCAS OFICIAL DO MP ATIVO ALMENARA - COMARCA; ALMENARA-PJ-SECRETARIA 5.344,58 1.068,92 0,00 0,00 0,00 0,00 6.413,50 712,31 637,25 0,00 1.349,56 5.063,94 352,00 108,36 28/02/2013
778 225800 EURO CESAR VIEIRA BARBOSA ANALISTA DO MP ATIVO BELO HORIZONTE - COMARCA; AUDITORIA INTERNA 10.315,17 2.063,03 0,00 0,00 0,00 0,00 12.378,20 1.730,19 2.191,69 0,00 3.921,88 8.456,32 587,00 4.346,19 28/02/2013
779 199400 EUSTAQUIO ADAILTON LIMA E SILVA OFICIAL DO MP ATIVO MANGA - COMARCA; MANGA-PJ-01PJ 7.487,46 2.994,99 0,00 0,00 0,00 0,00 10.482,45 1.315,64 1.633,12 0,00 2.948,76 7.533,69 587,00 2.174,25 28/02/2013
780 249000 EUSTAQUIO GOMES DE OLIVEIRA OFICIAL DO MP ATIVO BELO HORIZONTE - COMARCA; CAO-TS-CONTROLADORIA E APOIO AS ENTIDADES  5.883,73 2.353,49 0,00 0,00 0,00 0,00 8.237,22 977,11 1.130,90 0,00 2.108,01 6.129,21 352,00 1.001,92 28/02/2013
781 67100 EVA DAS DORES BARROS VALGAS ANALISTA DO MP ATIVO FERROS - COMARCA; FERROS-PJ-SECRETARIA 12.540,10 6.270,05 0,00 0,00 0,00 0,00 18.810,15 2.579,64 4.087,61 0,00 6.667,25 12.142,90 4.283,96 8.659,45 28/02/2013
782 517000 EVALDO SENA COSTA FILHO ANALISTA DO MP ATIVO CONTAGEM - COMARCA; CONTAGEM-PJ-21PJ 4.270,85 854,17 0,00 0,00 0,00 0,00 5.125,02 563,75 463,77 0,00 1.027,52 4.097,50 587,00 0,00 28/02/2013
783 217500 EVELANGE LEAO RABELO ASSESSOR ATIVO BELO HORIZONTE - COMARCA; COORD EST DEF DIR FAMILIA PESSOA DEFICI IDOSO 0,00 443,06 2.215,31 0,00 886,12 0,00 3.544,49 331,14 161,40 0,00 492,54 3.051,95 352,00 0,00 28/02/2013
784 469000 EWERTON CARDOSO DE SA RODRIGUES ANALISTA DO MP ATIVO CAMPO BELO - COMARCA; CAMPO BELO-PJ-01PJ 4.701,73 0,00 0,00 0,00 0,00 0,00 4.701,73 517,19 364,52 0,00 881,71 3.820,02 352,00 0,00 28/02/2013
785 368900 FABIANA BARBOSA SIQUEIRA OFICIAL DO MP ATIVO BELO HORIZONTE - COMARCA; CAO-ORDEM ECONOMICA E TRIBUTARIA-SECRETARIA 4.701,73 470,17 0,00 0,00 0,00 0,00 5.171,90 598,17 540,34 0,00 1.138,51 4.033,39 587,00 265,98 28/02/2013
786 273800 FABIANA CARNEIRO AMORIM COORDENADOR/OFICIAL ATIVO BELO HORIZONTE - COMARCA; BH-23PJ INFRACIONAL-COORD ADM INFRACIONAL 0,00 851,12 8.511,21 0,00 0,00 0,00 9.362,33 758,50 1.517,24 0,00 2.275,74 7.086,59 3.567,68 2.995,35 28/02/2013
787 519300 FABIANA DE OLIVEIRA LOUREIRO ANALISTA DO MP ATIVO BELO HORIZONTE - COMARCA; BH-09PJ AUDITORIA MILITAR 5.176,02 0,00 0,00 0,00 0,00 0,00 5.176,02 596,89 537,51 0,00 1.134,40 4.041,62 449,94 346,33 28/02/2013
788 363400 FABIANA DOURADO DUPIN VIEGAS ANALISTA DO MP ATIVO BELO HORIZONTE - COMARCA; PROC. JUSTICA DE HABEAS CORPUS 7.731,26 773,13 0,00 0,00 0,00 0,00 8.504,39 1.009,58 1.290,87 0,00 2.300,45 6.203,94 587,00 1.032,92 28/02/2013
789 410800 FABIANA DUARTE QUITITE ANALISTA DO MP ATIVO BELO HORIZONTE - COMARCA; COORD ESTADUAL COMBATE CRIMES CIBERNETICOS 6.379,14 382,75 0,00 0,00 0,00 0,00 6.761,89 814,67 949,51 0,00 1.764,18 4.997,71 352,00 960,63 28/02/2013
790 419500 FABIANA EULALIA DOS SANTOS ANALISTA DO MP ATIVO SÃO JOÃO DEL REI - COMARCA; SAO JOAO DEL REI-PJ-01PJ 6.379,14 382,75 0,00 0,00 0,00 0,00 6.761,89 772,44 864,39 0,00 1.636,83 5.125,06 352,00 371,66 28/02/2013
791 376300 FABIANA MATTOSO LEMOS ANALISTA DO MP ATIVO BELO HORIZONTE - COMARCA; COORD-GERAL DAS PJS POR BACIA HIDRO. DE MG 6.379,14 382,75 0,00 0,00 0,00 0,00 6.761,89 778,49 864,39 0,00 1.642,88 5.119,01 352,00 638,09 28/02/2013
792 331500 FABIANA PACHECO OFICIAL DO MP ATIVO GUAXUPÉ - COMARCA; GUAXUPE-PJ-01PJ 4.854,78 485,48 0,00 0,00 0,00 0,00 5.340,26 587,43 516,45 0,00 1.103,88 4.236,38 3.580,48 294,77 28/02/2013
793 510700 FABIANA PEREIRA SANTOS BORGES ANALISTA DO MP ATIVO BELO HORIZONTE - COMARCA; DIRETORIA DE SISTEMAS DE INFORMACAO 4.270,85 0,00 0,00 0,00 0,00 0,00 4.270,85 469,79 278,24 0,00 748,03 3.522,82 587,00 0,00 28/02/2013
794 181700 FABIANA SOUZA FERREIRA OFICIAL DO MP ATIVO BELO HORIZONTE - COMARCA; BH-23PJ CIVEL-SETOR ATEND PUB 4.136,15 827,23 0,00 0,00 0,00 0,00 4.963,38 545,97 339,53 0,00 885,50 4.077,88 2.334,70 131,08 28/02/2013
795 272900 FABIANA STOCKLER LEITE OFICIAL DO MP ATIVO LAJINHA - COMARCA; LAJINHA-PJ-SECRETARIA 5.344,58 1.603,37 0,00 0,00 0,00 0,00 6.947,95 819,69 815,35 0,00 1.635,04 5.312,91 719,10 845,52 28/02/2013
796 225500 FABIANE DE FATIMA PORTELLA ANALISTA DO MP ATIVO BELO HORIZONTE - COMARCA; SERVICO MEDICO-DEPTO PERIC MEDICA SAUDE OCUP 9.989,93 1.997,99 0,00 0,00 0,00 0,00 11.987,92 1.634,31 2.143,46 0,00 3.777,77 8.210,15 3.567,68 4.091,00 28/02/2013
797 433800 FABIANE DINIZ MATTOS ANALISTA DO MP ATIVO BELO HORIZONTE - COMARCA; BH-23PJ INFRACIONAL-ASS JURIDICA 5.883,73 353,02 0,00 0,00 0,00 0,00 6.236,75 714,57 735,87 0,00 1.450,44 4.786,31 352,00 322,95 28/02/2013
798 455000 FABIANO CARVALHO DA SILVA ANALISTA DO MP ATIVO LAVRAS - COMARCA; COORD REG DO MA DA BACIA DO RIO GRANDE 5.698,20 0,00 0,00 0,00 0,00 0,00 5.698,20 634,02 604,06 0,00 1.238,08 4.460,12 352,00 114,69 28/02/2013
799 498800 FABIANO FURTADO PESSOA COELHO ANALISTA DO MP ATIVO BELO HORIZONTE - COMARCA; DIRETORIA DE REDES E BANCOS DE DADOS 4.701,73 0,00 0,00 0,00 0,00 0,00 4.701,73 517,19 325,83 0,00 843,02 3.858,71 587,00 0,00 28/02/2013
800 394600 FABIANO PALHARES SILVA ANALISTA DO MP ATIVO BELO HORIZONTE - COMARCA; CENTRAL DE APOIO TECN-SETOR DE MEIO AMBIENTE 6.379,14 382,75 0,00 0,00 0,00 0,00 6.761,89 798,22 864,39 0,00 1.662,61 5.099,28 587,00 833,20 28/02/2013
801 444400 FABIANO SARAIVA MEDEIROS ANALISTA DO MP ATIVO BETIM - COMARCA; BETIM-PJ-11PJ 5.883,73 353,02 0,00 0,00 0,00 0,00 6.236,75 692,56 688,57 0,00 1.381,13 4.855,62 3.608,07 380,49 28/02/2013
802 408700 FABIANO SOARES PORTILHO ANALISTA DO MP ATIVO VIÇOSA - COMARCA; VICOSA-PJ-SECRETARIA 5.883,73 353,02 0,00 0,00 0,00 0,00 6.236,75 715,29 735,87 0,00 1.451,16 4.785,59 878,37 484,92 28/02/2013
803 384301 FABIO BRUNO DA SILVA ANALISTA DO MP ATIVO BONFIM - COMARCA; BONFIM-PJ-UNPJ 5.883,73 353,02 0,00 0,00 0,00 0,00 6.236,75 787,14 945,68 0,00 1.732,82 4.503,93 352,00 1.251,01 28/02/2013
804 442600 FABIO CARVALHO ANALISTA DO MP ATIVO BELO HORIZONTE - COMARCA; BH-09PJ AUDITORIA MILITAR 4.854,78 291,29 0,00 0,00 0,00 0,00 5.146,07 566,07 468,92 0,00 1.034,99 4.111,08 352,00 0,00 28/02/2013
805 123700 FABIO JOSE ANDRADE NOGUEIRA OFICIAL DO MP ATIVO FORMIGA - COMARCA; FORMIGA-PJ-SECRETARIA 7.022,72 4.915,91 0,00 0,00 0,00 0,00 11.938,63 1.593,25 870,21 0,00 2.463,46 9.475,17 352,00 3.420,47 28/02/2013
806 240101 FABIO JUNQUEIRA DE ASSIS FONSECA OFICIAL DO MP ATIVO BELO HORIZONTE - COMARCA; BH-17PJ PATRIMONIO PUBLICO 3.757,11 375,71 0,00 0,00 1.377,61 0,00 5.510,43 454,61 599,77 0,00 1.054,38 4.456,05 352,00 0,00 28/02/2013
807 271500 FABIO LUIZ VIEIRA OFICIAL DO MP ATIVO SANTA VITÓRIA - COMARCA; SANTA VITORIA-PJ-UNPJ 4.553,46 455,35 0,00 0,00 0,00 0,00 5.008,81 652,06 550,88 0,00 1.202,94 3.805,87 2.325,21 1.098,59 28/02/2013
808 213100 FABIO PRATES GONCALVES ASSESSOR ATIVO BELO HORIZONTE - COMARCA; DIRETORIA DE RELACOES PUBLICAS E CERIMONIAL 0,00 739,76 3.698,79 0,00 0,00 0,00 4.438,55 409,05 252,25 0,00 661,30 3.777,25 3.802,68 241,18 28/02/2013
809 436700 FABIO SANTIAGO DE CARVALHO OFICIAL DO MP ATIVO POÇO FUNDO - COMARCA; POCO FUNDO-PJ-UNPJ 3.757,11 225,43 0,00 0,00 0,00 0,00 3.982,54 513,19 357,23 0,00 870,42 3.112,12 352,00 682,80 28/02/2013
810 208400 FABIOLA DE SOUSA CARDOSO ASSESSOR/ANALISTA ATIVO BELO HORIZONTE - COMARCA; ASSESS TECNICA DA CORREGEDORIA-GERAL DO MP 11.161,27 4.047,14 0,00 0,00 0,00 0,00 15.208,41 1.900,23 2.986,58 0,00 4.886,81 10.321,60 3.714,90 5.588,04 28/02/2013
811 392200 FABIOLA LEROY COSTA ANALISTA DO MP ATIVO ESMERALDAS - COMARCA; ESMERALDAS-PJ-01PJ 5.344,58 320,67 0,00 0,00 0,00 0,00 5.665,25 629,61 595,99 0,00 1.225,60 4.439,65 352,00 102,21 28/02/2013
812 409000 FABIOLA MONTEIRO DE CARVALHO CASTRO ANALISTA DO MP ATIVO BOM SUCESSO - COMARCA; BOM SUCESSO-PJ-UNPJ 6.379,14 382,75 0,00 0,00 0,00 0,00 6.761,89 751,03 864,39 0,00 1.615,42 5.146,47 352,00 114,49 28/02/2013
813 227900 FABIOLA PIMENTA DE CARVALHO OFICIAL DO MP ATIVO MONTES CLAROS - COMARCA; COORD REG BACIA RIOS VERDE GRANDE E PARDO 4.854,78 970,96 0,00 0,00 0,00 0,00 5.825,74 654,23 587,98 0,00 1.242,21 4.583,53 2.962,06 411,86 28/02/2013
814 525800 FABRICIA ALVES DANTAS OFICIAL DO MP ATIVO MONTES CLAROS - COMARCA; MONTES CLAROS-PJ-02PJ 3.253,89 0,00 0,00 0,00 0,00 0,00 3.253,89 357,93 113,79 0,00 471,72 2.782,17 587,00 0,00 28/02/2013
815 263400 FABRICIA PINTO TEIXEIRA SANTIAGO OFICIAL DO MP ATIVO BELO HORIZONTE - COMARCA; CAO-TS-TERCEIRO SETOR-SECRETARIA 5.883,73 588,37 0,00 0,00 0,00 0,00 6.472,10 741,43 698,88 0,00 1.440,31 5.031,79 587,00 462,68 28/02/2013
816 420800 FABRICIO BERNARDES DE OLIVEIRA OFICIAL DO MP ATIVO ITURAMA - COMARCA; ITURAMA-PJ-02PJ 3.757,11 225,43 0,00 0,00 0,00 0,00 3.982,54 438,08 220,50 0,00 658,58 3.323,96 3.567,68 241,18 28/02/2013
817 474000 FABRICIO DE FREITAS SALES ANALISTA DO MP ATIVO BUENÓPOLIS - COMARCA; BUENOPOLIS-PJ-UNPJ 5.698,20 0,00 0,00 0,00 0,00 0,00 5.698,20 714,24 783,36 0,00 1.497,60 4.200,60 352,00 841,49 28/02/2013
818 510100 FABRICIO FURTADO ASSIS DO CARMO ANALISTA DO MP ATIVO BELO HORIZONTE - COMARCA; SERVICO MEDICO-DEPTO PERIC MEDICA SAUDE OCUP 4.701,73 0,00 0,00 0,00 0,00 0,00 4.701,73 517,19 364,52 0,00 881,71 3.820,02 352,00 0,00 28/02/2013
819 519600 FABRICIO GONTIJO SALVATI ANALISTA DO MP ATIVO JUIZ DE FORA - COMARCA; JUIZ DE FORA-PJ-13PJ 4.553,46 0,00 0,00 0,00 0,00 0,00 4.553,46 500,88 334,83 0,00 835,71 3.717,75 352,00 0,00 28/02/2013
820 428200 FABRICIO ORZIL VIANA ANALISTA DO MP ATIVO SANTA LUZIA - COMARCA; SANTA LUZIA-PJ-04PJ 5.344,58 320,67 0,00 0,00 1.888,42 0,00 7.553,67 652,38 1.115,30 0,00 1.767,68 5.785,99 352,00 409,04 28/02/2013
821 455600 FABRICIO PAIVA DA ROCHA ANALISTA DO MP ATIVO ANDRELÂNDIA - COMARCA; ANDRELANDIA-PJ-UNPJ 5.176,02 0,00 0,00 0,00 0,00 0,00 5.176,02 569,36 476,25 0,00 1.045,61 4.130,41 352,00 0,00 28/02/2013
822 511500 FABRICIO RENE CARDOSO DE PADUA ANALISTA DO MP ATIVO SÃO SEBASTIÃO DO PARAÍSO - COMARCA; SAO SEBASTIAO DO PARAISO-PJ-03PJ 4.701,73 0,00 0,00 0,00 0,00 0,00 4.701,73 517,19 364,52 0,00 881,71 3.820,02 352,00 0,00 28/02/2013
823 496100 FABRICIO RESENDE GONCALVES OFICIAL DO MP ATIVO ENTRE-RIOS DE MINAS - COMARCA; ENTRE RIOS DE MINAS-PJ-UNPJ 2.772,23 0,00 0,00 0,00 0,00 0,00 2.772,23 304,95 56,74 0,00 361,69 2.410,54 352,00 0,00 28/02/2013
824 514900 FADUA MARIA DRUMOND CHEQUER MAGNO ANALISTA DO MP ATIVO ALMENARA - COMARCA; COORD REG INCLUSAO MOBILIZ VALE JEQUITINHONHA 5.176,02 0,00 0,00 0,00 0,00 0,00 5.176,02 602,88 565,79 0,00 1.168,67 4.007,35 352,00 500,58 28/02/2013
825 282500 FANNY FERREIRA MELO FAVERO DE FRAVET OFICIAL DO MP ATIVO ARAXÁ - COMARCA; ARAXA-PJ-02PJ 4.553,46 455,35 0,00 0,00 0,00 0,00 5.008,81 600,56 545,66 0,00 1.146,22 3.862,59 2.615,13 615,18 28/02/2013
826 382800 FATIMA DE OLIVEIRA COELHO E SILVA OFICIAL DO MP ATIVO BELO HORIZONTE - COMARCA; DIRETORIA DE ADMINISTRACAO FINANCEIRA 3.151,29 315,13 0,00 0,00 0,00 0,00 3.466,42 381,31 142,17 0,00 523,48 2.942,94 352,00 0,00 28/02/2013
827 398600 FELIPE ANTONIO HORTA DE PAULA OFICIAL DO MP ATIVO BELO HORIZONTE - COMARCA; PROC. JUSTICA DIR. DIFUSOS E COLETIVOS-SEC 3.757,11 225,43 0,00 0,00 0,00 0,00 3.982,54 438,08 220,50 0,00 658,58 3.323,96 352,00 0,00 28/02/2013
828 529200 FELIPE AUGUSTO NASCIMENTO PEREIRA ASSESSOR ATIVO UBERABA - COMARCA; COORD REG PP TRIANGULO MINEIRO UBERABA 0,00 0,00 3.698,79 0,00 1.232,93 0,00 4.931,72 445,59 443,11 0,00 888,70 4.043,02 352,00 0,00 28/02/2013
829 430900 FELIPE BOY VIEIRA ANALISTA DO MP ATIVO BELO HORIZONTE - COMARCA; CAO-DH APOIO COMUNITARIO-SEC ADM 5.883,73 353,02 0,00 0,00 0,00 0,00 6.236,75 715,01 735,87 0,00 1.450,88 4.785,87 352,00 367,52 28/02/2013
830 487300 FELIPE FERNANDES SILVEIRA ASSESSOR ATIVO BELO HORIZONTE - COMARCA; DIRETORIA DE MANUTENCAO PREDIAL 0,00 0,00 2.215,31 0,00 0,00 0,00 2.215,31 282,40 16,66 0,00 299,06 1.916,25 352,00 0,00 28/02/2013
831 508400 FERNANDA AGANETTI MATTOS DE OLIVEIRA ANALISTA DO MP ATIVO BELO HORIZONTE - COMARCA; BH-19PJ SAUDE 5.176,02 0,00 0,00 0,00 1.725,34 0,00 6.901,36 569,36 950,72 0,00 1.520,08 5.381,28 352,00 0,00 28/02/2013
832 453600 FERNANDA ALBERNAZ RABELO ANALISTA DO MP ATIVO BELO HORIZONTE - COMARCA; ASSESS TECNICO-JUR JUNTO AS PROC. DE JUST 5.698,20 0,00 0,00 0,00 0,00 0,00 5.698,20 633,25 604,06 0,00 1.237,31 4.460,89 352,00 102,53 28/02/2013
833 255600 FERNANDA ALINA DE ALMEIDA ANDRADE OFICIAL DO MP ATIVO BELO HORIZONTE - COMARCA; DIR ESTRUTURA E PROCESSOS ORGANIZACIONAIS 4.854,78 970,96 0,00 0,00 0,00 0,00 5.825,74 670,40 635,27 0,00 1.305,67 4.520,07 352,00 431,99 28/02/2013
834 443200 FERNANDA ALMEIDA LOPES ANALISTA DO MP ATIVO CONTAGEM - COMARCA; CONTAGEM-PJ-23PJ 5.883,73 353,02 0,00 0,00 0,00 0,00 6.236,75 714,83 735,87 0,00 1.450,70 4.786,05 352,00 430,55 28/02/2013
835 281100 FERNANDA ANANIAS MEIRA ANALISTA DO MP ATIVO BELO HORIZONTE - COMARCA; BH-23PJ INFRACIONAL-ASS JURIDICA 7.982,93 798,29 0,00 0,00 0,00 0,00 8.781,22 1.183,58 1.470,63 0,00 2.654,21 6.127,01 3.567,68 2.980,24 28/02/2013
836 451200 FERNANDA BLOISE PRADO OFICIAL DO MP ATIVO BELO HORIZONTE - COMARCA; NUCLEO DE NEGOCIACAO DE CONFLITOS AMBIENTAIS 3.359,85 0,00 0,00 0,00 0,00 0,00 3.359,85 369,58 127,94 0,00 497,52 2.862,33 352,00 0,00 28/02/2013
837 427900 FERNANDA BRAGA CARNEIRO BICALHO ANALISTA DO MP ATIVO PEÇANHA - COMARCA; PECANHA-PJ-SECRETARIA 5.344,58 320,67 0,00 0,00 0,00 0,00 5.665,25 629,98 548,70 0,00 1.178,68 4.486,57 352,00 108,16 28/02/2013
838 507100 FERNANDA CABRINI VAZ MOTA ANALISTA DO MP ATIVO BELO HORIZONTE - COMARCA; ASSESSORIA JURIDICO-ADMINISTRATIVA 4.701,73 0,00 0,00 0,00 0,00 0,00 4.701,73 517,19 364,52 0,00 881,71 3.820,02 1.838,05 111,45 28/02/2013
839 259800 FERNANDA CALZAVARA DE SOUSA COORDENADOR/OFICIAL ATIVO BELO HORIZONTE - COMARCA; DIRET DE FORMACAO, APERFEIC. E POS-GRADUACAO 0,00 967,49 9.674,93 0,00 0,00 0,00 10.642,42 802,40 1.984,83 0,00 2.787,23 7.855,19 3.567,68 2.423,19 28/02/2013
840 494400 FERNANDA CAMPOS BARATA OFICIAL DO MP ATIVO JUIZ DE FORA - COMARCA; JUIZ DE FORA-PJ-08PJ 2.772,23 0,00 0,00 0,00 0,00 0,00 2.772,23 304,95 56,74 0,00 361,69 2.410,54 587,00 0,00 28/02/2013
841 294500 FERNANDA COSTA FLORES OFICIAL DO MP ATIVO PARÁ DE MINAS - COMARCA; PARA DE MINAS-PJ-04PJ 5.344,58 534,46 0,00 0,00 0,00 0,00 5.879,04 675,42 601,02 0,00 1.276,44 4.602,60 3.015,36 629,02 28/02/2013
842 344500 FERNANDA CRISTINA DE SOUZA PAZ ASSESSOR ATIVO BELO HORIZONTE - COMARCA; CENTRAL DE APOIO TECN-SETOR DE MEIO AMBIENTE 0,00 0,00 3.698,79 0,00 0,00 0,00 3.698,79 445,59 167,38 0,00 612,97 3.085,82 822,00 0,00 28/02/2013
843 337800 FERNANDA CRISTINA REIS ROLAND CLIMACO DA SILVA ASSESSOR/OFICIAL ATIVO BELO HORIZONTE - COMARCA; DIRETORIA-GERAL 0,00 748,75 7.487,46 0,00 0,00 0,00 8.236,21 728,12 1.302,15 0,00 2.030,27 6.205,94 3.567,68 2.299,98 28/02/2013
844 429801 FERNANDA CUNHA PINHEIRO DA SILVA ANALISTA DO MP ATIVO BELO HORIZONTE - COMARCA; DIRETORIA DE PRODUCAO EDITORIAL 4.701,73 0,00 0,00 0,00 0,00 0,00 4.701,73 517,19 364,52 0,00 881,71 3.820,02 352,00 0,00 28/02/2013
845 408000 FERNANDA DAS NEVES RAMOS ANALISTA DO MP ATIVO BELO HORIZONTE - COMARCA; CENTRAL DE APOIO TECNICO-SETOR CONTABIL 6.379,14 382,75 0,00 0,00 0,00 0,00 6.761,89 801,38 864,39 0,00 1.665,77 5.096,12 352,00 861,28 28/02/2013
846 496000 FERNANDA DE ALMEIDA VIANA ANALISTA DO MP ATIVO BELO HORIZONTE - COMARCA; PROC JUST RECURSOS ESP E EXTRAORD CRIMINAIS 4.701,73 0,00 0,00 0,00 0,00 0,00 4.701,73 517,19 364,52 0,00 881,71 3.820,02 352,00 0,00 28/02/2013
847 266700 FERNANDA DE CASTRO LUCAS OFICIAL DO MP ATIVO BELO HORIZONTE - COMARCA; DIRET DE DESENV DE RECURSOS HUMANOS-DDRH 5.883,73 588,37 0,00 0,00 0,00 0,00 6.472,10 741,10 793,47 0,00 1.534,57 4.937,53 3.567,68 754,55 28/02/2013
848 433200 FERNANDA DE FIGUEIREDO NORTE ANALISTA DO MP ATIVO BELO HORIZONTE - COMARCA; ASSESS JUR DO CONS SUPERIOR DO MINISTERIO PUB 5.883,73 353,02 0,00 0,00 0,00 0,00 6.236,75 834,03 997,55 0,00 1.831,58 4.405,17 352,00 1.656,83 28/02/2013
849 419200 FERNANDA DE MIRANDA MARTINS SIMOES ANALISTA DO MP ATIVO UBERLÂNDIA - COMARCA; UBERLANDIA-PJ-19PJ 6.379,14 382,75 0,00 0,00 0,00 0,00 6.761,89 781,83 864,39 0,00 1.646,22 5.115,67 352,00 674,85 28/02/2013
850 441400 FERNANDA DE MORAIS PINTO ANALISTA DO MP ATIVO BELO HORIZONTE - COMARCA; PROC. JUSTICA DIR. DIFUSOS E COLETIVOS-SEC 5.883,73 353,02 0,00 0,00 0,00 0,00 6.236,75 692,43 735,87 0,00 1.428,30 4.808,45 352,00 101,60 28/02/2013
851 432200 FERNANDA DE MOURA GUIMARAES ANALISTA DO MP ATIVO BELO HORIZONTE - COMARCA; CAO-CRIMINAL-SECRETARIA 5.883,73 353,02 0,00 0,00 0,00 0,00 6.236,75 715,54 735,87 0,00 1.451,41 4.785,34 878,37 482,00 28/02/2013
852 461800 FERNANDA DE OLIVEIRA SANTOS ANALISTA DO MP ATIVO JUIZ DE FORA - COMARCA; JUIZ DE FORA-PJ-21PJ 5.698,20 0,00 0,00 0,00 0,00 0,00 5.698,20 656,79 604,06 0,00 1.260,85 4.437,35 2.834,52 784,15 28/02/2013
853 432500 FERNANDA DE PAULA ABRANTES ANALISTA DO MP ATIVO BELO HORIZONTE - COMARCA; BH-12PJ JUIZO CRIMINAL-GAB 091PJ 5.883,73 353,02 0,00 0,00 0,00 0,00 6.236,75 693,62 735,87 0,00 1.429,49 4.807,26 352,00 118,35 28/02/2013
854 431600 FERNANDA DIAS BARBOSA MENEZES ANALISTA DO MP ATIVO OURO BRANCO - COMARCA; OURO BRANCO-PJ-UNPJ 5.883,73 353,02 0,00 0,00 2.078,92 0,00 8.315,67 715,25 1.260,28 0,00 1.975,53 6.340,14 352,00 432,80 28/02/2013
855 162200 FERNANDA FERNANDES MONTEIRO ASSESSOR ATIVO BELO HORIZONTE - COMARCA; PROCON-MG-SECRETARIA DE FISCALIZACOES 0,00 1.109,64 3.698,79 0,00 0,00 0,00 4.808,43 457,49 285,88 0,00 743,37 4.065,06 2.179,75 1.959,95 28/02/2013
856 512800 FERNANDA FERREIRA BARBOSA MOREIRA ANALISTA DO MP ATIVO CARATINGA - COMARCA; CARATINGA-PJ-03PJ 4.701,73 0,00 0,00 0,00 0,00 0,00 4.701,73 517,19 364,52 0,00 881,71 3.820,02 352,00 0,00 28/02/2013
857 329200 FERNANDA GABRIEL GUZELLA OFICIAL DO MP ATIVO BELO HORIZONTE - COMARCA; ASSESS ESPECIAL DO PGJ ATUACAO JUNTO A PGJAI 4.553,46 455,35 0,00 0,00 0,00 0,00 5.008,81 550,97 435,33 0,00 986,30 4.022,51 352,00 0,00 28/02/2013
858 324200 FERNANDA GEORGIA NEVES ZAHAN OFICIAL DO MP ATIVO IPANEMA - COMARCA; IPANEMA-PJ-SECRETARIA 4.409,86 2.204,93 0,00 0,00 0,00 0,00 6.614,79 756,50 781,10 0,00 1.537,60 5.077,19 352,00 387,66 28/02/2013
859 355400 FERNANDA HELENA BASQUES OFICIAL DO MP ATIVO SABARÁ - COMARCA; SABARA-PJ-01PJ 4.701,73 470,17 0,00 0,00 0,00 0,00 5.171,90 575,89 475,24 0,00 1.051,13 4.120,77 352,00 110,87 28/02/2013
860 454800 FERNANDA IATAROLA BARBOSA DIAS ANALISTA DO MP ATIVO BARBACENA - COMARCA; BARBACENA-PJ-01PJ 5.698,20 0,00 0,00 0,00 1.899,40 0,00 7.597,60 743,13 1.257,88 0,00 2.001,01 5.596,59 352,00 1.410,15 28/02/2013
861 515500 FERNANDA LILIANE MARUGEIRO ANALISTA DO MP ATIVO VESPASIANO - COMARCA; VESPASIANO-PJ-02PJ 4.701,73 0,00 0,00 0,00 0,00 0,00 4.701,73 517,19 364,52 0,00 881,71 3.820,02 352,00 0,00 28/02/2013
862 392900 FERNANDA MAGALHAES SILVA ANALISTA DO MP ATIVO BELO HORIZONTE - COMARCA; SUPERINTENDENCIA DE COMUNICACAO INTEGRADA 6.379,14 382,75 0,00 0,00 0,00 0,00 6.761,89 807,28 874,25 0,00 1.681,53 5.080,36 352,00 972,81 28/02/2013
863 409200 FERNANDA MAIA SANTIAGO ANALISTA DO MP ATIVO PIRAPORA - COMARCA; PIRAPORA-PJ-02PJ 5.344,58 320,67 0,00 0,00 0,00 0,00 5.665,25 623,18 595,99 0,00 1.219,17 4.446,08 352,00 0,00 28/02/2013
864 412900 FERNANDA PORTELA ROSA ANALISTA DO MP ATIVO BELO HORIZONTE - COMARCA; BH-08PJ JUIZADO ESPECIAL-SECRETARIA 6.379,14 382,75 0,00 0,00 0,00 0,00 6.761,89 1.046,44 1.474,38 0,00 2.520,82 4.241,07 352,00 2.815,06 28/02/2013
865 274301 FERNANDA QUEIROZ PARREIRA ANALISTA DO MP ATIVO PATOS DE MINAS - COMARCA; COORD REG PJ DEF EDU DIR CRI ADO AL PAR NOROE 5.176,02 0,00 0,00 0,00 0,00 0,00 5.176,02 569,36 476,25 0,00 1.045,61 4.130,41 352,00 0,00 28/02/2013
866 467900 FERNANDA QUEIROZ SIMOES GANNAM ANALISTA DO MP ATIVO SÃO LOURENÇO - COMARCA; SAO LOURENCO-PJ-04PJ 5.698,20 0,00 0,00 0,00 0,00 0,00 5.698,20 633,55 604,06 0,00 1.237,61 4.460,59 352,00 107,23 28/02/2013
867 255500 FERNANDA SIMOES LOPES MENDES ANALISTA DO MP ATIVO BELO HORIZONTE - COMARCA; BH-17PJ PATRIMONIO PUBLICO-SECRETARIA 9.074,45 1.814,89 0,00 0,00 0,00 0,00 10.889,34 1.409,34 1.827,29 0,00 3.236,63 7.652,71 699,91 2.423,72 28/02/2013
868 481700 FERNANDA VIANA FROES DA SILVA OFICIAL DO MP ATIVO GOVERNADOR VALADARES - COMARCA; GOVERNADOR VALADARES-PJ-09PJ 3.698,79 0,00 0,00 0,00 0,00 0,00 3.698,79 462,79 265,49 0,00 728,28 2.970,51 587,00 677,88 28/02/2013
869 123900 FERNANDO ANTONIO FARIA ABREU ANALISTA DO MP ATIVO BELO HORIZONTE - COMARCA; DIRETORIA-GERAL 19.062,49 15.250,00 0,00 0,00 0,00 2.652,94 36.965,43 2.652,94 3.586,77 10.194,87 16.434,58 20.530,85 3.567,68 294,78 28/02/2013
870 416900 FERNANDO APARECIDO DA SILVA ANALISTA DO MP ATIVO BOM DESPACHO - COMARCA; BOM DESPACHO-PJ-01PJ 6.379,14 2.551,65 0,00 0,00 0,00 0,00 8.930,79 1.119,89 1.347,94 0,00 2.467,83 6.462,96 3.000,48 1.903,40 28/02/2013
871 395900 FERNANDO AUGUSTO ETO LAGES ANALISTA DO MP ATIVO BELO HORIZONTE - COMARCA; CENTRAL DE APOIO TECN-SETOR DE MEIO AMBIENTE 5.883,73 353,02 0,00 0,00 0,00 0,00 6.236,75 738,27 735,87 0,00 1.474,14 4.762,61 352,00 817,77 28/02/2013
872 380500 FERNANDO BONES COSTA OFICIAL DO MP ATIVO BELO HORIZONTE - COMARCA; EXTINTA - DIVISÃO DE MATERIAL PERMANENTE 3.469,26 208,16 0,00 0,00 0,00 0,00 3.677,42 404,52 170,34 0,00 574,86 3.102,56 352,00 0,00 28/02/2013
873 500100 FERNANDO CEZAR PINTO OFICIAL DO MP ATIVO BELO HORIZONTE - COMARCA; EXTINTA - DIVISÃO DE MATERIAL PERMANENTE 3.051,96 0,00 0,00 0,00 1.017,32 0,00 4.069,28 335,72 224,36 0,00 560,08 3.509,20 587,00 0,00 28/02/2013
874 346100 FERNANDO EUSTAQUIO CAMPOS UTSCH MOREIRA ANALISTA DO MP ATIVO BELO HORIZONTE - COMARCA; DIRETORIA DE REDES E BANCOS DE DADOS 7.731,26 773,13 0,00 0,00 0,00 0,00 8.504,39 1.077,48 1.149,00 0,00 2.226,48 6.277,91 1.255,10 2.084,69 28/02/2013
875 103500 FERNANDO LUIZ DA SILVA JUNIOR OFICIAL DO MP ATIVO BELO HORIZONTE - COMARCA; DIVISAO DE ATENDIMENTO E CONSULTA JURIDICA 11.161,27 4.464,51 0,00 0,00 0,00 0,00 15.625,78 2.143,50 3.038,42 0,00 5.181,92 10.443,86 4.038,47 4.986,61 28/02/2013
876 287300 FERNANDO MARCIO ALVES MARTINS OFICIAL DO MP ATIVO LEOPOLDINA - COMARCA; LEOPOLDINA-PJ-01PJ 4.409,86 440,99 0,00 0,00 0,00 0,00 4.850,85 533,59 278,30 0,00 811,89 4.038,96 3.567,68 241,18 28/02/2013
877 262200 FERNANDO MARCIO RESENDE PEREIRA COORDENADOR/OFICIAL ATIVO BELO HORIZONTE - COMARCA; BH-12PJ JUIZO CRIMINAL-SECRETARIA 0,00 851,12 8.511,21 0,00 0,00 0,00 9.362,33 765,46 1.670,93 0,00 2.436,39 6.925,94 352,00 2.408,25 28/02/2013
878 472900 FERNANDO RODRIGUES DE FREITAS ANALISTA DO MP ATIVO SANTA BÁRBARA - COMARCA; SANTA BARBARA-PJ-UNPJ 4.701,73 0,00 0,00 0,00 0,00 0,00 4.701,73 517,19 325,83 0,00 843,02 3.858,71 352,00 0,00 28/02/2013
879 219600 FERNANDO SOARES MIRANDA COORDENADOR/ANALISTA ATIVO BELO HORIZONTE - COMARCA; PROCON-MG-GAB DO COORDENADOR DO PROCON-MG 10.997,69 13.659,96 0,00 0,00 0,00 2.298,52 26.956,17 2.873,53 5.775,64 540,03 9.189,20 17.766,97 4.301,59 9.110,19 28/02/2013
880 421400 FERNANDO TEODORO MACIEL ANALISTA DO MP ATIVO SANTA VITÓRIA - COMARCA; SANTA VITORIA-PJ-UNPJ 5.883,73 353,02 0,00 0,00 0,00 0,00 6.236,75 838,73 950,26 0,00 1.788,99 4.447,76 3.608,07 1.987,05 28/02/2013
881 446300 FERNANDO VITOR DE OLIVEIRA ANALISTA DO MP ATIVO MONTES CLAROS - COMARCA; COORD REG BACIA RIOS VERDE GRANDE E PARDO 5.883,73 353,02 0,00 0,00 0,00 0,00 6.236,75 810,45 997,55 0,00 1.808,00 4.428,75 3.567,68 1.472,13 28/02/2013
882 398400 FLAVIA ALVARES GUIMARAES OFICIAL DO MP ATIVO RIBEIRÃO DAS NEVES - COMARCA; RIBEIRAO DAS NEVES-PJ-01PJ 3.469,26 208,16 0,00 0,00 0,00 0,00 3.677,42 404,52 170,34 0,00 574,86 3.102,56 352,00 0,00 28/02/2013
883 398200 FLAVIA ALVES DE ASSUNCAO RODRIGUES ANALISTA DO MP ATIVO DIVINÓPOLIS - COMARCA; COORD REG DO MA DA BACIA DO ALTO SAO FRANC 5.883,73 353,02 0,00 0,00 0,00 0,00 6.236,75 724,74 735,87 0,00 1.460,61 4.776,14 352,00 684,94 28/02/2013
884 318500 FLAVIA BEATRIZ NUNES CRUZ VIEIRA ANALISTA DO MP ATIVO BARBACENA - COMARCA; BARBACENA-PJ-SECRETARIA 7.982,93 798,29 0,00 0,00 0,00 0,00 8.781,22 1.118,26 1.311,33 0,00 2.429,59 6.351,63 587,00 2.067,09 28/02/2013
885 496500 FLAVIA CARAM BORLIDO ANALISTA DO MP ATIVO BELO HORIZONTE - COMARCA; EXTINTA - DIVISAO DE SERVICOS GERAIS 5.176,02 0,00 0,00 0,00 0,00 0,00 5.176,02 569,36 476,25 0,00 1.045,61 4.130,41 352,00 0,00 28/02/2013
886 219500 FLAVIA CRISTINA ANCELMO OFICIAL DO MP ATIVO BELO HORIZONTE - COMARCA; BH-17PJ PATRIMONIO PUBLICO-SECRETARIA 4.553,46 910,69 0,00 0,00 0,00 0,00 5.464,15 615,58 546,77 0,00 1.162,35 4.301,80 352,00 183,05 28/02/2013
887 329600 FLAVIA CRISTINA DE MATOS XAVIER ANALISTA DO MP ATIVO UBERABA - COMARCA; UBERABA-PJ-15PJ 7.982,93 1.596,59 0,00 0,00 0,00 0,00 9.579,52 1.236,88 1.459,42 0,00 2.696,30 6.883,22 1.315,84 2.212,96 28/02/2013
888 207600 FLAVIA DE ANDRADE MANCINI ANALISTA DO MP ATIVO BELO HORIZONTE - COMARCA; ASSESSORIA JURIDICO-ADMINISTRATIVA 10.315,17 2.063,03 0,00 0,00 0,00 0,00 12.378,20 1.727,53 2.191,69 0,00 3.919,22 8.458,98 4.037,68 4.258,14 28/02/2013
889 402801 FLAVIA MARIA DE RESENDE NASCIMENTO ANALISTA DO MP ATIVO SÃO JOÃO DEL REI - COMARCA; SAO JOAO DEL REI-PJ-04PJ 5.176,02 0,00 0,00 0,00 0,00 0,00 5.176,02 596,89 537,51 0,00 1.134,40 4.041,62 352,00 337,35 28/02/2013
890 437500 FLAVIA MARIA TORRES MARCHETTI ANALISTA DO MP ATIVO BELO HORIZONTE - COMARCA; BH-13ª PJ JUÍXO DE TÓXICOS 5.883,73 353,02 0,00 0,00 0,00 0,00 6.236,75 986,00 1.337,74 0,00 2.323,74 3.913,01 352,00 2.918,02 28/02/2013
891 386000 FLAVIA NEVES BRIGIDO OFICIAL DO MP ATIVO OURO PRETO - COMARCA; OURO PRETO-PJ-04PJ 3.469,26 208,16 0,00 0,00 1.225,81 0,00 4.903,23 404,52 446,57 0,00 851,09 4.052,14 352,00 0,00 28/02/2013
892 488600 FLAVIA PEREIRA COSTA ANALISTA DO MP ATIVO BELO HORIZONTE - COMARCA; SERVICO MEDICO-DEPTO PERIC MEDICA SAUDE OCUP 5.176,02 0,00 0,00 0,00 0,00 0,00 5.176,02 569,36 476,25 0,00 1.045,61 4.130,41 352,00 0,00 28/02/2013
893 365400 FLAVIA PEREIRA DA SILVA OFICIAL DO MP ATIVO BELO HORIZONTE - COMARCA; BH-15PJ M AMB 16PJ HAB URB-SECRETARIA 4.553,46 455,35 0,00 0,00 1.669,60 0,00 6.678,41 550,97 894,47 0,00 1.445,44 5.232,97 352,00 0,00 28/02/2013
894 515400 FLAVIA RODRIGUES DE OLIVEIRA E SILVA PAIVA ANALISTA DO MP ATIVO CARATINGA - COMARCA; CARATINGA-PJ-01PJ 4.701,73 0,00 0,00 0,00 0,00 0,00 4.701,73 517,19 209,75 0,00 726,94 3.974,79 352,00 0,00 28/02/2013
895 515300 FLAVIA VIEIRA OLIVEIRA ANALISTA DO MP ATIVO BELO HORIZONTE - COMARCA; CAO-CRIMINAL-SECRETARIA 5.176,02 0,00 0,00 0,00 0,00 0,00 5.176,02 569,36 476,25 0,00 1.045,61 4.130,41 352,00 0,00 28/02/2013
896 377500 FLAVIANA GONCALVES DE OLIVEIRA ANALISTA DO MP ATIVO AÇUCENA - COMARCA; ACUCENA-PJ-UNPJ 6.379,14 382,75 0,00 0,00 0,00 0,00 6.761,89 792,36 864,39 0,00 1.656,75 5.105,14 352,00 780,02 28/02/2013
897 273100 FLAVIANE DOS SANTOS CASTRO OFICIAL DO MP ATIVO NATÉRCIA - COMARCA 5.012,79 501,28 0,00 0,00 0,00 0,00 5.514,07 606,55 417,11 0,00 1.023,66 4.490,41 822,00 0,00 28/02/2013
898 310600 FLAVIANE NAVES ALCANTARA ASSESSOR/OFICIAL ATIVO BELO HORIZONTE - COMARCA; COMB CRIMES PRAT POR AG POL MUN-SECRETARIA 0,00 748,75 7.487,46 0,00 0,00 0,00 8.236,21 762,94 1.299,11 0,00 2.062,05 6.174,16 3.567,68 2.375,12 28/02/2013
899 378200 FLAVIANE RIBEIRO BORGES OFICIAL DO MP ATIVO SÃO GONÇALO DO SAPUCAÍ - COMARCA; SAO GONCALO DO SAPUCAI-PJ-02PJ 3.469,26 208,16 0,00 0,00 0,00 0,00 3.677,42 404,52 170,34 0,00 574,86 3.102,56 352,00 0,00 28/02/2013
900 455800 FLAVIO ANTONIO RIBEIRO OFICIAL DO MP ATIVO PASSA TEMPO - COMARCA; PASSA TEMPO-PJ-SECRETARIA 3.051,96 0,00 0,00 0,00 0,00 0,00 3.051,96 335,72 86,84 0,00 422,56 2.629,40 352,00 0,00 28/02/2013
901 458200 FLAVIO AUGUSTO BRAGA SOARES ANALISTA DO MP ATIVO BELO HORIZONTE - COMARCA; DIRETORIA DE MANUTENCAO PREDIAL 5.698,20 0,00 0,00 0,00 0,00 0,00 5.698,20 633,18 604,06 0,00 1.237,24 4.460,96 352,00 101,48 28/02/2013
902 516500 FLAVIO AUGUSTO RODRIGUES CORREA ANALISTA DO MP ATIVO BELO HORIZONTE - COMARCA; COORD REG BACIAS RIO VELHAS E PARAOPEBA 4.701,73 0,00 0,00 0,00 0,00 0,00 4.701,73 517,19 364,52 0,00 881,71 3.820,02 352,00 0,00 28/02/2013
903 84300 FLAVIO DE FARIA BELTRAO OFICIAL DO MP ATIVO BELO HORIZONTE - COMARCA; DIRETORIA DE ADMINISTRACAO FINANCEIRA 17.108,05 8.554,03 0,00 0,00 0,00 0,00 25.662,08 3.401,34 5.079,78 1.544,46 10.025,58 15.636,50 352,00 8.845,66 28/02/2013
904 266600 FLAVIO GUIMARAES LANA ANALISTA DO MP ATIVO BELO HORIZONTE - COMARCA; CENTRAL DE APOIO TECN-SETOR DE MEIO AMBIENTE 7.022,72 702,27 0,00 0,00 0,00 0,00 7.724,99 946,81 1.100,11 0,00 2.046,92 5.678,07 352,00 1.259,89 28/02/2013
905 241500 FLAVIO HENRIQUE SILVA MARTINS LAGE OFICIAL DO MP ATIVO BELO HORIZONTE - COMARCA; CAO-DIREITOS HUMANOS E APOIO COMUNITARIO 4.854,78 1.456,43 0,00 0,00 0,00 0,00 6.311,21 724,43 754,09 0,00 1.478,52 4.832,69 352,00 545,65 28/02/2013
906 86700 FLAVIO LUCAS TOMAZ AGENTE DO MP ATIVO BELO HORIZONTE - COMARCA; BH-06PJ JUIZO CIVEL-SECRETARIA 4.701,73 2.350,87 0,00 0,00 0,00 0,00 7.052,60 806,70 572,26 0,00 1.378,96 5.673,64 3.567,68 889,11 28/02/2013
907 407200 FLAVIO LUCIO MONTEIRO PENA ANALISTA DO MP ATIVO BELO HORIZONTE - COMARCA; DIRETORIA DE IMPRENSA 5.344,58 320,67 0,00 0,00 0,00 0,00 5.665,25 623,18 595,99 0,00 1.219,17 4.446,08 352,00 0,00 28/02/2013
908 451700 FLAVIO MAGALHAES PEREIRA ANALISTA DO MP ATIVO BELO HORIZONTE - COMARCA; BH-12PJ JUIZO CRIMINAL-GAB 098PJ 5.698,20 0,00 0,00 0,00 0,00 0,00 5.698,20 626,80 604,06 0,00 1.230,86 4.467,34 352,00 0,00 28/02/2013
909 481500 FLAVIO NEVES GUELBER DE MACEDO OFICIAL DO MP ATIVO SÃO JOÃO NEPOMUCENO - COMARCA; SAO JOAO NEPOMUCENO-PJ-02PJ 3.359,85 0,00 0,00 0,00 0,00 0,00 3.359,85 420,39 189,60 0,00 609,99 2.749,86 352,00 615,79 28/02/2013
910 278100 FRANCIANE MARY DE SOUZA DOMENICI DE BRITO E CASTRO ANALISTA DO MP ATIVO BELO HORIZONTE - COMARCA; BH-12PJ JUIZO CRIMINAL 8.788,36 878,84 0,00 0,00 0,00 0,00 9.667,20 1.264,19 1.528,18 0,00 2.792,37 6.874,83 3.567,68 2.875,78 28/02/2013
911 192501 FRANCIELLE REIS DE OLIVEIRA ANALISTA DO MP ATIVO PASSOS - COMARCA; PASSOS-PJ-04PJ 8.788,36 878,84 0,00 0,00 0,00 0,00 9.667,20 1.234,52 1.433,59 0,00 2.668,11 6.999,09 587,00 2.265,68 28/02/2013
912 523600 FRANCINE MOURA LIMIRIO OFICIAL DO MP ATIVO UBERABA - COMARCA; UBERABA-PJ-02PJ 2.684,83 0,00 0,00 0,00 0,00 0,00 2.684,83 295,33 50,90 0,00 346,23 2.338,60 352,00 0,00 28/02/2013
913 467200 FRANCINI RENNO ANALISTA DO MP ATIVO SILVIANÓPOLIS - COMARCA; SILVIANOPOLIS-PJ-UNPJ 5.176,02 0,00 0,00 0,00 0,00 0,00 5.176,02 569,36 476,25 0,00 1.045,61 4.130,41 352,00 0,00 28/02/2013
914 189300 FRANCIS BERNARDO DO NASCIMENTO OFICIAL DO MP ATIVO VARGINHA - COMARCA; VARGINHA-PJ-05PJ 7.731,26 1.546,25 0,00 0,00 0,00 0,00 9.277,51 1.138,48 1.480,09 0,00 2.618,57 6.658,94 4.144,15 2.075,95 28/02/2013
915 207800 FRANCISCO CAMPOS PIRES DE MORAIS ANALISTA DO MP ATIVO BELO HORIZONTE - COMARCA; CENTRAL DE APOIO TECN-SETOR DE MEIO AMBIENTE 12.062,58 2.412,52 0,00 0,00 0,00 0,00 14.475,10 1.955,29 2.752,20 0,00 4.707,49 9.767,61 1.089,08 4.060,48 28/02/2013
916 424200 FRANCISCO DE FREITAS JUNIOR ANALISTA DO MP ATIVO MONTE AZUL - COMARCA; MONTE AZUL-PJ-UNPJ 4.854,78 291,29 0,00 0,00 0,00 0,00 5.146,07 675,56 684,89 0,00 1.360,45 3.785,62 352,00 1.046,00 28/02/2013
917 204600 FRANCISCO FERREIRA NOVAIS OFICIAL DO MP ATIVO IPATINGA - COMARCA; IPATINGA-PJ-08PJ 5.698,20 1.709,46 0,00 0,00 0,00 0,00 7.407,66 916,07 927,86 0,00 1.843,93 5.563,73 3.802,68 1.663,57 28/02/2013
918 124100 FRANCISCO MARCOS DE CARVALHO RIBEIRO OFICIAL DO MP ATIVO BELO HORIZONTE - COMARCA; COMB CRIMES PRAT POR AG POL MUN-SECRETARIA 10.997,69 9.897,93 0,00 0,00 0,00 2.298,52 23.194,14 2.861,76 4.861,13 0,00 7.722,89 15.471,25 352,00 7.222,76 28/02/2013
919 60500 FRANCISCO OLIMPIO TEIXEIRA AGENTE DO MP ATIVO BELO HORIZONTE - COMARCA; EXTINTA - DIVISAO DE TRANSPORTES 4.409,86 3.527,89 0,00 0,00 0,00 0,00 7.937,75 1.202,85 1.010,31 0,00 2.213,16 5.724,59 3.802,68 4.139,81 28/02/2013
920 411600 FRANCISCO PAIVA BRITO ANALISTA DO MP ATIVO BELO HORIZONTE - COMARCA; TRIBUNAL DO JURI-07 PJ-02 TRIBUNAL 5.883,73 353,02 0,00 0,00 0,00 0,00 6.236,75 701,89 735,87 0,00 1.437,76 4.798,99 352,00 195,49 28/02/2013
921 515800 FRANCISCO RAFAEL DA SILVA NETO ANALISTA DO MP ATIVO SACRAMENTO - COMARCA; SACRAMENTO-PJ-01PJ 4.270,85 0,00 0,00 0,00 0,00 0,00 4.270,85 469,79 172,17 0,00 641,96 3.628,89 352,00 0,00 28/02/2013
922 515200 FRANCISLEI ELIAS GONCALVES OFICIAL DO MP ATIVO PASSOS - COMARCA; PASSOS-PJ-01PJ 2.772,23 554,45 0,00 0,00 0,00 0,00 3.326,68 365,93 55,05 0,00 420,98 2.905,70 352,00 0,00 28/02/2013
923 443600 FRANCISLEI MARTINS DE SOUSA ANALISTA DO MP ATIVO TIMÓTEO - COMARCA; TIMOTEO-PJ-01PJ 5.883,73 353,02 0,00 0,00 0,00 0,00 6.236,75 692,95 735,87 0,00 1.428,82 4.807,93 3.567,68 404,41 28/02/2013
924 424500 FREDERICO AUGUSTO COBRA MULLER ANALISTA DO MP ATIVO POUSO ALEGRE - COMARCA; POUSO ALEGRE-PJ-03PJ 6.379,14 382,75 0,00 0,00 0,00 0,00 6.761,89 887,85 1.165,30 0,00 2.053,15 4.708,74 1.193,45 2.415,10 28/02/2013
925 473100 FREDERICO AUGUSTO LIMA FELICIO ANALISTA DO MP ATIVO CONCEIÇÃO DO MATO DENTRO - COMARCA; CONCEICAO DO MATO DENTRO-PJ-UNPJ 5.176,02 0,00 0,00 0,00 0,00 0,00 5.176,02 735,31 845,47 0,00 1.580,78 3.595,24 352,00 1.508,58 28/02/2013
926 318100 FREDERICO BIANCHINI JOVIANO DOS SANTOS ASSESSOR/OFICIAL ATIVO BELO HORIZONTE - COMARCA; PROMOT ESTADUAL DE DEF PATRI CULT E TUR DE MG 0,00 748,75 7.487,46 0,00 0,00 0,00 8.236,21 628,24 1.327,64 0,00 1.955,88 6.280,33 1.020,10 1.963,78 28/02/2013
927 124200 FREDERICO DE SOUZA ROCHA OFICIAL DO MP ATIVO ESPINOSA - COMARCA; ESPINOSA-PJ-SECRETARIA 8.511,21 5.957,84 0,00 0,00 0,00 0,00 14.469,05 2.250,21 3.168,63 0,00 5.418,84 9.050,21 4.084,45 7.314,28 28/02/2013
928 177100 FREDERICO FERNANDES DE ANDRADE ASSESSOR/OFICIAL ATIVO BELO HORIZONTE - COMARCA; DIRETORIA DE SUPORTE E MANUTENCAO 0,00 1.497,49 7.487,46 0,00 0,00 0,00 8.984,95 935,28 1.467,78 0,00 2.403,06 6.581,89 3.567,68 2.794,91 28/02/2013
929 456200 FREDERICO FERNANDES PASSOS ANALISTA DO MP ATIVO BELO HORIZONTE - COMARCA; DIRETORIA DE REDES E BANCOS DE DADOS 5.698,20 0,00 0,00 0,00 0,00 0,00 5.698,20 626,80 556,76 0,00 1.183,56 4.514,64 352,00 0,00 28/02/2013
930 400900 FREDERICO LUCIANO BORGES REIS ANALISTA DO MP ATIVO BELO HORIZONTE - COMARCA; DIRETORIA DE SISTEMAS DE INFORMACAO 6.379,14 382,75 0,00 0,00 0,00 0,00 6.761,89 758,71 864,39 0,00 1.623,10 5.138,79 352,00 186,61 28/02/2013
931 466200 FREDERICO LUIS FERNANDES ANALISTA DO MP ATIVO BELO HORIZONTE - COMARCA; BH-12PJ JUIZO CRIMINAL 4.701,73 0,00 0,00 0,00 0,00 0,00 4.701,73 517,19 364,52 0,00 881,71 3.820,02 3.567,68 241,18 28/02/2013
932 419700 FREDERICO MECKLER SANTOS ANALISTA DO MP ATIVO CLÁUDIO - COMARCA; CLAUDIO-PJ-UNPJ 6.379,14 382,75 0,00 0,00 0,00 0,00 6.761,89 750,23 864,39 0,00 1.614,62 5.147,27 352,00 102,01 28/02/2013
933 257100 FULVIA HERONVILLE DA SILVA OFICIAL DO MP ATIVO BELO HORIZONTE - COMARCA; DIVISAO DE MEMORIA INSTITUCIONAL 5.698,20 1.139,64 0,00 0,00 0,00 0,00 6.837,84 752,16 835,69 0,00 1.587,85 5.249,99 3.802,68 294,77 28/02/2013
934 405500 GABRIEL CARVALHO DE ASSIS OFICIAL DO MP ATIVO JUIZ DE FORA - COMARCA; COORD REG PJ ORDEM ECON TRIB ZONA DA MATA-SEC 3.469,26 208,16 0,00 0,00 0,00 0,00 3.677,42 404,52 170,34 0,00 574,86 3.102,56 352,00 0,00 28/02/2013
935 397200 GABRIEL DEIVID MARTINS LEITE OFICIAL DO MP ATIVO MONTE CARMELO - COMARCA; MONTE CARMELO-PJ-02PJ 4.553,46 273,21 0,00 0,00 0,00 0,00 4.826,67 530,93 390,75 0,00 921,68 3.904,99 516,24 0,00 28/02/2013
936 386800 GABRIELA SIMOES CHAVES ANALISTA DO MP ATIVO BELO HORIZONTE - COMARCA; EXTINTA - DIVISÃO DE COMPRAS 6.379,14 382,75 0,00 0,00 0,00 0,00 6.761,89 825,99 921,14 0,00 1.747,13 5.014,76 352,00 1.090,00 28/02/2013
937 449700 GABRIELE COSTA FERREIRA OFICIAL DO MP ATIVO BELO HORIZONTE - COMARCA; DIRETORIA DE ORCAMENTO-DIOR/SPC 3.051,96 0,00 0,00 0,00 1.017,32 0,00 4.069,28 335,72 263,05 0,00 598,77 3.470,51 352,00 0,00 28/02/2013
938 357600 GABRIELLA CRUZ EMRICH OFICIAL DO MP ATIVO BELO HORIZONTE - COMARCA; BH-12PJ JUIZO CRIMINAL 3.879,42 387,94 0,00 0,00 0,00 0,00 4.267,36 469,41 277,54 0,00 746,95 3.520,41 352,00 0,00 28/02/2013
939 470600 GABRIELLA SPIRANDELLI COIMBRA ANALISTA DO MP ATIVO UBERLÂNDIA - COMARCA; UBERLANDIA-PJ-19PJ 5.698,20 0,00 0,00 0,00 0,00 0,00 5.698,20 626,80 604,06 0,00 1.230,86 4.467,34 352,00 0,00 28/02/2013
940 86000 GASPAR GOMES DE SOUSA AGENTE DO MP ATIVO BELO HORIZONTE - COMARCA; BH-15PJ M AMB PAT HIST CULT-RECEPCAO 17.108,05 11.975,65 0,00 0,00 0,00 0,00 29.083,70 2.652,94 5.112,21 4.966,08 12.731,23 16.352,47 352,00 0,00 28/02/2013
941 183100 GECIELLE FERNANDA SILVA OFICIAL DO MP ATIVO PITANGUI - COMARCA; PITANGUI-PJ-02PJ 7.731,26 1.546,25 0,00 0,00 0,00 0,00 9.277,51 1.277,86 1.657,98 0,00 2.935,84 6.341,67 352,00 2.991,25 28/02/2013
942 387300 GEOFFREY GIULLIANO OLIVEIRA ALMEIDA ANALISTA DO MP ATIVO JANAÚBA - COMARCA; JANAUBA-PJ-03PJ 5.883,73 353,02 0,00 0,00 0,00 0,00 6.236,75 708,80 735,87 0,00 1.444,67 4.792,08 352,00 259,94 28/02/2013
943 277700 GEORGIA CRISTINA BASILIO MEDRADO ANALISTA DO MP ATIVO BELO HORIZONTE - COMARCA; SERVICO MEDICO-DEPTO PERIC MEDICA SAUDE OCUP 8.788,36 878,84 0,00 0,00 0,00 0,00 9.667,20 1.234,52 1.528,18 0,00 2.762,70 6.904,50 3.567,68 2.560,45 28/02/2013
944 512100 GEOVANI VICENTIN ANALISTA DO MP ATIVO SANTA RITA DE CALDAS - COMARCA; SANTA RITA DE CALDAS-PJ-UNPJ 4.701,73 0,00 0,00 0,00 0,00 0,00 4.701,73 517,19 364,52 0,00 881,71 3.820,02 352,00 0,00 28/02/2013
945 116300 GEOVANNA DAS GRACAS ROSA REQUEIJO AGENTE DO MP ATIVO SANTA LUZIA - COMARCA; SANTA LUZIA-PJ-06PJ 11.161,27 4.464,51 0,00 0,00 0,00 0,00 15.625,78 2.104,77 2.891,95 0,00 4.996,72 10.629,06 1.110,78 4.751,28 28/02/2013
946 207200 GERALDO AFONSO DE MOURA CALDEIRA ANALISTA DO MP ATIVO BELO HORIZONTE - COMARCA; BH-17PJ PATRIMONIO PUBLICO 12.062,58 2.412,52 0,00 0,00 0,00 1.592,26 16.067,36 1.980,50 3.190,07 0,00 5.170,57 10.896,79 352,00 4.984,89 28/02/2013
947 274901 GERALDO ANDRE DE OLIVEIRA ANALISTA DO MP ATIVO CONTAGEM - COMARCA; CONTAGEM-PJ-18PJ 4.270,85 854,17 0,00 0,00 0,00 0,00 5.125,02 563,75 463,77 0,00 1.027,52 4.097,50 352,00 0,00 28/02/2013
948 270900 GERALDO BATISTA BRITES OFICIAL DO MP ATIVO BOM DESPACHO - COMARCA; BOM DESPACHO-PJ-01PJ 5.344,58 1.068,92 0,00 0,00 0,00 0,00 6.413,50 799,53 684,54 0,00 1.484,07 4.929,43 727,43 1.269,32 28/02/2013
949 204200 GERALDO CELIO ARAUJO SOARES OFICIAL DO MP ATIVO GOVERNADOR VALADARES - COMARCA; GOVERNADOR VALADARES-PJ-12PJ 7.731,26 1.546,25 0,00 0,00 0,00 0,00 9.277,51 1.141,07 1.432,80 0,00 2.573,87 6.703,64 587,00 1.731,77 28/02/2013
950 66900 GERALDO DIAS CYRINO OFICIAL DO MP ATIVO BELO HORIZONTE - COMARCA; CAO-CRIM EXEC PENAL TRIB JURI AUD MILITAR 11.161,27 5.580,63 0,00 0,00 0,00 0,00 16.741,90 2.323,24 3.259,71 0,00 5.582,95 11.158,95 3.567,68 5.484,89 28/02/2013
951 366500 GERALDO LEVY ROMUALDO DA SILVA OFICIAL DO MP ATIVO RIO POMBA - COMARCA; RIO POMBA-PJ-SECRETARIA 3.879,42 387,94 0,00 0,00 1.422,45 0,00 5.689,81 469,41 645,03 0,00 1.114,44 4.575,37 352,00 0,00 28/02/2013
952 278400 GERALDO MAGELA RAMALHO OFICIAL DO MP ATIVO VISCONDE DO RIO BRANCO - COMARCA; VISCONDE DO RIO BRANCO-PJ-03PJ 4.005,77 400,58 0,00 0,00 0,00 0,00 4.406,35 484,70 305,37 0,00 790,07 3.616,28 352,00 0,00 28/02/2013
953 124300 GERALDO MARCIO GOMES DA SILVA COORDENADOR/ANALISTA ATIVO BELO HORIZONTE - COMARCA; EXTINTA - DIRETORIA SERVIÇOS GERAIS E TRANS 16.456,57 15.874,25 0,00 0,00 0,00 0,00 32.330,82 2.652,94 4.875,75 8.213,20 15.741,89 16.588,93 3.567,68 294,77 28/02/2013
954 124400 GERALDO MAURICIO DE FARIA ROCHA OFICIAL DO MP ATIVO BELO HORIZONTE - COMARCA; CAO-CONFLITOS AGRARIOS 6.801,32 4.760,93 0,00 0,00 0,00 0,00 11.562,25 1.484,81 1.944,70 0,00 3.429,51 8.132,74 352,00 2.428,36 28/02/2013
955 472800 GERALDO MONTEIRO CAMARGO JUNIOR ANALISTA DO MP ATIVO ESPINOSA - COMARCA; ESPINOSA-PJ-UNPJ 4.701,73 940,35 0,00 0,00 0,00 0,00 5.642,08 620,63 590,32 0,00 1.210,95 4.431,13 352,00 0,00 28/02/2013
956 124500 GERALDO ROGERIO GOMES SILVEIRA COORDENADOR/OFICIAL ATIVO BELO HORIZONTE - COMARCA; DIRETORIA DE PESSOAL ADMINISTRATIVO - DPAD 8.511,21 8.473,33 0,00 0,00 0,00 0,00 16.984,54 2.047,20 3.401,96 0,00 5.449,16 11.535,38 3.703,05 6.279,30 28/02/2013
957 445900 GERALDO TAVARES FERREIRA ANALISTA DO MP ATIVO FORMIGA - COMARCA; FORMIGA-PJ-03PJ 5.344,58 320,67 0,00 0,00 0,00 0,00 5.665,25 623,18 595,99 0,00 1.219,17 4.446,08 352,00 0,00 28/02/2013
958 521000 GERALDO VINICIUS IRENO ANALISTA DO MP ATIVO CURVELO - COMARCA; CURVELO-PJ-01PJ 4.553,46 0,00 0,00 0,00 0,00 0,00 4.553,46 500,88 334,83 0,00 835,71 3.717,75 352,00 0,00 28/02/2013
959 325400 GERSONI FERREIRA LUCENA OFICIAL DO MP ATIVO POÇOS DE CALDAS - COMARCA; POCOS DE CALDAS-PJ-01PJ 4.553,46 455,35 0,00 0,00 0,00 0,00 5.008,81 631,25 519,36 0,00 1.150,61 3.858,20 2.380,13 864,29 28/02/2013
960 445600 GERUSA E SILVA CASTRO LOPEZ ANALISTA DO MP ATIVO BELO HORIZONTE - COMARCA; ASSESSORIA JURIDICO-ADMINISTRATIVA 5.344,58 320,67 0,00 0,00 0,00 0,00 5.665,25 623,18 595,99 0,00 1.219,17 4.446,08 352,00 0,00 28/02/2013
961 468600 GILDA MARIA SANTOS DE FILIPPO ANDRADE OFICIAL DO MP ATIVO UBÁ - COMARCA; COORD REG BACIA DO RIO PARAIBA DO SUL 3.698,79 0,00 0,00 0,00 0,00 0,00 3.698,79 406,87 173,19 0,00 580,06 3.118,73 1.831,52 73,98 28/02/2013
962 508300 GILMAR ALVES FERREIRA OFICIAL DO MP ATIVO BELO HORIZONTE - COMARCA; BH-13ª PJ JUÍXO DE TÓXICOS 2.772,23 0,00 0,00 0,00 924,08 0,00 3.696,31 304,95 188,10 0,00 493,05 3.203,26 352,00 0,00 28/02/2013
963 455400 GILMAR DIAS NASCIMENTO OFICIAL DO MP ATIVO SÃO FRANCISCO - COMARCA; SAO FRANCISCO-PJ-01PJ 3.051,96 0,00 0,00 0,00 0,00 0,00 3.051,96 335,72 86,84 0,00 422,56 2.629,40 352,00 0,00 28/02/2013
964 213000 GILMAR JOSE DA SILVA OFICIAL DO MP ATIVO DIVINÓPOLIS - COMARCA; DIVINOPOLIS-PJ-SECRETARIA 7.731,26 1.546,25 0,00 0,00 0,00 0,00 9.277,51 1.147,74 1.480,09 0,00 2.627,83 6.649,68 3.567,68 2.095,00 28/02/2013
965 496900 GILSON NOGUEIRA GUIMARAES ANALISTA DO MP ATIVO MANHUMIRIM - COMARCA; MANHUMIRIM-PJ-01PJ 5.176,02 0,00 0,00 0,00 0,00 0,00 5.176,02 569,36 476,25 0,00 1.045,61 4.130,41 352,00 0,00 28/02/2013
966 476600 GIMENNI JULIANA VILELA MACHADO MOREIRA OFICIAL DO MP ATIVO CONTAGEM - COMARCA; CONTAGEM-PJ-12PJ 3.359,85 0,00 0,00 0,00 0,00 0,00 3.359,85 369,58 102,15 0,00 471,73 2.888,12 587,00 0,00 28/02/2013
967 391700 GIORDANI LOPES TAVARES ANALISTA DO MP ATIVO BELO HORIZONTE - COMARCA; SUPERINTENDÊNCIA DE ENGENHARIA E ARQUITETURA 6.379,14 382,75 0,00 0,00 0,00 0,00 6.761,89 833,79 864,39 0,00 1.698,18 5.063,71 352,00 1.202,68 28/02/2013
968 251300 GIOVANE SOUZA PEREIRA OFICIAL DO MP ATIVO PARAGUAÇU - COMARCA; PARAGUACU-PJ-SECRETARIA 4.553,46 910,69 0,00 0,00 0,00 0,00 5.464,15 633,33 546,77 0,00 1.180,10 4.284,05 352,00 620,75 28/02/2013
969 438800 GIOVANNA BRANDAO DE ARAUJO ANALISTA DO MP ATIVO ALMENARA - COMARCA; ALMENARA-PJ-01PJ 5.344,58 320,67 0,00 0,00 0,00 0,00 5.665,25 623,18 595,99 0,00 1.219,17 4.446,08 352,00 0,00 28/02/2013
970 243400 GIOVANNA FRANCA BISTENE OFICIAL DO MP ATIVO BELO HORIZONTE - COMARCA; ASSESS EXECUTIVA DO CONSELHO SUPERIOR DO MP 6.075,32 1.215,06 0,00 0,00 0,00 0,00 7.290,38 864,57 899,16 0,00 1.763,73 5.526,65 822,00 915,89 28/02/2013
971 124600 GIOVANNI ANANIAS CAMILO DO VALLE ANALISTA DO MP ATIVO OLIVEIRA - COMARCA; OLIVEIRA-PJ-01PJ 13.036,58 6.518,29 0,00 0,00 0,00 0,00 19.554,87 2.763,17 4.177,75 0,00 6.940,92 12.613,95 352,00 6.458,40 28/02/2013
972 366700 GIOVANNI DE SOUZA ANDRADE OFICIAL DO MP ATIVO PASSOS - COMARCA; PASSOS-PJ-01PJ 3.879,42 387,94 0,00 0,00 0,00 0,00 4.267,36 469,41 171,71 0,00 641,12 3.626,24 352,00 0,00 28/02/2013
973 124700 GIOVANNI REIS CONDE OFICIAL DO MP ATIVO MERCÊS - COMARCA; MERCES-PJ-SECRETARIA 5.344,58 3.741,20 0,00 0,00 0,00 0,00 9.085,78 1.147,08 749,06 0,00 1.896,14 7.189,64 352,00 2.015,65 28/02/2013
974 219000 GIRLEI DE FATIMA SOUSA ASSESSOR ATIVO BELO HORIZONTE - COMARCA; BH-17PJ PATRIMONIO PUBLICO 0,00 1.648,56 8.242,82 0,00 3.297,13 0,00 13.188,51 457,49 2.710,45 0,00 3.167,94 10.020,57 628,03 3.047,65 28/02/2013
975 444600 GISELE ADRIANE FONSECA ANALISTA DO MP ATIVO BETIM - COMARCA; BETIM-PJ-03PJ 5.883,73 353,02 0,00 0,00 0,00 0,00 6.236,75 698,03 735,87 0,00 1.433,90 4.802,85 352,00 159,43 28/02/2013
976 445100 GISELE DE CAMPOS VERSIANI ASSESSOR/OFICIAL ATIVO BELO HORIZONTE - COMARCA; DIRET DE INFORMACAO E EXPEDICAO DE PROCESSOS 0,00 449,25 7.487,46 0,00 0,00 0,00 7.936,71 410,42 1.297,40 0,00 1.707,82 6.228,89 352,00 153,77 28/02/2013
977 423000 GISELE MEGALE SANTINI ANALISTA DO MP ATIVO BELO HORIZONTE - COMARCA; BH-09PJ AUDITORIA MILITAR-SECRETARIA 6.379,14 382,75 0,00 0,00 0,00 0,00 6.761,89 839,18 1.109,60 0,00 1.948,78 4.813,11 3.056,76 1.616,31 28/02/2013
978 425300 GISELE MENEZES RIBEIRO DE OLIVEIRA ANALISTA DO MP ATIVO SANTA LUZIA - COMARCA; SANTA LUZIA-PJ-01PJ 5.344,58 320,67 0,00 0,00 0,00 0,00 5.665,25 629,60 548,70 0,00 1.178,30 4.486,95 352,00 102,01 28/02/2013
979 116500 GISELIA MARIA GABRIEL DE PAULA OFICIAL DO MP ATIVO BELO HORIZONTE - COMARCA; BH-14PJ DEFESA CONSUMIDOR-SECRETARIA 7.982,93 5.588,05 0,00 0,00 0,00 1.492,81 15.063,79 1.838,64 2.941,44 0,00 4.780,08 10.283,71 352,00 4.450,81 28/02/2013
980 478200 GISELLE BRESCIA SOARES DE SOUZA CUNHA ANALISTA DO MP ATIVO ITAÚNA - COMARCA; ITAUNA-PJ-04PJ 5.176,02 0,00 0,00 0,00 1.725,34 0,00 6.901,36 569,36 903,43 0,00 1.472,79 5.428,57 587,00 0,00 28/02/2013
981 289300 GISELLE CASTRO MACHADO ANALISTA DO MP ATIVO BELO HORIZONTE - COMARCA; EXTINTA - SECRETARIA ADMINISTRATIVA 5.883,73 588,37 0,00 0,00 0,00 0,00 6.472,10 779,45 898,76 0,00 1.678,21 4.793,89 352,00 939,05 28/02/2013
982 345400 GISELLE CORREIA BORGES DIRETOR/ANALISTA ATIVO BELO HORIZONTE - COMARCA; SUPERINTENDENCIA DE COMUNICACAO INTEGRADA 0,00 1.254,01 12.540,10 0,00 0,00 0,00 13.794,11 1.097,09 2.745,89 0,00 3.842,98 9.951,13 3.567,68 2.244,19 28/02/2013
983 399100 GISELLE DE VIVEIROS LEITAO OFICIAL DO MP ATIVO MATIAS BARBOSA - COMARCA; MATIAS BARBOSA-PJ-SECRETARIA 3.469,26 208,16 0,00 0,00 0,00 0,00 3.677,42 404,52 170,34 0,00 574,86 3.102,56 352,00 0,00 28/02/2013
984 357401 GISELLE GUIMARAES DE OLIVEIRA REZENDE ANALISTA DO MP ATIVO BELO HORIZONTE - COMARCA; COMB CRIMES PRAT POR AG POL MUN-ASSESSORIA 6.379,14 382,75 0,00 0,00 0,00 0,00 6.761,89 774,05 864,39 0,00 1.638,44 5.123,45 3.567,68 835,17 28/02/2013
985 492200 GISELLE MUNIZ DE AGUIAR ANALISTA DO MP ATIVO BRASÍLIA DE MINAS - COMARCA; BRASILIA DE MINAS-PJ-02PJ 4.701,73 0,00 0,00 0,00 0,00 0,00 4.701,73 517,19 364,52 0,00 881,71 3.820,02 352,00 0,00 28/02/2013
986 520300 GISELLE NORMANDIA GONCALVES ANALISTA DO MP ATIVO SANTO ANTÔNIO DO MONTE - COMARCA; SANTO ANTONIO DO MONTE-PJ-UNPJ 5.176,02 0,00 0,00 0,00 0,00 0,00 5.176,02 596,30 551,14 0,00 1.147,44 4.028,58 352,00 435,29 28/02/2013
987 112300 GISELLE VILELA RIBEIRO AGENTE DO MP ATIVO BELO HORIZONTE - COMARCA; BH-07PJ 01 TRIBUNAL DO JURI 7.982,93 3.991,47 0,00 0,00 0,00 0,00 11.974,40 1.598,25 2.140,16 0,00 3.738,41 8.235,99 1.263,04 3.645,22 28/02/2013
988 459800 GISELLI FERNANDES COSTA ANALISTA DO MP ATIVO GOVERNADOR VALADARES - COMARCA; GOVERNADOR VALADARES-PJ-08PJ 5.698,20 1.139,64 0,00 0,00 0,00 0,00 6.837,84 798,75 882,98 0,00 1.681,73 5.156,11 3.567,68 1.051,89 28/02/2013
989 149600 GISLAINE FERNANDES MAGNO OFICIAL DO MP ATIVO BELO HORIZONTE - COMARCA; SUPRIN DE FORMACAO E APERFEICOAMENTO-SFA/CEAF 8.788,36 2.636,51 0,00 0,00 0,00 0,00 11.424,87 1.560,16 1.923,35 0,00 3.483,51 7.941,36 3.567,68 3.679,49 28/02/2013
990 85800 GISLANDIA MARTINS ABREU E SILVA OFICIAL DO MP ATIVO BELO HORIZONTE - COMARCA; JUNTA RECURSAL DO PROCON ESTADUAL 19.713,97 7.885,59 0,00 0,00 0,00 0,00 27.599,56 2.652,94 5.017,62 3.481,94 11.152,50 16.447,06 352,00 0,00 28/02/2013
991 112700 GISLEIA MARTINS DA SILVA OFICIAL DO MP ATIVO BELO HORIZONTE - COMARCA; ASSESSORIA ESPECIAL DO PGJ 8.788,36 3.515,35 0,00 0,00 0,00 0,00 12.303,71 1.626,37 2.078,88 0,00 3.705,25 8.598,46 3.802,68 3.651,25 28/02/2013
992 250100 GISLEIDE GONALVES DE OLIVEIRA OFICIAL DO MP ATIVO JANAÚBA - COMARCA; JANAUBA-PJ-01PJ 5.176,02 1.035,20 0,00 0,00 0,00 0,00 6.211,22 689,96 729,62 0,00 1.419,58 4.791,64 822,00 106,98 28/02/2013
993 335300 GISLENE FAUSTINO DIAS DE ALMEIDA OFICIAL DO MP ATIVO UBERLÂNDIA - COMARCA; UBERLANDIA-COORD CONJ-FAMÍLIA E JUIZ ESP CRIM 5.344,58 534,46 0,00 0,00 0,00 0,00 5.879,04 653,67 648,32 0,00 1.301,99 4.577,05 352,00 110,90 28/02/2013
994 492400 GISLENE GOMIDE GUIMARAES CREPALDE ANALISTA DO MP ATIVO CARATINGA - COMARCA; CARATINGA-PJ-02PJ 5.176,02 0,00 0,00 0,00 0,00 0,00 5.176,02 569,36 476,25 0,00 1.045,61 4.130,41 352,00 0,00 28/02/2013
995 329800 GISLENE MENDES MARTINS OFICIAL DO MP ATIVO BELO HORIZONTE - COMARCA; BH-17PJ PATRIMONIO PUBLICO-SECRETARIA 5.012,79 501,28 0,00 0,00 0,00 0,00 5.514,07 613,39 558,99 0,00 1.172,38 4.341,69 2.650,39 319,31 28/02/2013
996 327200 GISLEY CERQUEIRA SCAPOLATEMPORE BERNIS ASSESSOR/OFICIAL ATIVO BELO HORIZONTE - COMARCA; CGMP-DIVIS DE APOIO FISC ORIENTACAO FUNCIONAL 0,00 824,28 8.242,82 0,00 0,00 0,00 9.067,10 744,98 1.542,74 0,00 2.287,72 6.779,38 3.567,68 3.060,60 28/02/2013
997 525300 GIULIANO LOMBARDI ASSUMPCAO OFICIAL DO MP ATIVO CONTAGEM - COMARCA; CONTAGEM-PJ-01PJ 2.684,83 0,00 0,00 0,00 0,00 0,00 2.684,83 295,33 50,90 0,00 346,23 2.338,60 1.962,90 40,27 28/02/2013
998 503100 GIULLIANA MATTIOLI OFICIAL DO MP ATIVO ITAJUBA - COMARCA; ITAJUBA-PJ-02PJ 3.051,96 0,00 0,00 0,00 0,00 0,00 3.051,96 335,72 62,51 0,00 398,23 2.653,73 641,00 0,00 28/02/2013
999 459300 GLADSON LIMA DE SOUZA OFICIAL DO MP ATIVO PATOS DE MINAS - COMARCA; PATOS DE MINAS-PJ-05PJ 3.051,96 0,00 0,00 0,00 0,00 0,00 3.051,96 335,72 86,84 0,00 422,56 2.629,40 1.572,78 61,04 28/02/2013
1000 148300 GLADSTON ALMEIDA CAJA AGENTE DO MP ATIVO BELO HORIZONTE - COMARCA; PROCON-MG-SECRETARIA DE FISCALIZACOES 5.518,54 2.207,42 0,00 0,00 0,00 0,00 7.725,96 1.110,00 1.329,96 0,00 2.439,96 5.286,00 3.567,68 3.259,20 28/02/2013
1001 333800 GLADSTON CIRILO TAVARES GOMES OFICIAL DO MP ATIVO JUIZ DE FORA - COMARCA; JUIZ DE FORA-PJ-24PJ 4.553,46 455,35 0,00 0,00 0,00 0,00 5.008,81 550,97 435,33 0,00 986,30 4.022,51 2.145,13 164,37 28/02/2013
1002 391600 GLAUBER COELHO CARVALHO ANALISTA DO MP ATIVO JANUÁRIA - COMARCA; JANUARIA-PJ-02PJ 6.379,14 382,75 0,00 0,00 0,00 0,00 6.761,89 772,64 864,39 0,00 1.637,03 5.124,86 3.567,68 694,77 28/02/2013
1003 478700 GLAUCIA TAVARES ANALISTA DO MP ATIVO RIBEIRÃO DAS NEVES - COMARCA; RIBEIRAO DAS NEVES-PJ-03PJ 4.270,85 0,00 0,00 0,00 0,00 0,00 4.270,85 469,79 278,24 0,00 748,03 3.522,82 352,00 0,00 28/02/2013
1004 263800 GLAUDITON FERREIRA DE MATOS ASSESSOR ATIVO BELO HORIZONTE - COMARCA; DIRETORIA DE SUPORTE E MANUTENCAO 0,00 369,88 3.698,79 0,00 0,00 0,00 4.068,67 455,00 236,08 0,00 691,08 3.377,59 1.204,99 63,97 28/02/2013
1005 444500 GLAYSSON PEREIRA DA COSTA ANALISTA DO MP ATIVO CONTAGEM - COMARCA; CONTAGEM-PJ-APO TECNICO 5.883,73 1.176,75 0,00 0,00 0,00 0,00 7.060,48 790,11 937,47 0,00 1.727,58 5.332,90 352,00 173,10 28/02/2013
1006 238900 GLEICE LUCIA FRANCO OFICIAL DO MP ATIVO BELO HORIZONTE - COMARCA; BH-13ª PJ JUÍXO DE TÓXICOS 6.075,32 1.215,06 0,00 0,00 2.430,13 0,00 9.720,51 840,92 1.662,03 0,00 2.502,95 7.217,56 352,00 678,61 28/02/2013
1007 276400 GLEICE RENATA DE AMORIM FREITAS OFICIAL DO MP ATIVO BELO HORIZONTE - COMARCA; CGMP-DIVISAO DE APOIO ADMINISTRATIVO 5.518,54 551,85 0,00 0,00 0,00 0,00 6.070,39 731,17 771,57 0,00 1.502,74 4.567,65 3.206,71 1.039,10 28/02/2013
1008 410900 GLEICIANE GARCIA LAGARES RESENDE ANALISTA DO MP ATIVO IPATINGA - COMARCA; IPATINGA-PJ-03PJ 5.344,58 320,67 0,00 0,00 0,00 0,00 5.665,25 623,18 595,99 0,00 1.219,17 4.446,08 587,00 0,00 28/02/2013
1009 423200 GLEISON SOUZA CREPALDE ANALISTA DO MP ATIVO RAUL SOARES - COMARCA; RAUL SOARES-PJ-UNPJ 6.379,14 382,75 0,00 0,00 0,00 0,00 6.761,89 750,72 864,39 0,00 1.615,11 5.146,78 352,00 109,73 28/02/2013
1010 452200 GLEISY ANDRADE MORAIS ANALISTA DO MP ATIVO BELO HORIZONTE - COMARCA; COMB CRIMES PRAT POR AG POL MUN-ASSESSORIA 5.698,20 0,00 0,00 0,00 0,00 0,00 5.698,20 626,80 604,06 0,00 1.230,86 4.467,34 352,00 0,00 28/02/2013
1011 476500 GRACIELLY MARTINS PARREIRA PORTO ANALISTA DO MP ATIVO PASSOS - COMARCA; PASSOS-PJ-03PJ 5.698,20 0,00 0,00 0,00 0,00 0,00 5.698,20 626,80 556,76 0,00 1.183,56 4.514,64 2.834,52 227,56 28/02/2013
1012 491700 GRAZIELA COLARES LUZ SUSKI ANALISTA DO MP ATIVO BELO HORIZONTE - COMARCA; BH-18PJ VIOLENCIA DOMESTICA-SECRETARIA 5.176,02 0,00 0,00 0,00 0,00 0,00 5.176,02 569,36 476,25 0,00 1.045,61 4.130,41 352,00 0,00 28/02/2013
1013 421700 GRAZIELI DE SOUSA OLIVEIRA ANALISTA DO MP ATIVO RIBEIRÃO DAS NEVES - COMARCA; RIBEIRAO DAS NEVES-PJ-02PJ 6.379,14 382,75 0,00 0,00 0,00 0,00 6.761,89 767,47 864,39 0,00 1.631,86 5.130,03 352,00 268,30 28/02/2013
1014 401800 GRAZIELLA CRISTINA DE SOUZA COUTO ANALISTA DO MP ATIVO ALÉM PARAÍBA - COMARCA; ALEM PARAIBA-PJ-01PJ 6.379,14 382,75 0,00 0,00 0,00 0,00 6.761,89 914,97 1.148,11 0,00 2.063,08 4.698,81 352,00 1.888,45 28/02/2013
1015 518000 GRAZIELLA LEDO DE PAULA OFICIAL DO MP ATIVO PALMA - COMARCA; PALMA-PJ-UNPJ 2.684,83 0,00 0,00 0,00 0,00 0,00 2.684,83 295,33 50,90 0,00 346,23 2.338,60 352,00 0,00 28/02/2013
1016 489100 GRAZIELLE HELEN FERREIRA BRANDAO OFICIAL DO MP ATIVO BELO HORIZONTE - COMARCA; DIRETORIA DE GESTAO DOCUMENTAL 3.359,85 0,00 0,00 0,00 0,00 0,00 3.359,85 369,58 127,94 0,00 497,52 2.862,33 352,00 0,00 28/02/2013
1017 465400 GRAZZIELA DE OLIVEIRA E SOUSA LACERDA ANALISTA DO MP ATIVO ALMENARA - COMARCA; ALMENARA-PJ-03PJ 4.701,73 0,00 0,00 0,00 0,00 0,00 4.701,73 517,19 364,52 0,00 881,71 3.820,02 352,00 0,00 28/02/2013
1018 124800 GUARACI BARBOZA RIBEIRO OFICIAL DO MP ATIVO UBERLÂNDIA - COMARCA; UBERLANDIA-PJ-13PJ 8.788,36 6.151,86 0,00 0,00 0,00 0,00 14.940,22 2.048,58 2.724,16 0,00 4.772,74 10.167,48 3.567,68 5.087,81 28/02/2013
1019 116100 GUILHERME ANTONIO FURTADO OLIVEIRA OFICIAL DO MP ATIVO BELO HORIZONTE - COMARCA; DIRET DE INFORMACAO E EXPEDICAO DE PROCESSOS 10.651,04 5.325,52 0,00 0,00 0,00 0,00 15.976,56 2.107,85 3.119,68 0,00 5.227,53 10.749,03 4.702,18 4.841,82 28/02/2013
1020 422900 GUILHERME CORREA LAGROTTA ANALISTA DO MP ATIVO LAMBARI - COMARCA; LAMBARI-PJ-UNPJ 5.883,73 353,02 0,00 0,00 0,00 0,00 6.236,75 692,83 735,87 0,00 1.428,70 4.808,05 352,00 107,92 28/02/2013
1021 502300 GUILHERME DAHER DE ALMEIDA JUNQUEIRA ANALISTA DO MP ATIVO LAVRAS - COMARCA; COORD REG DO MA DA BACIA DO RIO GRANDE 4.270,85 0,00 0,00 0,00 0,00 0,00 4.270,85 469,79 278,24 0,00 748,03 3.522,82 587,00 0,00 28/02/2013
1022 476100 GUILHERME FIDELIS MARQUES ANALISTA DO MP ATIVO JABOTICATUBAS - COMARCA; JABOTICATUBAS-PJ-UNPJ 4.701,73 0,00 0,00 0,00 0,00 0,00 4.701,73 517,19 364,52 0,00 881,71 3.820,02 352,00 0,00 28/02/2013
1023 448000 GUILHERME LACERDA RIBEIRO ANALISTA DO MP ATIVO BELO HORIZONTE - COMARCA; DIR GESTAO SISTEMAS ATIVIDADE-FIM 5.883,73 353,02 0,00 0,00 0,00 0,00 6.236,75 747,17 822,88 0,00 1.570,05 4.666,70 352,00 1.007,99 28/02/2013
1024 380600 GUILHERME RIBEIRO JOAQUIM OFICIAL DO MP ATIVO CACHOEIRA DE MINAS - COMARCA; CACHOEIRA DE MINAS-PJ-SECRETARIA 3.151,29 189,08 0,00 0,00 0,00 0,00 3.340,37 367,44 125,34 0,00 492,78 2.847,59 536,32 0,00 28/02/2013
1025 490900 GUSTAVO DE CARVALHO HERZOG ANALISTA DO MP ATIVO BELO HORIZONTE - COMARCA; BH-18PJ VIOLENCIA DOMESTICA-SECRETARIA 5.176,02 0,00 0,00 0,00 0,00 0,00 5.176,02 569,36 476,25 0,00 1.045,61 4.130,41 352,00 0,00 28/02/2013
1026 431100 GUSTAVO DE SOUZA RIBEIRO ANALISTA DO MP ATIVO UBERLÂNDIA - COMARCA; UBERLANDIA-PJ-19PJ 5.344,58 320,67 0,00 0,00 0,00 0,00 5.665,25 637,85 595,99 0,00 1.233,84 4.431,41 535,47 201,31 28/02/2013
1027 506300 GUSTAVO GOMES FREIRE OFICIAL DO MP ATIVO OURO PRETO - COMARCA; OURO PRETO-PJ-02PJ 2.772,23 0,00 0,00 0,00 0,00 0,00 2.772,23 304,95 56,74 0,00 361,69 2.410,54 352,00 0,00 28/02/2013
1028 368200 GUSTAVO MESQUITA PEREIRA VARGAS ANALISTA DO MP ATIVO BELO HORIZONTE - COMARCA; ASSESS TECNICO-JUR JUNTO AS PROC. DE JUST 5.012,79 501,28 0,00 0,00 0,00 0,00 5.514,07 728,53 815,40 0,00 1.543,93 3.970,14 352,00 1.154,80 28/02/2013
1029 523100 GUSTAVO PORTO DINIZ REIS OFICIAL DO MP ATIVO BELO HORIZONTE - COMARCA; DIRETORIA DE SERVICO CRIMINAL 2.955,70 0,00 0,00 0,00 985,23 0,00 3.940,93 325,13 236,56 0,00 561,69 3.379,24 352,00 0,00 28/02/2013
1030 475400 GUSTAVO RICCIARDI CRUVINEL ANALISTA DO MP ATIVO GUAXUPÉ - COMARCA; GUAXUPE-PJ-03PJ 5.698,20 0,00 0,00 0,00 0,00 0,00 5.698,20 626,80 509,47 0,00 1.136,27 4.561,93 3.567,68 294,77 28/02/2013
1031 386200 GUSTHAVO CARVALHO NAVARRO OFICIAL DO MP ATIVO LAGOA SANTA - COMARCA; LAGOA SANTA-PJ-01PJ 4.553,46 273,21 0,00 0,00 0,00 0,00 4.826,67 530,93 390,75 0,00 921,68 3.904,99 1.962,99 147,67 28/02/2013
1032 275500 HEBER SOUZA FRANCA OFICIAL DO MP ATIVO BELO HORIZONTE - COMARCA; DIRET DE INFORMACAO E EXPEDICAO DE PROCESSOS 4.409,86 881,97 0,00 0,00 0,00 0,00 5.291,83 590,66 457,30 0,00 1.047,96 4.243,87 3.567,68 422,30 28/02/2013
1033 251701 HEBIA LUIZA MACHADO ASSIS ANALISTA DO MP ATIVO ITAÚNA - COMARCA; ITAUNA-PJ-03PJ 5.176,02 1.035,20 0,00 0,00 0,00 0,00 6.211,22 683,23 729,62 0,00 1.412,85 4.798,37 352,00 0,00 28/02/2013
1034 242000 HELAINE GUARNIERI AGOSTINHO OFICIAL DO MP ATIVO JUIZ DE FORA - COMARCA; JUIZ DE FORA-PJ-13PJ 6.075,32 1.215,06 0,00 0,00 0,00 0,00 7.290,38 848,68 946,45 0,00 1.795,13 5.495,25 3.802,68 1.047,76 28/02/2013
1035 511900 HELBERTH ELIAS CUNHA ANALISTA DO MP ATIVO CONTAGEM - COMARCA; CONTAGEM-PJ-04PJ 4.136,15 1.240,85 0,00 0,00 0,00 0,00 5.377,00 591,47 525,44 0,00 1.116,91 4.260,09 587,00 0,00 28/02/2013
1036 524900 HELDER DA COSTA RODRIGUES ANALISTA DO MP ATIVO BELO HORIZONTE - COMARCA; COORD REG BACIAS RIO VELHAS E PARAOPEBA 4.553,46 0,00 0,00 0,00 0,00 0,00 4.553,46 500,88 334,83 0,00 835,71 3.717,75 352,00 0,00 28/02/2013
1037 397000 HELEN CRISTINA TABELINI DE ANDRADE ASSESSOR ATIVO BELO HORIZONTE - COMARCA; CENT DE ATENDIMENTO AS PROMOTORIAS DE JUSTICA 0,00 0,00 3.698,79 0,00 0,00 0,00 3.698,79 427,87 170,04 0,00 597,91 3.100,88 1.070,11 24,16 28/02/2013
1038 465300 HELEN GOULART MAGALHAES DA FONSECA OFICIAL DO MP ATIVO CONTAGEM - COMARCA; CONTAGEM-PJ-10PJ 3.359,85 0,00 0,00 0,00 0,00 0,00 3.359,85 369,58 127,94 0,00 497,52 2.862,33 352,00 0,00 28/02/2013
1039 310801 HELEN ROCHA DO VALLE ANALISTA DO MP ATIVO BELO HORIZONTE - COMARCA; DIRETORIA DE CONTABILIDADE 7.731,26 1.546,25 0,00 0,00 0,00 0,00 9.277,51 1.122,54 1.480,09 0,00 2.602,63 6.674,88 3.567,68 1.635,83 28/02/2013
1040 498600 HELENA CARVALHO MOYSES OFICIAL DO MP ATIVO BELO HORIZONTE - COMARCA; DIRETORIA DE PRODUCAO EDITORIAL 3.051,96 0,00 0,00 0,00 0,00 0,00 3.051,96 335,72 86,84 0,00 422,56 2.629,40 822,00 0,00 28/02/2013
1041 324000 HELENA DO CARMO FERREIRA RAMOS OFICIAL DO MP ATIVO BURITIS - COMARCA; BURITIS-PJ-SECRETARIA 4.854,78 3.398,34 0,00 0,00 2.751,04 0,00 11.004,16 1.028,25 1.844,03 0,00 2.872,28 8.131,88 624,39 1.530,36 28/02/2013
1042 327800 HELENO TADEU TUCCI DE ALMEIDA OFICIAL DO MP ATIVO ITAJUBA - COMARCA; ITAJUBA-PJ-01PJ 4.005,77 400,58 0,00 0,00 0,00 0,00 4.406,35 484,70 227,98 0,00 712,68 3.693,67 587,00 0,00 28/02/2013
1043 204300 HELIANE DAS GRAAS MACHADO SANTOS VIEIRA OFICIAL DO MP ATIVO GOVERNADOR VALADARES - COMARCA; GOVERNADOR VALADARES-PJ-11PJ 6.177,98 1.235,60 0,00 0,00 2.471,19 0,00 9.884,77 923,37 1.656,18 0,00 2.579,55 7.305,22 815,34 1.473,21 28/02/2013
1044 374500 HELIONARDO FEITOZA GONCALVES ANALISTA DO MP ATIVO JEQUITINHONHA - COMARCA; JEQUITINHONHA-PJ-SECRETARIA 5.883,73 353,02 0,00 0,00 0,00 0,00 6.236,75 714,84 735,87 0,00 1.450,71 4.786,04 3.567,68 645,78 28/02/2013
1045 488500 HELLEN QUEIROZ ARAUJO ANALISTA DO MP ATIVO MONTES CLAROS - COMARCA; COORD REG PATRI PUB ORD TRIB-NORTE MINAS 4.701,73 0,00 0,00 0,00 0,00 0,00 4.701,73 517,19 364,52 0,00 881,71 3.820,02 587,00 0,00 28/02/2013
1046 374000 HELOISA HELENA RODRIGUES OFICIAL DO MP ATIVO CAMPOS ALTOS - COMARCA; CAMPOS ALTOS-PJ-SECRETARIA 3.757,11 375,71 0,00 0,00 0,00 0,00 4.132,82 471,14 203,30 0,00 674,44 3.458,38 352,00 150,28 28/02/2013
1047 497700 HELOISA MARIA FERREIRA DURAES ANALISTA DO MP ATIVO BELO HORIZONTE - COMARCA; ASSESS TECNICO-JUR JUNTO AS PROC. DE JUST 5.176,02 0,00 0,00 0,00 0,00 0,00 5.176,02 569,36 476,25 0,00 1.045,61 4.130,41 352,00 0,00 28/02/2013
1048 444300 HELVES RODRIGUES DA SILVA ANALISTA DO MP ATIVO SETE LAGOAS - COMARCA; SETE LAGOAS-PJ-08PJ 5.883,73 353,02 0,00 0,00 0,00 0,00 6.236,75 767,17 806,33 0,00 1.573,50 4.663,25 352,00 838,12 28/02/2013
1049 521400 HENRIQUE EDUARDO BRUZZI OFICIAL DO MP ATIVO BELO HORIZONTE - COMARCA; DIRETORIA DE ADMINISTRACAO FINANCEIRA 2.684,83 0,00 0,00 0,00 0,00 0,00 2.684,83 295,33 50,90 0,00 346,23 2.338,60 3.036,83 67,12 28/02/2013
1050 515700 HENRIQUE FLORES MENDES ANALISTA DO MP ATIVO PARÁ DE MINAS - COMARCA; PARA DE MINAS-PJ-02PJ 4.701,73 0,00 0,00 0,00 0,00 0,00 4.701,73 517,19 364,52 0,00 881,71 3.820,02 352,00 0,00 28/02/2013
1051 445500 HENRIQUE MATHEUS LONDERO DOS SANTOS ANALISTA DO MP ATIVO UBERLÂNDIA - COMARCA; UBERLANDIA-PJ-21PJ 5.883,73 353,02 0,00 0,00 0,00 0,00 6.236,75 686,04 735,87 0,00 1.421,91 4.814,84 587,00 0,00 28/02/2013
1052 504500 HENRIQUE MOREIRA DE MELO SILVA ANALISTA DO MP ATIVO DIAMANTINA - COMARCA; COORD REG BACIAS RIOS JEQUITINHONHA E MUCURI 4.270,85 0,00 0,00 0,00 0,00 0,00 4.270,85 469,79 278,24 0,00 748,03 3.522,82 587,00 0,00 28/02/2013
1053 310700 HENRIQUE RODRIGUES VALLE OFICIAL DO MP ATIVO BELO HORIZONTE - COMARCA; DIRETORIA DE SISTEMAS DE INFORMACAO 4.409,86 1.322,96 0,00 0,00 0,00 0,00 5.732,82 637,44 612,53 0,00 1.249,97 4.482,85 352,00 108,53 28/02/2013
1054 493100 HENRIQUE YUKIO PEREIRA DE SOUZA ANALISTA DO MP ATIVO BELO HORIZONTE - COMARCA; BH-07PJ TRIBUNAL DO JURI 5.176,02 0,00 0,00 0,00 0,00 0,00 5.176,02 569,36 476,25 0,00 1.045,61 4.130,41 352,00 0,00 28/02/2013
1055 478300 HERNANE LOPES SOUZA ANALISTA DO MP ATIVO MONTES CLAROS - COMARCA; MONTES CLAROS-PJ-12PJ 5.176,02 0,00 0,00 0,00 0,00 0,00 5.176,02 671,97 704,55 0,00 1.376,52 3.799,50 352,00 1.391,25 28/02/2013
1056 490000 HERNANI GANDRA DE ALMEIDA ANALISTA DO MP ATIVO VIRGINÓPOLIS - COMARCA; VIRGINOPOLIS-PJ-UNPJ 4.701,73 0,00 0,00 0,00 0,00 0,00 4.701,73 517,19 364,52 0,00 881,71 3.820,02 352,00 0,00 28/02/2013
1057 124900 HILARINO NOGUEIRA DE CARVALHO OFICIAL DO MP ATIVO SÃO JOÃO DEL REI - COMARCA; SAO JOAO DEL REI-PJ-03PJ 7.982,93 5.588,05 0,00 0,00 0,00 0,00 13.570,98 1.882,25 2.483,63 0,00 4.365,88 9.205,10 352,00 4.610,95 28/02/2013
1058 474700 HORTELIA MARIA DE MIRANDA GONCALVES ANALISTA DO MP ATIVO ARCOS - COMARCA; ARCOS-PJ-02PJ 4.701,73 0,00 0,00 0,00 0,00 0,00 4.701,73 611,98 571,09 0,00 1.183,07 3.518,66 352,00 1.292,64 28/02/2013
1059 504200 HUGO CESAR ROCHA DE PAIVA OFICIAL DO MP ATIVO BELO HORIZONTE - COMARCA; BH-19PJ SAUDE-SECRETARIA 150PJ 2.772,23 0,00 0,00 0,00 0,00 0,00 2.772,23 320,63 68,52 0,00 389,15 2.383,08 352,00 142,56 28/02/2013
1060 412000 HUMBERTO AUGUSTO DA SILVA GOMES ANALISTA DO MP ATIVO CONCEICAO DAS ALAGOAS - COMARCA; CONCEICAO DAS ALAGOAS-PJ-01PJ 5.883,73 353,02 0,00 0,00 0,00 0,00 6.236,75 715,32 688,57 0,00 1.403,89 4.832,86 587,00 504,49 28/02/2013
1061 297500 HUMBERTO JOSE TRIVELATO ANALISTA DO MP ATIVO JUIZ DE FORA - COMARCA; JUIZ DE FORA-PJ-22PJ 9.074,45 907,45 0,00 0,00 0,00 0,00 9.981,90 1.167,40 1.652,49 0,00 2.819,89 7.162,01 352,00 987,02 28/02/2013
1062 300400 HUMBERTO PEREIRA LANDIM ANALISTA DO MP ATIVO BELO HORIZONTE - COMARCA; BH-07PJ 01 TRIBUNAL JURI-SECRETARIA 8.788,36 878,84 0,00 0,00 0,00 0,00 9.667,20 1.234,52 1.575,47 0,00 2.809,99 6.857,21 352,00 2.265,68 28/02/2013
1063 125100 HYARBAS DELPHUS FERREIRA OFICIAL DO MP ATIVO BELO HORIZONTE - COMARCA; DIRETORIA DE SERVICO CIVEL 8.788,36 6.151,86 0,00 0,00 0,00 0,00 14.940,22 2.084,99 2.866,04 0,00 4.951,03 9.989,19 3.567,68 5.046,13 28/02/2013
1064 458100 IARA CAROLINA DE OLIVEIRA ANALISTA DO MP ATIVO NOVA SERRANA - COMARCA; NOVA SERRANA-PJ-01PJ 5.698,20 0,00 0,00 0,00 0,00 0,00 5.698,20 633,72 556,76 0,00 1.190,48 4.507,72 352,00 109,81 28/02/2013
1065 256000 IARA FERREIRA ARAUJO OFICIAL DO MP ATIVO DIVINÓPOLIS - COMARCA; COORD REG DO MA DA BACIA DO ALTO SAO FRANC 3.757,11 751,42 0,00 0,00 0,00 0,00 4.508,53 495,94 325,83 0,00 821,77 3.686,76 352,00 0,00 28/02/2013
1066 93100 IARA MARCIA ALVES OFICIAL DO MP ATIVO BELO HORIZONTE - COMARCA; BH-19PJ SAUDE-SECRETARIA 129PJ 9.369,85 4.684,93 0,00 0,00 0,00 0,00 14.054,78 2.035,78 2.602,03 0,00 4.637,81 9.416,97 1.431,39 5.836,27 28/02/2013
1067 404100 IARA ROCHA BARBALHO ANALISTA DO MP ATIVO BELO HORIZONTE - COMARCA; SUPERINTENDÊNCIA DE ENGENHARIA E ARQUITETURA 6.379,14 382,75 0,00 0,00 0,00 0,00 6.761,89 784,15 817,10 0,00 1.601,25 5.160,64 352,00 695,32 28/02/2013
1068 248500 IDELSON MENDES BOTELHO ANALISTA DO MP ATIVO JUIZ DE FORA - COMARCA; COORD REG PJ ORDEM ECON TRIB ZONA DA MATA-SEC 7.251,34 1.450,27 0,00 0,00 0,00 0,00 8.701,61 1.101,42 1.339,14 0,00 2.440,56 6.261,05 716,12 2.060,10 28/02/2013
1069 205600 IDELZIA RANGEL OFICIAL DO MP ATIVO SÃO JOÃO EVANGELISTA - COMARCA; SAO JOAO EVANGELISTA-PJ-SECRETARIA 7.487,46 2.994,99 0,00 0,00 0,00 0,00 10.482,45 1.258,61 1.727,71 0,00 2.986,32 7.496,13 3.567,68 1.679,16 28/02/2013
1070 429400 IEDA ALVES DA SILVA RABELO OFICIAL DO MP ATIVO BELO HORIZONTE - COMARCA; DIRET DE ESTAGIOS E CONVENIOS ACADEMICOS 3.151,29 189,08 0,00 0,00 0,00 0,00 3.340,37 367,44 125,34 0,00 492,78 2.847,59 352,00 0,00 28/02/2013
1071 507200 IGGOR LEONARDO COSTA GONTIJO ASSESSOR/ANALISTA ATIVO BELO HORIZONTE - COMARCA; DIRETORIA DE SISTEMAS DE INFORMACAO 0,00 0,00 7.487,46 0,00 0,00 0,00 7.487,46 569,36 1.111,90 0,00 1.681,26 5.806,20 3.567,68 294,77 28/02/2013
1072 434700 IGOR DE OLIVEIRA PACHECO ANALISTA DO MP ATIVO BELO HORIZONTE - COMARCA; PROC. JUSTICA DE HABEAS CORPUS 5.883,73 353,02 0,00 0,00 0,00 0,00 6.236,75 692,97 735,87 0,00 1.428,84 4.807,91 352,00 110,06 28/02/2013
1073 369700 IGOR DE OLIVEIRA RODRIGUES OFICIAL DO MP ATIVO UBERLÂNDIA - COMARCA; UBERLANDIA-PJ-10PJ 3.582,21 358,22 0,00 0,00 0,00 0,00 3.940,43 478,04 293,24 0,00 771,28 3.169,15 1.076,75 459,72 28/02/2013
1074 260400 IGOR LAENDER AMBROSI NAJAR ANALISTA DO MP ATIVO BELO HORIZONTE - COMARCA; BH-17PJ PATRIMONIO PUBLICO-SECRETARIA 9.074,45 1.814,89 0,00 0,00 0,00 0,00 10.889,34 1.494,85 1.871,37 0,00 3.366,22 7.523,12 4.037,68 3.834,11 28/02/2013
1075 387000 IGOR SILVEIRA PEDRA OFICIAL DO MP ATIVO BELO HORIZONTE - COMARCA; ASSESS EXECUTIVA DO CONSELHO SUPERIOR DO MP 3.469,26 208,16 0,00 0,00 0,00 0,00 3.677,42 418,39 187,17 0,00 605,56 3.071,86 3.567,68 286,86 28/02/2013
1076 58300 ILDA MARIA SOUSA CARMO AGENTE DO MP ATIVO BELO HORIZONTE - COMARCA; ASSESSORIA ESPECIAL FINANCEIRA DO PGJAA 21.668,41 15.167,88 0,00 0,00 0,00 2.652,94 39.489,23 2.652,94 5.747,18 12.718,67 21.118,79 18.370,44 3.567,68 294,77 28/02/2013
1077 330200 ILDOMAR BRAZ DE SOUZA OFICIAL DO MP ATIVO BELO HORIZONTE - COMARCA; BH-13ª PJ JUÍXO DE TÓXICOS 4.005,77 400,58 0,00 0,00 0,00 0,00 4.406,35 484,70 305,37 0,00 790,07 3.616,28 352,00 0,00 28/02/2013
1078 383800 INGRID CASSIA NACIF KASBERGEN NOGUEIRA ANALISTA DO MP ATIVO BELO HORIZONTE - COMARCA; DIRETORIA DE ORCAMENTO-DIOR/SPC 6.379,14 382,75 0,00 0,00 2.253,96 0,00 9.015,85 795,27 1.484,23 0,00 2.279,50 6.736,35 352,00 810,90 28/02/2013
1079 230100 INGRID MARTINS ESTEVES ANALISTA DO MP ATIVO BELO HORIZONTE - COMARCA; EXTINTA - COORD DEFESA DO DIREITO DE FAMILIA 10.315,17 2.063,03 0,00 0,00 0,00 0,00 12.378,20 1.666,31 2.238,99 0,00 3.905,30 8.472,90 352,00 3.348,69 28/02/2013
1080 523800 INGRID SARAIVA DE ALENCAR OFICIAL DO MP ATIVO BELO HORIZONTE - COMARCA; DIRETORIA DE PAGAMENTO DE PESSOAL-DPAG 2.684,83 0,00 0,00 0,00 0,00 0,00 2.684,83 295,33 50,90 0,00 346,23 2.338,60 352,00 0,00 28/02/2013
1081 299200 IRAC DUARTE DA SILVA ANALISTA DO MP ATIVO PATOS DE MINAS - COMARCA; PATOS DE MINAS-PJ-04PJ 7.982,93 798,29 0,00 0,00 0,00 0,00 8.781,22